[[{"header":{"parameterUnit":"m.s-1","parameterCategory":1,"la1":30.6,"la2":29.2853,"lo1":-89.7004,"lo2":-87.6739,"dy":0.0162,"dx":0.0183,"nx":112,"ny":82,"refTime":"2024-08-21T06:00:00:Z","depth":0,"parameterNumber":2,"parameterNumberName":"U-component_of_WINDS"},"data":[0.0,0.0,0.0,0.0,0.0,0.0,0.0,0.0,0.0,0.0,0.0,0.0,0.0,0.0,0.0,0.0,0.0,0.0,0.0,0.0,0.0,0.0,0.0,0.0,0.0,0.0,0.0,0.0,0.0,0.0,0.0,0.0,0.0,0.0,0.0,0.0,0.0,0.0,0.0,0.0,0.0,0.0,0.0,0.0,0.0,0.0,0.0,0.0,0.0,0.0,0.0,0.0,0.0,0.0,0.0,0.0,0.0,0.0,0.0,0.0,0.0,0.0,0.0,0.0,0.0,0.0,0.0,0.0,0.0,0.0,0.0,0.0,0.0,0.0,0.0,0.0,0.0,0.0,0.0,0.0,0.0,0.0,0.0,0.0,0.0,0.0,0.0,0.0,0.0,0.0,0.0,1.5431,1.5661,1.5808,1.5808,1.5808,1.5578,1.5026,0.0,0.0,0.0,0.0,0.0,0.0,0.0,0.0,0.0,0.0,0.0,0.0,0.0,0.0,0.0,0.0,0.0,0.0,0.0,0.0,0.0,0.0,0.0,0.0,0.0,0.0,0.0,0.0,0.0,0.0,0.0,0.0,0.0,0.0,0.0,0.0,0.0,0.0,0.0,0.0,0.0,0.0,0.0,0.0,0.0,0.0,0.0,0.0,0.0,0.0,0.0,0.0,0.0,0.0,0.0,0.0,0.0,0.0,0.0,0.0,0.0,0.0,0.0,0.0,0.0,0.0,0.0,0.0,0.0,0.0,0.0,0.0,0.0,0.0,0.0,0.0,0.0,0.0,0.0,0.0,0.0,0.0,0.0,0.0,0.0,0.0,0.0,0.0,0.0,0.0,0.0,0.0,0.0,0.0,0.0,0.0,0.0,0.0,0.0,0.0,0.0,0.0,0.0,0.0,1.5186,1.5688,1.5781,1.5808,1.5808,1.5808,1.5578,1.5026,0.0,0.0,0.0,0.0,0.0,0.0,0.0,0.0,0.0,0.0,0.0,0.0,0.0,0.0,0.0,0.0,0.0,0.0,0.0,0.0,0.0,0.0,0.0,0.0,0.0,0.0,0.0,0.0,0.0,0.0,0.0,0.0,0.0,0.0,0.0,0.0,0.0,0.0,0.0,0.0,0.0,0.0,0.0,0.0,0.0,0.0,0.0,0.0,0.0,0.0,0.0,0.0,0.0,0.0,0.0,0.0,0.0,0.0,0.0,0.0,0.0,0.0,0.0,0.0,0.0,0.0,0.0,0.0,0.0,0.0,0.0,0.0,0.0,0.0,0.0,0.0,0.0,0.0,0.0,0.0,0.0,0.0,0.0,0.0,0.0,0.0,0.0,0.0,0.0,0.0,0.0,0.0,0.0,0.0,0.0,0.0,0.0,0.0,0.0,0.0,0.0,0.0,0.0,1.507,1.5538,1.5781,1.5808,1.5808,1.5808,1.5661,1.5418,1.5013,1.4389,0.0,0.0,0.0,0.0,0.0,0.0,0.0,0.0,0.0,0.0,0.0,0.0,0.0,0.0,0.0,0.0,0.0,0.0,0.0,0.0,0.0,0.0,0.0,0.0,0.0,0.0,0.0,0.0,0.0,0.0,0.0,0.0,0.0,0.0,0.0,0.0,0.0,0.0,0.0,0.0,0.0,0.0,0.0,0.0,0.0,0.0,0.0,0.0,0.0,0.0,0.0,0.0,0.0,0.0,0.0,0.0,0.0,0.0,0.0,0.0,0.0,0.0,0.0,0.0,0.0,0.0,0.0,0.0,0.0,0.0,0.0,0.0,0.0,0.0,0.0,0.0,0.0,0.0,0.0,0.0,0.0,0.0,0.0,0.0,0.0,0.0,0.0,0.0,0.0,0.0,0.0,0.0,0.0,0.0,0.0,0.0,0.0,0.0,0.0,0.0,0.0,0.0,1.5471,1.5808,1.5808,1.5808,1.5808,1.5808,1.5541,1.5294,1.5022,1.4114,0.0,0.0,0.0,0.0,0.0,0.0,0.0,0.0,0.0,0.0,0.0,0.0,0.0,0.0,0.0,0.0,0.0,0.0,0.0,0.0,0.0,0.0,0.0,0.0,0.0,0.0,0.0,0.0,0.0,0.0,0.0,0.0,0.0,0.0,0.0,0.0,0.0,0.0,0.0,0.0,0.0,0.0,0.0,0.0,0.0,0.0,0.0,0.0,0.0,0.0,0.0,0.0,0.0,0.0,0.0,0.0,0.0,0.0,0.0,0.0,0.0,0.0,0.0,0.0,0.0,0.0,0.0,0.0,0.0,0.0,0.0,0.0,0.0,0.0,0.0,0.0,0.0,0.0,0.0,0.0,0.0,0.0,0.0,0.0,0.0,0.0,0.0,0.0,0.0,0.0,0.0,0.0,0.0,0.0,0.0,0.0,0.0,0.0,0.0,0.0,0.0,0.0,1.5471,1.5808,1.5808,1.5808,1.5808,1.5808,1.5541,1.5294,1.5022,1.4114,0.0,0.0,0.0,0.0,0.0,0.0,0.0,0.0,0.0,0.0,0.0,0.0,0.0,0.0,0.0,0.0,0.0,0.0,0.0,0.0,0.0,0.0,0.0,0.0,0.0,0.0,0.0,0.0,0.0,0.0,0.0,0.0,0.0,0.0,0.0,0.0,0.0,0.0,0.0,0.0,0.0,0.0,0.0,0.0,0.0,0.0,0.0,0.0,0.0,0.0,0.0,0.0,0.0,0.0,0.0,0.0,0.0,0.0,0.0,0.0,0.0,0.0,0.0,0.0,0.0,0.0,0.0,0.0,0.0,0.0,0.0,0.0,0.0,0.0,0.0,0.0,0.0,0.0,0.0,0.0,0.0,0.0,0.0,0.0,0.0,0.0,0.0,0.0,0.0,0.0,0.0,0.0,0.0,0.0,0.0,0.0,0.0,0.0,0.0,0.0,0.0,0.0,1.5471,1.5808,0.0,1.5808,1.5808,1.5808,1.5391,1.5026,1.471,0.0,0.0,0.0,0.0,0.0,0.0,0.0,0.0,0.0,0.0,0.0,0.0,0.0,0.0,0.0,0.0,0.0,0.0,0.0,0.0,0.0,0.0,0.0,0.0,0.0,0.0,0.0,0.0,0.0,0.0,0.0,0.0,0.0,0.0,0.0,0.0,0.0,0.0,0.0,0.0,0.0,0.0,0.0,0.0,0.0,0.0,0.0,0.0,0.0,0.0,0.0,0.0,0.0,0.0,0.0,0.0,0.0,0.0,0.0,0.0,0.0,0.0,0.0,0.0,0.0,0.0,0.0,0.0,0.0,0.0,0.0,0.0,0.0,0.0,0.0,0.0,0.0,0.0,0.0,0.0,0.0,0.0,0.0,0.0,0.0,0.0,0.0,0.0,0.0,0.0,0.0,0.0,0.0,0.0,0.0,0.0,0.0,0.0,0.0,0.0,0.0,0.0,1.4905,1.5471,1.5808,0.0,1.5808,1.5808,1.5808,1.5378,1.4999,1.4683,0.0,0.0,0.0,0.0,0.0,0.0,0.0,0.0,0.0,0.0,0.0,0.0,0.0,0.0,0.0,0.0,0.0,0.0,0.0,0.0,0.0,0.0,0.0,0.0,0.0,0.0,0.0,0.0,0.0,0.0,0.0,0.0,0.0,0.0,0.0,0.0,0.0,0.0,0.0,0.0,0.0,0.0,0.0,0.0,0.0,0.0,0.0,0.0,0.0,0.0,0.0,0.0,0.0,0.0,0.0,0.0,0.0,0.0,0.0,0.0,0.0,0.0,0.0,0.0,0.0,0.0,0.0,0.0,0.0,0.0,0.0,0.0,0.0,0.0,0.0,0.0,0.0,0.0,0.0,0.0,0.0,0.0,0.0,0.0,0.0,0.0,0.0,0.0,0.0,0.0,0.0,0.0,0.0,0.0,0.0,0.0,0.0,0.0,0.0,0.0,0.0,0.0,1.4941,1.5471,1.5808,1.5808,1.5808,1.5808,1.5808,1.5541,1.5271,0.0,0.0,0.0,0.0,0.0,0.0,0.0,0.0,0.0,0.0,0.0,0.0,0.0,0.0,0.0,0.0,0.0,0.0,0.0,0.0,0.0,0.0,0.0,0.0,0.0,0.0,0.0,0.0,0.0,0.0,0.0,0.0,0.0,0.0,0.0,0.0,0.0,0.0,0.0,0.0,0.0,0.0,0.0,0.0,0.0,0.0,0.0,0.0,0.0,0.0,0.0,0.0,0.0,0.0,0.0,0.0,0.0,0.0,0.0,0.0,0.0,0.0,0.0,0.0,0.0,0.0,0.0,0.0,0.0,0.0,0.0,0.0,0.0,0.0,0.0,0.0,0.0,0.0,0.0,0.0,0.0,0.0,0.0,0.0,0.0,0.0,0.0,0.0,0.0,0.0,0.0,0.0,0.0,0.0,0.0,0.0,0.0,0.0,0.0,0.0,0.0,0.0,0.0,1.5186,1.5778,1.6139,1.6139,1.6139,1.6059,1.5821,1.5541,1.5177,1.4683,0.0,0.0,0.0,0.0,0.0,0.0,0.0,0.0,0.0,0.0,0.0,0.0,0.0,0.0,0.0,0.0,0.0,0.0,0.0,0.0,0.0,0.0,0.0,0.0,0.0,0.0,0.0,0.0,0.0,0.0,0.0,0.0,0.0,0.0,0.0,0.0,0.0,0.0,0.0,0.0,0.0,0.0,0.0,0.0,0.0,0.0,0.0,0.0,0.0,0.0,0.0,0.0,0.0,0.0,0.0,0.0,0.0,0.0,0.0,0.0,0.0,0.0,0.0,0.0,0.0,0.0,0.0,0.0,0.0,0.0,0.0,0.0,0.0,0.0,0.0,0.0,0.0,0.0,0.0,0.0,0.0,0.0,0.0,0.0,0.0,0.0,0.0,0.0,0.0,0.0,0.0,0.0,0.0,0.0,0.0,0.0,0.0,0.0,0.0,0.0,0.0,0.0,1.5311,1.6005,1.6471,1.6471,1.6364,1.623,1.6019,1.5738,1.5324,1.4736,0.0,0.0,0.0,0.0,0.0,0.0,0.0,0.0,0.0,0.0,0.0,0.0,0.0,0.0,0.0,0.0,0.0,0.0,0.0,0.0,0.0,0.0,0.0,0.0,0.0,0.0,0.0,0.0,0.0,0.0,0.0,0.0,0.0,0.0,0.0,0.0,0.0,0.0,0.0,0.0,0.0,0.0,0.0,0.0,0.0,0.0,0.0,0.0,0.0,0.0,0.0,0.0,0.0,0.0,0.0,0.0,0.0,0.0,0.0,0.0,0.0,0.0,0.0,0.0,0.0,0.0,0.0,0.0,0.0,0.0,0.0,0.0,0.0,0.0,0.0,0.0,0.0,0.0,0.0,0.0,0.0,0.0,0.0,0.0,0.0,0.0,0.0,0.0,0.0,0.0,0.0,0.0,0.0,0.0,0.0,0.0,0.0,0.0,0.0,0.0,0.0,0.0,1.5431,1.6219,1.674,1.674,1.6538,1.6351,1.6297,1.6019,1.5618,1.5066,0.0,0.0,0.0,0.0,0.0,0.0,0.0,0.0,0.0,0.0,0.0,0.0,0.0,0.0,0.0,0.0,0.0,0.0,0.0,0.0,0.0,0.0,0.0,0.0,0.0,0.0,0.0,0.0,0.0,0.0,0.0,0.0,0.0,0.0,0.0,0.0,0.0,0.0,0.0,0.0,0.0,0.0,0.0,0.0,0.0,0.0,0.0,0.0,0.0,0.0,0.0,0.0,0.0,0.0,0.0,0.0,0.0,0.0,0.0,0.0,1.3996,0.0,0.0,0.0,0.0,0.0,0.0,0.0,0.0,0.0,0.0,0.0,0.0,0.0,0.0,0.0,0.0,0.0,0.0,0.0,0.0,0.0,0.0,0.0,0.0,0.0,0.0,0.0,0.0,0.0,0.0,0.0,0.0,0.0,0.0,0.0,0.0,0.0,0.0,0.0,0.0,0.0,1.6016,1.6672,1.7073,1.7073,1.7045,1.6831,1.6337,1.6244,1.5925,1.5337,1.4794,0.0,0.0,0.0,0.0,0.0,0.0,0.0,0.0,0.0,0.0,0.0,0.0,0.0,0.0,0.0,0.0,0.0,0.0,0.0,0.0,0.0,0.0,0.0,0.0,0.0,0.0,0.0,0.0,0.0,0.0,0.0,0.0,0.0,0.0,0.0,0.0,0.0,0.0,0.0,0.0,0.0,0.0,0.0,0.0,0.0,0.0,0.0,0.0,0.0,0.0,0.0,0.0,0.0,0.0,0.0,0.0,0.0,0.0,0.0,0.0,1.471,0.0,0.0,0.0,0.0,0.0,0.0,0.0,0.0,0.0,0.0,0.0,0.0,0.0,0.0,0.0,0.0,0.0,0.0,0.0,0.0,0.0,0.0,0.0,0.0,0.0,0.0,0.0,0.0,0.0,0.0,0.0,0.0,0.0,0.0,0.0,0.0,0.0,0.0,0.0,0.0,1.6244,1.6926,1.7381,1.7381,1.7286,1.7072,1.6764,1.6458,1.611,1.5631,1.519,0.0,0.0,0.0,0.0,0.0,0.0,0.0,0.0,0.0,0.0,0.0,0.0,0.0,0.0,0.0,0.0,0.0,0.0,0.0,0.0,0.0,0.0,0.0,0.0,0.0,0.0,0.0,0.0,0.0,0.0,0.0,0.0,0.0,0.0,0.0,0.0,0.0,0.0,0.0,0.0,0.0,0.0,0.0,0.0,0.0,0.0,0.0,0.0,0.0,0.0,0.0,0.0,0.0,1.6486,1.65,1.6222,1.6993,1.722,1.6967,1.6192,1.5792,1.5722,0.0,0.0,0.0,0.0,0.0,0.0,0.0,0.0,0.0,0.0,0.0,0.0,0.0,0.0,0.0,0.0,0.0,0.0,0.0,0.0,0.0,0.0,0.0,0.0,0.0,1.6767,1.6582,0.0,0.0,0.0,0.0,0.0,0.0,0.0,0.0,0.0,0.0,0.0,0.0,1.6431,1.7127,1.7608,1.7608,1.7394,1.7259,1.7206,1.6725,1.6273,1.5901,1.5631,1.5231,0.0,0.0,0.0,0.0,0.0,0.0,0.0,0.0,0.0,0.0,0.0,0.0,0.0,0.0,0.0,0.0,0.0,0.0,0.0,0.0,0.0,0.0,0.0,0.0,0.0,0.0,0.0,0.0,0.0,0.0,0.0,0.0,1.2798,1.342,0.0,0.0,0.0,0.0,0.0,0.0,0.0,0.0,0.0,0.0,0.0,0.0,0.0,1.6431,1.6965,1.7234,1.7355,1.7355,1.7929,1.8036,1.7702,1.7849,1.8022,1.8237,1.7836,0.0,1.6924,1.6391,0.0,0.0,0.0,0.0,0.0,0.0,0.0,0.0,0.0,0.0,0.0,0.0,0.0,0.0,0.0,0.0,0.0,0.0,0.0,0.0,0.0,0.0,1.7475,1.7716,1.7796,1.7796,0.0,1.6807,1.6096,1.6029,1.5628,0.0,0.0,0.0,0.0,0.0,0.0,0.0,1.7018,1.7381,1.7608,1.7608,1.7582,1.7448,1.7219,1.7125,1.6844,1.627,1.5939,1.5595,1.5297,1.5066,0.0,0.0,0.0,0.0,0.0,0.0,0.0,0.0,0.0,0.0,0.0,0.0,0.0,0.0,0.0,0.0,0.0,0.0,0.0,0.0,0.0,0.0,0.0,0.0,0.0,0.0,0.0,0.0,0.0,1.2641,1.381,1.4327,1.4522,1.4616,0.0,0.0,0.0,0.0,0.0,0.0,0.0,0.0,0.0,1.702,1.7193,1.7382,1.7662,1.7943,1.8117,1.8103,1.8531,1.8584,1.8276,1.8637,1.8771,1.8731,1.8758,1.8558,1.8103,1.7515,1.7088,1.6807,0.0,0.0,0.0,0.0,1.682,1.682,1.682,1.6822,0.0,1.6299,0.0,0.0,0.0,0.0,0.0,0.0,0.0,0.0,0.0,0.0,0.0,1.8436,1.8516,1.8556,1.8758,1.825,1.7609,0.0,1.6941,1.6702,1.6219,0.0,0.0,0.0,0.0,1.7193,1.7595,1.7916,1.8023,1.7836,1.7809,1.7716,1.7448,1.73,1.7085,1.6831,1.6486,1.6235,1.6139,1.5882,1.5641,0.0,0.0,0.0,0.0,0.0,0.0,0.0,0.0,0.0,0.0,0.0,0.0,0.0,0.0,0.0,0.0,0.0,0.0,0.0,0.0,0.0,0.0,0.0,0.0,0.0,0.0,0.0,0.0,1.3896,1.4837,1.5164,1.5511,1.5618,0.0,0.0,0.0,0.0,0.0,0.0,1.7141,1.7474,1.7796,1.8143,1.8357,1.8476,1.8556,1.8811,1.8931,1.8945,1.913,1.9116,1.8958,1.9386,1.9466,1.9236,1.9492,1.9466,1.917,1.8436,1.7956,1.7702,1.7689,1.7702,1.7716,1.7809,1.7836,1.7836,1.7836,1.7889,1.7929,1.7329,0.0,1.7274,1.6568,0.0,0.0,0.0,0.0,1.7541,1.809,1.8424,1.8677,1.8971,1.9092,1.9212,1.9455,1.9359,1.897,0.0,1.7969,1.7782,1.7142,0.0,0.0,0.0,0.0,1.7809,1.8089,1.8357,1.841,1.8156,1.8035,1.7929,1.7716,1.7461,1.7286,1.7206,1.6966,1.678,1.6714,1.65,1.6286,1.6035,0.0,0.0,0.0,0.0,0.0,0.0,0.0,0.0,0.0,0.0,0.0,0.0,0.0,0.0,0.0,0.0,0.0,0.0,0.0,0.0,0.0,0.0,0.0,0.0,0.0,0.0,0.0,0.0,0.0,1.5795,1.6286,0.0,0.0,0.0,0.0,1.7085,1.7622,1.8063,1.8384,1.8677,1.9063,1.9666,1.9706,1.984,2.009,2.0104,2.0117,2.0117,2.013,2.013,2.0117,2.0144,2.0157,2.0144,2.0157,2.0157,2.005,1.8931,1.829,1.7969,1.7969,1.7982,1.8036,1.8343,1.8437,1.8437,1.8437,1.8263,1.8063,1.833,1.8223,1.7942,1.7889,1.7702,0.0,0.0,1.7969,1.8103,1.8703,1.8863,1.8943,1.9308,1.9589,1.976,1.9773,1.9987,1.9877,0.0,1.8396,1.7982,1.7929,0.0,1.7662,1.7916,1.7955,1.8103,1.8437,1.8477,1.8477,1.8464,1.8196,1.7982,1.7969,1.7742,1.7461,1.7219,1.7192,1.7033,1.6714,1.6687,1.6673,1.666,1.6061,0.0,0.0,0.0,0.0,0.0,0.0,0.0,0.0,0.0,0.0,0.0,0.0,0.0,0.0,0.0,0.0,0.0,0.0,0.0,0.0,0.0,0.0,0.0,0.0,0.0,0.0,0.0,0.0,1.6712,1.7394,0.0,1.7422,1.7836,1.817,1.8277,1.8838,1.9225,1.9332,1.9583,1.9837,2.0037,2.005,2.0104,2.0197,2.0197,2.0197,2.0197,2.0197,2.0197,2.0197,2.0197,2.0197,2.0197,2.0197,2.0197,2.017,1.9757,1.9517,1.9423,1.941,1.9423,1.941,1.9359,1.9332,1.9305,1.9147,1.8985,1.8878,1.8798,1.8571,1.833,1.833,1.8263,1.8223,1.8503,1.8583,1.8716,1.9303,1.9492,1.9559,1.9853,2.0,2.005,2.005,2.013,2.0117,1.9797,1.957,1.9303,1.8958,1.8839,1.8732,1.8596,1.8583,1.8689,1.904,1.908,1.9013,1.8784,1.8649,1.8436,1.8022,1.7916,1.7675,1.7233,1.7206,1.7152,1.702,1.702,1.702,1.702,1.6593,1.6246,0.0,0.0,0.0,0.0,0.0,0.0,0.0,0.0,0.0,0.0,0.0,0.0,0.0,0.0,0.0,0.0,0.0,0.0,0.0,0.0,0.0,0.0,0.0,0.0,0.0,0.0,1.7742,1.7635,1.8424,1.8771,1.8329,1.8836,1.9196,1.9196,1.976,2.0094,2.0094,2.0374,2.049,2.049,2.049,2.049,2.049,2.049,2.049,2.049,2.049,2.049,2.049,2.049,2.049,2.049,2.049,2.049,2.049,2.049,2.049,2.0477,2.0277,2.0197,2.0184,1.9983,1.9947,1.992,1.972,1.9653,1.9626,1.9397,1.9239,1.9078,1.9078,1.9078,1.9118,1.9276,1.933,1.9423,1.981,1.9947,2.0,2.0157,2.0277,2.0374,2.0374,2.0424,2.049,2.049,2.0344,2.0077,1.972,1.9653,1.9586,1.937,1.925,1.9292,1.9522,1.9455,1.9321,1.9092,1.8985,1.8743,1.8343,1.8129,1.7849,1.7501,1.7381,1.7314,1.7314,1.7314,1.7314,1.7314,1.7033,1.6832,1.6739,0.0,0.0,0.0,0.0,0.0,0.0,0.0,0.0,0.0,0.0,0.0,0.0,0.0,0.0,0.0,0.0,0.0,0.0,0.0,0.0,0.0,0.0,0.0,1.6937,1.8046,1.8823,1.8571,1.9292,1.9599,1.901,1.9506,1.984,1.984,2.0374,2.0726,2.0726,2.0962,2.1109,2.1109,2.1109,2.1109,2.1109,2.1109,2.1109,2.1109,2.1109,2.1109,2.1109,2.1109,2.1109,2.1109,2.1109,2.1109,2.1109,2.1109,2.1109,2.1056,2.045,2.0224,2.0224,2.0224,2.021,2.0197,2.0197,2.0197,2.0197,2.0197,2.0197,2.0197,2.0197,2.0197,2.0197,2.0197,2.0197,2.021,2.021,2.0224,2.0224,2.0224,2.0481,2.0726,2.0726,2.0909,2.1109,2.1109,2.0624,2.0224,2.0224,2.0224,2.021,2.0197,2.0,0.0,1.9813,1.9602,1.9428,1.9428,1.9132,1.893,1.8916,1.8383,1.8022,1.7982,1.7756,1.7608,1.7608,1.7622,1.7635,1.7648,1.7407,1.7381,1.7648,0.0,0.0,0.0,0.0,0.0,0.0,0.0,0.0,0.0,0.0,0.0,0.0,0.0,0.0,0.0,0.0,0.0,0.0,0.0,0.0,0.0,0.0,1.8423,1.8088,1.8901,1.9533,1.9452,2.0027,2.0405,2.0214,2.0535,2.0748,2.0748,2.0895,2.0989,2.0989,2.1069,2.1109,2.1109,2.1109,2.1109,2.1109,2.1109,2.1109,2.1109,2.1109,2.1109,2.1109,2.1109,2.1109,2.1109,2.1109,2.1109,2.1109,2.1109,2.1109,2.1096,2.0935,2.0837,2.0842,2.0628,2.0414,2.0197,2.0197,2.0197,2.0197,2.0197,2.0197,2.0197,2.0197,2.0197,2.0197,2.0197,2.0197,2.025,2.0494,2.0548,2.0615,2.0815,2.0935,2.0989,2.0989,2.1056,2.1109,2.1109,2.0975,2.0802,2.0588,2.0548,2.0481,2.0237,2.013,0.0,2.0077,2.001,2.0,2.0,1.989,1.9706,1.9308,1.9092,1.8637,1.7769,1.7622,1.7608,1.7608,1.7796,1.8089,1.8516,1.8719,1.8719,0.0,0.0,0.0,0.0,0.0,0.0,0.0,0.0,0.0,0.0,0.0,0.0,0.0,0.0,0.0,0.0,0.0,0.0,0.0,0.0,0.0,0.0,1.8891,1.9423,1.9412,1.984,2.0174,2.0174,2.0575,2.0855,2.0855,2.1015,2.1109,2.1109,2.1109,2.1109,2.1109,2.1109,2.1109,2.1109,2.1109,2.1109,2.1109,2.1109,2.1109,2.1109,2.1109,2.1109,2.1109,2.1109,2.1109,0.0,2.1109,2.1109,2.1109,2.1109,2.1109,0.0,0.0,0.0,0.0,0.0,2.0748,2.057,2.057,2.057,2.057,2.057,2.057,2.057,2.057,2.057,2.057,2.057,2.057,2.061,2.0815,2.0855,2.0895,2.1069,2.1109,2.1109,2.1109,2.1109,2.1109,2.1109,2.1109,0.0,2.0882,2.0855,2.0802,2.0597,2.0464,2.0414,2.0414,2.0277,2.0197,2.0197,2.0197,2.0064,1.976,1.9626,0.0,0.0,0.0,1.8358,1.8358,1.8504,0.0,0.0,0.0,0.0,0.0,0.0,0.0,0.0,1.9263,1.9519,0.0,0.0,0.0,0.0,0.0,0.0,0.0,0.0,0.0,0.0,0.0,0.0,0.0,0.0,0.0,0.0,1.973,2.0357,2.0712,2.0753,2.0753,2.0753,2.0949,2.1109,2.1109,2.1136,2.1162,2.1162,2.1189,2.1203,2.1203,0.0,0.0,0.0,0.0,2.1203,2.1203,2.1203,2.1203,2.1203,2.1176,2.1162,2.1162,2.1122,2.1109,2.1109,2.1109,2.1109,2.1109,2.1109,2.1109,2.1109,2.1109,2.1109,2.1109,2.1109,2.1109,2.1109,2.1109,0.0,0.0,2.1109,2.1109,2.1109,2.1109,2.1109,2.1109,2.1109,2.1109,2.1109,2.1109,2.1109,2.1109,2.1109,2.1109,2.1109,2.1109,2.1109,2.1109,2.1109,2.1109,2.1109,2.1109,2.1109,2.1109,2.1109,2.0895,2.0753,2.0753,2.0494,2.0304,2.0304,0.0,0.0,2.025,2.004,1.976,1.9468,1.9441,1.9468,1.9495,1.9522,1.9669,1.9893,1.9933,2.0187,2.0712,2.0739,2.0882,2.1136,2.0321,2.0241,0.0,0.0,0.0,0.0,0.0,0.0,0.0,0.0,0.0,0.0,0.0,0.0,0.0,0.0,0.0,1.981,2.0321,2.0695,2.0989,2.1029,2.1029,2.1029,2.1082,2.1109,2.1109,2.1323,2.1502,2.1502,2.1683,2.1817,2.1817,2.1817,0.0,2.1817,2.1817,2.1817,2.1817,2.1817,2.1817,2.1817,0.0,0.0,2.1489,2.1216,2.1109,2.1109,2.1109,2.1109,2.1109,2.1109,2.1109,2.1109,2.1109,2.1109,2.1109,2.1109,2.1109,2.1109,2.1109,2.1109,2.1109,2.1109,2.1109,2.1109,2.1109,2.1109,0.0,2.1109,2.1109,2.1109,2.1109,2.1109,2.1109,2.1109,2.1109,2.1109,2.1109,2.1109,2.1109,2.1109,2.1109,2.1109,2.1109,2.1109,2.1109,2.1109,2.1069,2.1029,2.1029,2.0975,2.0935,2.0935,2.0935,2.0842,2.0615,2.0579,2.0311,1.9746,1.972,1.9826,2.0024,2.0294,2.0485,2.0539,2.0735,2.0802,2.0712,2.0909,2.1176,2.1489,2.1042,2.1042,0.0,0.0,0.0,0.0,0.0,0.0,0.0,0.0,0.0,0.0,0.0,1.7909,1.8741,0.0,1.9743,2.0361,2.0708,2.0949,2.1082,2.1109,2.1109,2.1109,2.1109,2.1162,2.1309,2.1502,2.1649,2.1796,2.193,2.1991,2.1991,2.1991,2.1991,2.1991,2.1991,2.1991,2.1991,2.1991,2.1991,2.1991,2.1877,2.1796,2.1796,2.1617,2.155,2.1537,2.139,2.1368,2.1355,2.1176,2.1109,2.1109,2.1109,2.1109,2.1109,2.1109,2.1109,2.1109,2.1109,2.1109,2.1109,2.1109,2.1109,2.1109,2.1109,2.1109,2.1109,2.1109,2.1109,2.1109,2.1109,2.1109,2.1109,2.1109,2.1109,2.1109,2.1109,2.1109,2.1109,2.1109,2.1109,2.1109,2.1109,2.1109,2.1109,2.1109,2.1109,2.1109,2.1109,2.1109,2.1109,2.1109,2.1109,2.1056,2.0909,2.0793,2.0646,2.0468,2.0321,2.0374,2.0624,2.0815,2.0895,2.0895,2.1042,2.1109,2.1141,2.1288,2.1515,2.1796,2.1617,2.163,0.0,0.0,0.0,0.0,0.0,0.0,0.0,0.0,1.7425,1.8205,1.8617,1.9071,1.9837,2.016,2.0384,2.0739,2.0962,2.1109,2.1109,2.1109,2.1109,2.1109,2.1162,2.1296,2.1569,2.1689,2.185,2.2044,2.2124,2.2151,2.2151,2.2151,2.2151,2.2151,2.2151,2.2151,2.2151,2.2151,2.2151,2.2151,2.2098,2.2071,2.2071,2.2004,2.1991,2.201,2.177,2.1636,2.1569,2.1296,2.1162,2.1109,2.1109,2.1109,2.1109,2.1109,2.1109,2.1109,2.1109,2.1109,2.1109,2.1109,2.1109,2.1109,2.1109,2.1109,2.1109,2.1109,2.1109,2.1109,2.1109,2.1109,2.1109,2.1109,2.1109,2.1109,2.1109,2.1109,2.1109,2.1109,2.1109,2.1109,2.1109,2.1109,2.1109,2.1109,2.1109,2.1109,2.1109,2.1109,2.1109,2.1109,2.1109,2.1109,2.1109,2.0895,2.0855,2.1096,2.0895,2.0895,2.1189,2.1189,2.1229,2.1283,2.1283,2.1403,2.1662,2.1662,2.1823,2.2071,2.2071,2.2071,1.1602,1.3356,1.5075,1.6174,1.673,1.7173,0.0,0.0,1.8848,1.9191,1.9671,2.0127,2.0521,2.0601,2.0722,2.1015,2.1082,2.1109,2.1109,2.1109,2.1109,2.1109,2.1368,2.1542,2.1614,2.2017,2.2338,2.2331,2.2619,2.28,2.28,2.28,2.28,2.28,2.28,2.28,2.28,2.28,2.28,2.28,2.2498,2.2378,2.2365,2.2111,2.1991,2.201,2.1984,2.1823,2.1614,2.1542,2.1381,2.1109,2.1109,2.1109,2.1109,2.1109,2.1109,2.1109,2.1109,2.1109,2.1109,2.1109,2.1109,2.1109,2.1109,2.1109,2.1109,2.1109,2.1109,2.1109,2.1109,2.1109,2.1109,2.1109,2.1109,2.1109,2.1109,2.1109,2.1109,2.1109,2.1109,2.1109,2.1109,2.1109,2.1109,2.1109,2.1109,2.1109,2.1109,2.1109,2.1109,2.1109,2.1109,2.1109,2.1109,2.1082,2.1069,2.1109,2.1082,2.1189,2.1529,2.1542,2.1662,2.1884,2.1884,2.1911,2.197,2.197,2.2084,2.2378,2.2378,2.2378,1.3184,1.4974,1.647,0.0,1.7634,1.8311,1.8763,1.9293,1.9797,2.0089,2.0442,2.0775,2.0909,2.0922,2.0962,0.0,2.1109,2.1109,2.1109,2.1109,2.1109,2.1109,2.1523,2.1836,2.1836,2.2178,2.2485,2.2659,2.2827,2.2893,2.2893,2.2893,2.2893,2.2893,2.2893,2.2893,2.2893,2.2893,2.2893,2.2893,2.2773,2.2672,2.2672,2.2586,2.2439,2.2231,2.2231,2.2071,2.1823,2.1649,2.1515,2.1381,2.1176,2.1109,2.1109,2.1109,2.1109,2.1109,2.1109,2.1109,2.1109,2.1109,2.1109,2.1109,2.1109,2.1109,2.1109,2.1109,2.1109,2.1109,2.1109,2.1109,2.1109,2.1109,2.1243,2.1395,2.1395,2.1496,2.1577,2.1435,2.1395,2.1341,2.1136,2.1109,2.1109,2.1109,2.1109,2.1109,2.1109,2.1109,2.1109,2.1109,2.1109,2.1109,2.1109,2.1269,2.1395,2.1395,2.1523,2.167,2.1836,2.1836,2.189,2.201,2.1991,2.2071,2.2231,2.2231,2.2392,2.2672,2.2672,2.2779,1.4862,0.0,0.0,1.7725,1.8551,1.9359,1.9696,2.012,2.0504,2.0748,2.0962,2.1109,2.1109,2.1109,2.1109,2.1109,2.1176,2.1203,2.1122,2.1176,2.1203,2.1122,2.155,2.193,2.1977,2.2325,2.2632,2.288,2.2893,2.2893,2.2893,2.2974,2.3027,2.3027,2.3027,2.3027,2.3027,2.2934,2.2893,2.2893,2.2893,2.2893,2.2893,2.2893,2.2773,2.2539,2.2539,2.2378,2.2084,2.1917,2.1783,2.1689,2.143,2.1309,2.1243,2.1323,2.1243,2.1109,2.1109,2.1109,2.1109,2.1109,2.1109,2.1109,2.1109,2.1109,2.1109,2.1109,2.1109,2.1109,2.1109,2.1162,2.1229,2.1229,2.1489,2.1703,2.1703,2.1877,2.1924,2.1743,2.1703,2.1636,2.139,2.1349,2.1349,2.1349,2.1349,2.1296,2.1136,2.1109,2.1109,2.1109,2.1109,2.1149,2.1229,2.1462,2.1622,2.1703,2.1903,2.2017,2.2098,2.2111,2.2151,2.2265,2.2265,2.2325,2.2539,2.2539,2.2645,2.2893,2.2893,2.3033,0.0,0.0,1.8182,1.9105,1.976,2.0237,2.0575,2.0869,2.1082,2.1096,2.1096,2.1109,2.1109,2.1109,2.1109,2.1109,2.1381,2.1475,2.1149,2.1395,2.1462,2.1149,2.1408,2.1703,0.0,2.2546,2.288,2.2893,2.2893,2.2893,2.2893,2.3153,2.3278,2.3278,2.3278,2.3278,2.3278,2.3041,2.2893,2.2893,2.2893,2.2893,2.2893,2.2893,2.2893,2.288,2.288,2.2719,2.2405,2.2392,2.2231,2.201,2.1964,2.1823,2.1609,2.189,2.1603,2.1109,2.1109,2.1109,2.1109,2.1109,2.1109,2.1109,2.1109,2.1109,2.1109,2.1109,2.1109,2.1109,2.1109,2.1355,2.1569,2.1569,2.1796,2.201,2.201,2.1977,2.201,2.1977,2.201,2.1964,2.1964,2.1964,2.1964,2.1964,2.1964,2.175,2.1189,2.1109,2.1109,2.1109,2.1109,2.1229,2.1542,2.1582,2.1703,2.1984,2.201,2.2111,2.2392,2.2405,2.2539,2.2867,2.2867,2.288,2.288,2.288,2.2893,2.2893,2.2893,2.3033,1.6925,0.0,1.9092,1.9773,2.0241,2.0601,2.0895,2.1042,2.1109,2.1109,2.1109,2.1109,2.1109,2.1109,2.1176,2.1408,2.1515,2.1622,2.1683,2.1777,2.177,2.1475,2.1863,0.0,0.0,0.0,0.0,2.288,2.306,2.3166,2.3166,2.346,2.3621,2.3621,2.3621,2.3621,2.3621,2.3549,2.3496,2.3496,2.326,2.306,2.2893,2.2893,2.2893,2.2893,2.2893,2.284,2.2699,2.2498,2.2365,2.2258,2.2058,2.1924,2.189,2.1984,2.1857,2.167,2.1502,2.1269,2.1109,2.1109,2.1109,2.1109,2.1109,2.1109,2.1109,2.1109,2.1256,2.1435,2.1435,2.1649,2.1877,2.1877,2.2058,2.2271,2.2271,2.2432,2.2546,2.2311,2.2271,2.2218,2.2017,2.1991,2.1991,2.1991,2.1991,2.1943,2.171,2.1697,2.1697,2.1697,2.1697,2.1737,2.1863,2.2017,2.2164,2.2271,2.2458,2.2639,2.2746,2.2712,2.2786,2.2893,2.306,2.3073,2.2893,2.3308,2.3402,2.318,2.3367,2.3621,1.77,1.8723,1.9786,2.0267,2.0615,2.0882,2.1069,2.1109,2.1109,2.1109,2.1029,2.0989,2.1096,2.1029,2.1056,2.1381,2.1596,2.177,2.185,2.2004,2.2031,2.177,2.2124,2.2352,0.0,0.0,0.0,2.288,2.3153,2.3292,2.3292,2.3714,2.3928,2.3928,2.3928,2.3928,2.3928,2.3857,2.3803,2.3803,2.3474,2.322,2.3033,2.3033,2.3033,2.3033,2.3033,2.3033,2.3006,2.2699,2.2579,2.2565,2.2412,2.2231,2.2151,2.2291,2.2198,2.1997,2.181,2.1609,2.1403,2.1296,2.1269,2.1256,2.1149,2.1109,2.1136,2.1243,2.1435,2.1609,2.1716,2.1924,2.2138,2.2138,2.2365,2.2579,2.2579,2.276,2.284,2.2619,2.2579,2.2512,2.2372,2.2331,2.2331,2.2331,2.2331,2.2251,2.205,2.1991,2.1991,2.1991,2.1991,2.2031,2.2124,2.2311,2.2458,2.2565,2.2786,2.2893,2.2893,2.3,2.3033,2.3033,2.3327,2.338,2.3228,2.3616,2.371,2.3487,2.3688,2.3928,1.8783,1.957,2.029,2.0628,2.0909,2.1109,2.1109,2.1096,2.1082,2.1082,2.0855,2.0735,2.1015,0.0,2.0775,2.1082,2.1617,2.1943,2.1703,2.2124,2.2365,0.0,0.0,0.0,0.0,0.0,0.0,2.2947,0.0,2.3319,2.3332,2.3915,2.4222,2.4222,2.4222,2.4222,2.4222,2.3991,2.3843,2.383,2.3514,2.3319,2.3292,2.3305,2.3305,2.3292,2.3292,2.3292,2.3265,2.3027,2.2893,2.2893,2.2893,2.2719,2.2472,2.2786,2.2546,2.2064,2.2064,2.205,2.197,2.1703,2.1609,2.1555,2.1243,2.1149,2.1189,2.1529,2.1609,2.1676,2.197,2.2218,2.2445,2.2445,2.2659,2.2893,2.2893,2.2893,2.2893,2.2893,2.2893,2.2893,2.2893,2.2893,2.2907,2.292,2.292,2.2719,2.2131,2.2064,2.2064,2.2064,2.2064,2.2138,2.2385,2.2445,2.2565,2.2907,2.292,2.292,2.2947,2.3193,2.3319,2.3319,2.3647,2.3817,2.3803,2.383,2.3843,2.383,2.3843,2.3968,1.9412,2.0054,2.0628,2.0922,2.1056,2.1109,2.1109,2.0949,2.0788,2.0788,2.0548,2.0344,2.041,0.0,0.0,2.1395,2.1783,0.0,2.2792,2.2972,0.0,2.2993,0.0,2.334,2.3078,2.3367,0.0,0.0,2.3607,2.3754,2.3968,2.4292,2.4492,2.4492,2.4492,2.4492,2.4492,2.4412,2.4302,2.4088,2.4022,2.3754,2.3305,2.3554,2.3541,2.3292,2.3292,2.3292,2.3265,2.3027,2.2893,2.2893,2.2893,2.2853,2.2786,2.2867,2.28,2.2679,2.2679,2.2385,2.1977,2.193,2.1903,2.189,2.179,2.1649,2.1529,2.1823,2.1903,2.197,2.2231,2.2525,2.2786,2.2786,2.284,2.2893,2.2893,2.2893,2.2893,2.2893,2.2893,2.2893,2.2893,2.2893,2.2974,2.318,2.3207,2.3073,2.2719,2.2679,2.2679,2.2679,2.2679,2.2706,2.2773,2.2786,2.2886,2.3193,2.3207,2.3313,2.3562,2.3656,2.3661,2.3661,2.3941,2.3981,2.3803,2.4209,2.4302,2.4102,2.4315,2.4412,2.0054,2.0521,2.0909,2.1069,2.1109,2.1082,2.0949,2.0695,2.0441,2.0321,1.996,0.0,1.9826,2.0094,0.0,0.0,0.0,0.0,2.2812,2.3118,2.3345,0.0,2.3781,0.0,2.3554,2.3781,2.3968,0.0,2.3968,2.4035,2.4195,2.4439,2.4599,2.4599,2.4599,2.4599,2.4599,2.4599,2.4519,2.4359,2.4262,2.4035,2.3714,2.3754,2.3754,2.3701,0.0,2.3372,2.3487,2.3081,2.2893,2.2893,2.2893,2.2893,2.2893,2.2893,2.2893,2.2893,2.2893,2.2679,2.2385,2.2218,2.2178,2.2151,2.2031,2.1903,2.1836,2.2098,2.2178,2.2245,2.2539,2.2773,2.2893,2.2893,2.2893,2.2893,2.2893,2.2893,2.2893,2.2893,2.2893,2.2934,2.3081,2.3073,2.3166,2.3474,2.3527,2.3407,2.31,2.3073,2.3073,2.3073,2.3073,2.3148,2.3281,2.3295,2.3375,2.3514,2.3527,2.3594,2.3803,2.3888,2.3968,2.3968,2.4249,2.4315,2.4155,2.4439,2.4519,2.4396,2.4519,2.4599,2.0655,2.0922,2.1109,2.1109,2.1082,2.0975,2.0712,2.0361,2.004,1.9746,0.0,1.8945,1.9227,1.9548,1.9853,2.0144,0.0,2.2004,2.2418,2.2932,2.3447,2.383,2.4088,2.4168,2.395,2.4115,2.4262,2.4262,2.4262,2.4262,2.4262,2.4466,2.4599,2.4599,2.4599,2.4599,2.4599,2.4599,2.4599,2.4599,2.4346,2.4235,2.4195,2.3941,2.3968,2.4168,0.0,0.0,2.3763,2.3148,2.2893,2.2893,2.2893,2.2893,2.2893,2.2893,2.2893,2.2893,2.2893,2.2893,2.2853,2.2565,2.2472,2.2432,2.2178,2.2104,2.2111,2.2392,2.2411,2.2485,2.2813,2.2893,2.2893,2.2893,2.2893,2.2907,2.2947,2.296,2.2947,2.2907,2.2893,2.3,2.3238,2.3292,2.3447,2.3817,2.387,2.3741,2.3474,2.3372,2.3332,2.3292,2.3332,2.3487,2.379,2.3803,2.383,2.3857,2.387,2.3884,2.3888,2.4128,2.4262,2.4262,2.4466,2.4599,2.4599,2.4599,2.4599,2.4599,2.4599,2.4599,2.0949,2.1069,2.1109,2.1109,2.0922,2.0668,2.0344,1.9893,0.0,0.0,1.8811,1.8584,1.8665,1.9107,1.9613,2.0117,0.0,0.0,0.0,0.0,2.3492,0.0,0.0,0.0,0.0,0.0,0.0,0.0,0.0,2.4519,2.4519,2.4572,2.4599,2.4599,2.4599,2.4599,2.4599,2.4599,2.4599,2.4599,2.4546,2.4399,2.4209,2.4155,2.4155,2.4168,2.3545,0.0,2.3763,2.3148,2.2893,2.2893,2.2893,2.2893,2.2893,2.2893,2.2893,2.2893,2.2893,2.2893,2.2893,2.284,2.2813,2.2813,2.276,2.2539,2.2405,2.2699,2.2605,2.2485,2.2813,2.2893,2.2893,2.2893,2.2893,2.2974,2.3193,2.3247,2.3166,2.2947,2.2893,2.3,2.3238,2.3292,2.3479,2.4048,2.4128,2.4115,2.4062,2.3848,2.3607,2.3319,2.3554,2.375,2.3803,2.3803,2.391,2.4115,2.4128,2.4235,2.4439,2.4492,2.4519,2.4519,2.4572,2.4599,2.4599,2.4599,2.4599,2.4599,2.4599,2.4599,2.1029,2.1109,2.1109,2.1109,2.0895,2.0592,2.0107,0.0,0.0,0.0,1.8223,1.8023,1.8023,1.8624,0.0,0.0,0.0,0.0,0.0,0.0,0.0,0.0,0.0,0.0,0.0,0.0,0.0,0.0,0.0,2.4599,2.4599,2.4599,2.4599,2.4599,2.4599,2.4599,2.4599,2.4599,2.4599,2.4599,2.4599,2.4532,2.4386,2.4115,2.4062,2.4168,2.3407,0.0,2.35,2.3081,2.2893,2.2893,2.2893,2.2893,2.2893,2.2893,2.2893,2.2893,2.2893,2.2893,2.2893,2.2893,2.2893,2.2893,2.2893,2.28,2.2672,2.2853,2.2786,2.2719,2.2853,2.2893,2.2893,2.2893,2.2893,2.2934,2.3046,2.3207,2.3252,2.314,2.3268,2.3469,2.3728,2.3781,2.3892,2.4332,2.4422,2.4369,2.4222,2.4209,2.4102,2.3808,2.3915,2.4062,2.4209,2.4222,2.4275,2.4386,2.4422,2.4452,2.4586,2.4599,2.4599,2.4599,2.4599,2.4599,2.4599,2.4599,2.4599,2.4599,2.4599,2.4679,2.1029,2.1109,2.1109,2.1109,2.0802,2.0378,1.9826,1.9199,0.0,0.0,1.7756,1.7608,1.7608,0.0,1.8743,0.0,2.0,0.0,0.0,0.0,0.0,0.0,0.0,0.0,0.0,0.0,0.0,0.0,0.0,0.0,2.4599,2.4599,2.4599,2.4599,2.4599,2.4599,2.4599,2.4599,2.4599,2.4599,2.4599,2.4599,2.4586,2.4102,2.3981,2.4155,2.3362,0.0,0.0,2.3027,2.2893,2.2893,2.2893,2.2893,2.2893,2.2893,2.2893,2.2893,2.2893,2.2893,2.2893,2.2893,2.2893,2.2893,2.2893,2.2893,2.2893,2.2893,2.2893,2.2893,2.2893,2.2893,2.2893,2.2893,2.3,2.3054,2.292,2.3207,2.3439,2.3319,2.3567,2.3897,2.4155,2.4209,2.4302,2.4559,2.4599,2.4519,2.4329,2.4452,2.4519,2.4315,2.4302,2.4382,2.4586,2.4599,2.4599,2.4599,2.4599,2.4599,2.4599,2.4599,2.4599,2.4599,2.4599,2.4599,2.4599,2.4599,2.4639,2.4693,2.4693,2.489,2.1029,2.1109,2.1109,2.1109,2.0494,1.98,1.9508,0.0,0.0,1.7689,1.7635,1.7608,1.7608,1.7849,1.8249,0.0,0.0,2.0307,0.0,0.0,0.0,0.0,0.0,0.0,0.0,0.0,0.0,0.0,0.0,0.0,2.4599,2.4599,2.4599,2.4599,2.4599,2.4599,2.4599,2.4599,2.4599,2.4599,2.4599,2.4599,2.4586,2.4302,2.4182,2.4168,2.3554,0.0,0.0,2.3027,2.2893,2.2893,2.2893,2.2893,2.2893,2.2893,2.2893,2.2893,2.2893,2.2893,2.2893,2.2893,2.2893,2.2893,2.2893,2.2893,2.2893,2.2893,2.2893,2.2893,2.2893,2.2893,2.2893,2.2893,2.3322,2.3576,2.3014,2.3527,2.3968,2.3399,2.3567,2.3897,2.4155,2.4209,2.4302,2.4559,2.4599,2.4586,2.4559,2.4586,2.4586,2.4559,2.4559,2.4572,2.4599,2.4599,2.4599,2.4599,2.4599,2.4599,2.4599,2.4599,2.4599,2.4599,2.4599,2.4599,2.4599,2.4599,2.4783,2.5037,2.5037,2.5197,2.0722,2.0975,2.1069,2.0895,2.0321,1.9679,1.9212,0.0,1.7929,1.7649,1.7608,1.7608,1.7608,1.7809,1.8129,0.0,1.9305,2.0094,2.094,0.0,0.0,0.0,0.0,0.0,0.0,0.0,0.0,0.0,0.0,0.0,2.4599,2.4599,2.4599,2.4599,2.4599,2.4599,2.4599,2.4599,2.4599,2.4599,2.4599,2.4599,2.4586,2.4342,2.4115,2.3915,2.35,0.0,0.0,2.2947,2.2893,2.2893,2.2893,2.2893,2.2893,2.2893,2.2893,2.2893,2.2893,2.2893,2.2893,2.2893,2.2893,2.2893,2.2893,2.2893,2.2893,2.2893,2.2893,2.2893,2.2893,2.2893,2.2893,2.2893,2.3228,2.3434,2.3193,2.3701,2.4128,2.3901,2.4088,2.4329,2.4412,2.4426,2.4466,2.4586,2.4599,2.4599,2.4599,2.4599,2.4599,2.4599,2.4599,2.4599,2.4599,2.4599,2.4599,2.4599,2.4599,2.4599,2.4599,2.4599,2.4599,2.4599,2.4599,2.4693,2.4903,2.4903,2.505,2.5344,2.5344,2.5491,2.0254,2.0628,2.0802,2.0601,2.004,1.9426,0.0,1.8369,1.7822,1.7622,1.7608,1.7608,1.7608,1.7809,1.8116,0.0,1.9225,2.0,2.0619,2.151,0.0,0.0,0.0,0.0,0.0,0.0,0.0,0.0,0.0,0.0,0.0,2.4599,2.4599,2.4599,2.4599,2.4599,2.4599,2.4599,2.4599,2.4599,2.4599,2.4599,2.4586,2.4342,2.4048,2.379,0.0,0.0,0.0,2.2893,2.2893,2.2893,2.2893,2.2893,2.2893,2.2893,2.2893,2.2893,2.2893,2.2893,2.2893,2.2893,2.2893,2.2893,2.2893,2.2893,2.2893,2.2893,2.2893,2.2893,2.2893,2.2893,2.2893,2.2893,2.31,2.3292,2.3292,2.3781,2.4209,2.4209,2.4436,2.4599,2.4599,2.4599,2.4599,2.4599,2.4599,2.4599,2.4599,2.4599,2.4599,2.4599,2.4599,2.4599,2.4599,2.4599,2.4599,2.4599,2.4599,2.4599,2.4599,2.4599,2.4639,2.477,2.477,2.4917,2.5211,2.5211,2.5358,2.5638,2.5638,2.5798,1.9653,2.0027,2.021,2.021,1.9543,1.8903,1.889,1.8237,1.7608,1.7608,1.7608,1.7608,1.7608,1.7809,1.8116,1.8437,1.9225,2.0,2.0619,2.1683,0.0,0.0,0.0,0.0,0.0,0.0,0.0,0.0,0.0,0.0,0.0,2.4599,2.4599,2.4599,2.4599,2.4599,2.4599,2.4599,2.4599,2.4599,2.4599,2.4599,2.4586,2.4342,2.4048,0.0,0.0,0.0,0.0,2.2893,2.2893,2.2893,2.2893,2.2893,2.2893,2.2893,2.2893,2.2893,2.2893,2.2893,2.2893,2.2893,2.2893,2.2893,2.2893,2.2893,2.2893,2.2893,2.2893,2.2893,2.2893,2.2893,2.2893,2.2893,2.31,2.3292,2.3292,2.3781,2.4209,2.4209,2.4436,2.4599,2.4599,2.4599,2.4599,2.4599,2.4599,2.4599,2.4599,2.4599,2.4599,2.4599,2.4599,2.4599,2.4599,2.4599,2.4599,2.4599,2.4599,2.4599,2.4599,2.4599,2.477,2.5101,2.5077,2.5224,2.5504,2.5504,2.5665,2.5998,2.5998,2.6145,1.8798,1.9265,1.9599,1.9356,1.8985,1.8571,1.8343,1.7943,1.7608,1.7608,1.7608,1.7608,1.7608,1.7822,1.8103,1.8437,1.9225,0.0,0.0,0.0,0.0,0.0,0.0,0.0,0.0,0.0,0.0,0.0,0.0,0.0,0.0,2.4599,2.4599,2.4599,2.4599,2.4599,2.4599,2.4599,2.4599,2.4599,2.4599,2.4492,2.4342,2.4249,0.0,0.0,0.0,0.0,0.0,2.2893,2.2893,2.2893,2.2893,2.2893,2.2893,2.2893,2.2893,2.2893,2.2893,2.2893,2.2893,2.2893,2.2893,2.2893,2.2893,2.2893,2.2893,2.2893,2.2893,2.2893,2.2893,2.2893,2.2893,2.2893,2.3295,2.3634,2.3634,2.4088,2.4466,2.4466,2.4532,2.4599,2.4599,2.4599,2.4599,2.4599,2.4599,2.4599,2.4599,2.4599,2.4599,2.4599,2.4599,2.4599,2.4599,2.4599,2.4599,2.4599,2.4599,2.4599,2.4599,2.4599,2.4639,2.477,2.4783,2.4986,2.5518,2.5518,2.5772,2.6253,2.6253,2.6306,1.7903,1.8358,1.8679,1.8464,1.8277,1.8103,1.7916,1.7716,1.7608,1.7608,1.7608,1.7622,1.7729,1.7996,1.829,1.8611,1.9386,0.0,0.0,0.0,0.0,0.0,0.0,0.0,0.0,0.0,0.0,0.0,0.0,0.0,0.0,2.4599,2.4599,2.4599,2.4599,2.4599,2.4599,2.4599,2.4599,2.4599,2.4492,2.4382,2.4195,2.3968,0.0,0.0,0.0,0.0,0.0,2.2893,2.2893,2.2893,2.2893,2.2893,2.2893,2.2893,2.2893,2.2893,2.2893,2.2893,2.2893,2.2893,2.2893,2.2893,2.2893,2.2893,2.2893,2.2893,2.2893,2.2893,2.2893,2.2893,2.2893,2.2893,2.3281,2.3634,2.3777,2.4142,2.4466,2.4572,2.4599,2.4599,2.4599,2.4599,2.4599,2.4599,2.4599,2.4599,2.4599,2.4599,2.4599,2.4599,2.4599,2.4599,2.4599,2.4599,2.4599,2.4599,2.4599,2.4599,2.4599,2.4599,2.4706,2.4919,2.4933,2.5251,2.5838,2.5838,2.6026,2.6386,2.6386,2.6386,0.0,1.7314,1.7555,1.7568,1.7582,1.7582,1.7608,1.7608,0.0,1.7608,1.7608,1.7675,1.7969,1.8263,1.8597,1.8876,0.0,0.0,0.0,0.0,0.0,0.0,0.0,0.0,0.0,0.0,0.0,0.0,0.0,0.0,2.4599,2.4599,2.4599,2.4599,2.4599,2.4599,2.4599,2.4599,2.4599,2.4599,2.4342,2.4195,2.4155,2.3581,0.0,0.0,0.0,0.0,0.0,2.2893,2.2893,2.2893,2.2893,2.2893,2.2893,2.2893,2.2893,2.2893,2.2893,2.2893,2.2893,2.2893,2.2893,2.2893,2.2893,2.2893,2.2893,2.2893,2.2893,2.2893,2.2893,2.2893,2.2893,2.2893,2.3113,2.3434,2.375,2.4022,2.4315,2.4546,2.4599,2.4599,2.4599,2.4599,2.4599,2.4599,2.4599,2.4599,2.4599,2.4599,2.4599,2.4599,2.4599,2.4599,2.4599,2.4599,2.4599,2.4599,2.4599,2.4599,2.4599,2.4599,2.4853,2.5438,2.5491,2.5785,2.636,2.6373,2.6386,2.6386,2.6386,2.6386,1.6099,0.0,1.6967,1.722,1.73,1.7367,0.0,1.7608,1.7608,1.7608,0.0,1.7675,1.7969,1.8263,1.8664,0.0,0.0,0.0,0.0,0.0,0.0,0.0,0.0,0.0,0.0,0.0,0.0,0.0,0.0,2.4599,2.4599,2.4599,2.4599,2.4599,2.4599,2.4599,2.4599,2.4599,2.4599,2.4599,2.4342,2.4088,2.3897,2.3487,0.0,0.0,0.0,0.0,2.2893,2.2893,2.2893,2.2893,2.2893,2.2893,2.2893,2.2893,2.2893,2.2893,2.2893,2.2893,2.2893,2.2893,2.2893,2.2893,2.2893,2.2893,2.2893,2.2893,2.2893,2.2893,2.2893,2.2893,2.2893,2.2893,2.3308,2.3688,2.379,2.4168,2.4519,2.4586,2.4599,2.4599,2.4599,2.4599,2.4599,2.4599,2.4599,2.4599,2.4599,2.4599,2.4599,2.4599,2.4599,2.4599,2.4599,2.4599,2.4599,2.4599,2.4599,2.4599,2.4599,2.4599,2.4666,2.4799,2.5239,2.5692,2.6091,2.6279,2.6386,2.6386,2.6386,2.6386,1.5992,1.6273,1.6565,1.6739,1.6872,1.7006,1.7141,1.7314,0.0,0.0,0.0,1.7716,1.8143,1.8339,0.0,0.0,0.0,0.0,0.0,0.0,0.0,0.0,0.0,0.0,0.0,0.0,0.0,0.0,0.0,2.4436,2.4436,2.4532,2.4599,2.4599,2.4599,2.4599,2.4599,2.4599,2.4599,2.4599,2.4209,2.3928,2.379,2.3313,2.302,0.0,0.0,0.0,2.2893,2.2893,2.2893,2.2893,2.2893,2.2893,2.2893,2.2893,2.2893,2.2893,2.2893,2.2893,2.2893,2.2893,2.2893,2.2893,2.2893,2.2893,2.2893,2.2893,2.2893,2.2893,2.2893,2.2893,2.2934,2.3046,2.3469,2.3843,2.3977,2.4315,2.4599,2.4599,2.4599,2.4599,2.4599,2.4599,2.4599,2.4599,2.4599,2.4599,2.4599,2.4599,2.4599,2.4599,2.4599,2.4599,2.4599,2.4599,2.4599,2.4599,2.4599,2.4599,2.4599,2.4599,2.4666,2.4836,2.5411,2.5837,2.5998,2.6292,2.6386,2.6386,2.6386,2.6386,1.6217,1.6324,1.6377,1.6417,1.6618,1.678,1.6783,0.0,0.0,0.0,0.0,0.0,0.0,1.8294,0.0,0.0,0.0,0.0,0.0,0.0,0.0,0.0,0.0,0.0,0.0,0.0,0.0,0.0,0.0,2.4142,2.4142,2.4332,2.4466,2.4466,2.4466,2.4466,2.4466,2.4559,2.4572,2.4532,2.4022,2.379,2.3688,2.3148,2.2893,2.2893,0.0,0.0,2.2893,2.2893,2.2893,2.2893,2.2893,2.2893,2.2893,2.2893,2.2893,2.2893,2.2893,2.2893,2.2893,2.2893,2.2893,2.2893,2.2893,2.2893,2.2893,2.2893,2.2893,2.2893,2.2893,2.2893,2.296,2.3193,2.3487,2.3781,2.4075,2.4369,2.4546,2.4586,2.4599,2.4599,2.4599,2.4599,2.4599,2.4599,2.4599,2.4599,2.4599,2.4599,2.4599,2.4599,2.4599,2.4599,2.4599,2.4599,2.4599,2.4599,2.4599,2.4599,2.4599,2.4599,2.4783,2.5077,2.565,2.5957,2.5998,2.6292,2.6386,2.6386,2.6386,2.6386,1.6217,1.6484,1.67,1.7005,1.7099,1.7115,1.7121,0.0,0.0,0.0,0.0,0.0,0.0,0.0,0.0,0.0,0.0,0.0,0.0,0.0,0.0,0.0,0.0,0.0,0.0,0.0,0.0,0.0,0.0,0.0,2.387,2.391,2.3901,2.3901,2.3901,2.3901,2.3901,2.4359,2.4479,2.4262,2.3964,2.3634,2.338,2.3054,2.2893,2.2893,0.0,2.2893,2.2893,2.2893,2.2893,2.2893,2.2893,2.2893,2.2893,2.2893,2.2893,2.2893,2.2893,2.2893,2.2893,2.2893,2.2893,2.2893,2.2893,2.2893,2.2893,2.2893,2.2893,2.2893,2.2893,2.2893,2.2907,2.296,2.3166,2.3474,2.3768,2.4062,2.4342,2.4559,2.4599,2.4599,2.4599,2.4599,2.4599,2.4599,2.4599,2.4599,2.4599,2.4599,2.4599,2.4599,2.4599,2.4599,2.4599,2.4599,2.4599,2.4599,2.4599,2.4599,2.4599,2.4599,2.4783,2.5077,2.5411,2.5705,2.5998,2.6292,2.6386,2.6386,2.6386,2.6386,1.5945,1.6165,1.6416,1.7041,1.7067,1.6898,1.6712,0.0,0.0,0.0,0.0,0.0,0.0,0.0,0.0,0.0,0.0,0.0,0.0,0.0,0.0,0.0,0.0,0.0,0.0,0.0,0.0,0.0,0.0,0.0,2.3527,2.3688,2.3803,2.3803,2.3803,2.3803,2.3803,2.4035,2.4102,2.3968,2.3674,2.346,2.3278,2.3006,2.2893,2.2893,0.0,2.2893,2.2893,2.2893,2.2893,2.2893,2.2893,2.2893,2.2893,2.2893,2.2893,2.2893,2.2893,2.2893,2.2893,2.2893,2.2893,2.2893,2.2893,2.2893,2.2893,2.2893,2.2893,2.2893,2.2893,2.2893,2.2934,2.3073,2.334,2.3647,2.3941,2.4235,2.4439,2.4572,2.4599,2.4599,2.4599,2.4599,2.4599,2.4599,2.4599,2.4599,2.4599,2.4599,2.4599,2.4599,2.4599,2.4599,2.4599,2.4599,2.4599,2.4599,2.4599,2.4599,2.4599,2.4599,2.4783,2.5077,2.5371,2.5665,2.5998,2.6292,2.6386,2.6386,2.6386,2.6386,1.5567,1.5718,1.5872,1.6546,0.0,1.6339,1.6659,0.0,0.0,0.0,0.0,0.0,0.0,0.0,0.0,0.0,0.0,0.0,0.0,0.0,0.0,0.0,0.0,0.0,0.0,0.0,0.0,0.0,0.0,0.0,2.322,2.3434,2.3589,2.3589,2.3589,2.3589,2.3589,2.3589,2.3629,2.3661,2.3434,2.3252,2.3207,2.3,2.2893,2.2893,2.2893,2.2893,2.2893,2.2893,2.2893,2.2893,2.2893,2.2893,2.2893,2.2893,2.2893,2.2893,2.2893,2.2893,2.2893,2.2893,2.2893,2.2893,2.2893,2.2893,2.2893,2.2893,2.2893,2.2893,2.2893,2.2893,2.296,2.3166,2.3394,2.3669,2.3928,2.4222,2.4412,2.4479,2.4559,2.4599,2.4599,2.4599,2.4599,2.4599,2.4599,2.4599,2.4599,2.4599,2.4599,2.4599,2.4599,2.4599,2.4599,2.4599,2.4599,2.4599,2.4599,2.4599,2.4599,2.4599,2.4706,2.497,2.5331,2.5625,2.5891,2.6213,2.6386,2.6386,2.6386,2.6386,1.5057,1.517,1.5173,1.5243,1.5097,0.0,1.7832,1.5737,0.0,1.5197,0.0,0.0,0.0,0.0,0.0,0.0,0.0,0.0,0.0,0.0,0.0,0.0,0.0,0.0,0.0,0.0,0.0,0.0,0.0,0.0,2.2934,2.2947,2.296,2.296,2.296,2.296,2.296,2.296,2.3073,2.3332,2.3305,2.318,2.2934,2.2907,2.2893,2.2893,2.2893,2.2893,2.2893,2.2893,2.2893,2.2893,2.2893,2.2893,2.2893,2.2893,2.2893,2.2893,2.2893,2.2893,2.2893,2.2893,2.2893,2.2893,2.2893,2.2893,2.2893,2.2893,2.2893,2.2893,2.2893,2.2893,2.2907,2.292,2.2947,2.3054,2.3327,2.3621,2.395,2.4182,2.4412,2.4599,2.4599,2.4599,2.4599,2.4599,2.4599,2.4599,2.4599,2.4599,2.4599,2.4599,2.4599,2.4599,2.4599,2.4599,2.4599,2.4599,2.4599,2.4599,2.4599,2.4599,2.4613,2.4639,2.5186,2.5518,2.5545,2.6106,2.6386,2.6386,2.6386,2.6386,1.4099,1.4224,1.4307,1.4078,1.3556,0.0,0.0,1.4988,1.4186,1.3829,0.0,0.0,0.0,0.0,0.0,0.0,0.0,0.0,0.0,0.0,0.0,0.0,0.0,0.0,0.0,0.0,0.0,0.0,0.0,0.0,0.0,2.2893,2.2893,2.2893,2.2893,2.2893,2.2893,2.2893,2.296,2.3033,2.3033,2.3014,2.2893,2.2893,2.2893,2.2893,2.2893,2.2893,2.2893,2.2893,2.2893,2.2893,2.2893,2.2893,2.2893,2.2893,2.2893,2.2893,2.2893,2.2893,2.2893,2.2893,2.2893,2.2893,2.2893,2.2893,2.2893,2.2893,2.2893,2.2893,2.2893,2.2893,2.2893,2.2893,2.3041,2.318,2.3265,2.3554,2.3897,2.4142,2.4289,2.4386,2.4572,2.4599,2.4599,2.4599,2.4599,2.4599,2.4599,2.4599,2.4599,2.4599,2.4599,2.4599,2.4599,2.4599,2.4599,2.4599,2.4599,2.4599,2.4599,2.4599,2.4693,2.4917,2.5304,2.5598,2.5824,2.6199,2.6386,2.6386,2.6386,2.6386,1.3438,1.3442,1.3414,1.3106,0.0,0.0,1.3169,1.3418,1.3409,1.3063,0.0,0.0,0.0,0.0,0.0,0.0,0.0,0.0,0.0,0.0,0.0,0.0,0.0,0.0,0.0,0.0,0.0,0.0,0.0,0.0,0.0,2.2893,2.2893,2.2893,2.2893,2.2893,2.2893,2.2893,2.2893,2.2893,2.2893,2.2893,2.2893,2.2893,2.2893,2.2893,2.2893,2.2893,2.2893,2.2893,2.2893,2.2893,2.2893,2.2893,2.2893,2.2893,2.2893,2.2893,2.2893,2.2893,2.2893,2.2893,2.2893,2.2893,2.2893,2.2893,2.2893,2.2893,2.2893,2.2893,2.2893,2.2893,2.2893,2.2893,2.3033,2.318,2.318,2.342,2.3688,2.3888,2.4008,2.4128,2.4329,2.4369,2.4369,2.4369,2.4399,2.4466,2.4466,2.4546,2.4599,2.4599,2.4599,2.4599,2.4599,2.4599,2.4599,2.4599,2.4599,2.4599,2.4599,2.4599,2.4693,2.493,2.5317,2.5611,2.585,2.6199,2.6386,2.6386,2.6386,2.6386,1.3157,1.2854,1.2535,0.0,0.0,0.0,1.1831,1.0936,1.0927,0.0,0.0,0.0,0.0,0.0,0.0,0.0,0.0,0.0,0.0,0.0,0.0,0.0,0.0,0.0,0.0,0.0,0.0,0.0,0.0,0.0,0.0,2.2893,2.2893,2.2893,2.2893,2.2893,2.2893,2.2893,2.2893,2.2893,2.2893,2.2893,2.2893,2.2893,2.2893,2.2893,2.2893,2.2893,2.2893,2.2893,2.2893,2.2893,2.2893,2.2893,2.2893,2.2893,2.2893,2.2893,2.2893,2.2893,2.2893,2.2893,2.2893,2.2893,2.2893,2.2893,2.2893,2.2893,2.2893,2.2893,2.2893,2.2893,2.2893,2.2893,2.2893,2.2893,2.2893,2.31,2.3292,2.3292,2.3567,2.3803,2.3803,2.3803,2.3803,2.3803,2.4022,2.4195,2.4195,2.4412,2.4599,2.4599,2.4599,2.4599,2.4599,2.4599,2.4599,2.4599,2.4599,2.4599,2.4599,2.4599,2.4599,2.4599,2.5173,2.5504,2.5518,2.6106,2.6386,2.6386,2.6386,2.6386,1.2803,1.2366,0.0,0.0,0.0,0.0,0.0,1.1172,0.0,0.0,0.0,0.0,0.0,0.0,0.0,0.0,0.0,0.0,0.0,0.0,0.0,0.0,0.0,0.0,0.0,0.0,0.0,0.0,0.0,0.0,0.0,2.2893,2.2893,2.2893,2.2893,2.2893,2.2893,2.2893,2.2893,2.2893,2.2893,2.2893,2.2893,2.2893,2.2893,2.2893,2.2893,2.2893,2.2893,2.2893,2.2893,2.2893,2.2893,2.2893,2.2893,2.2893,2.2893,2.2893,2.2893,2.2893,2.2893,2.2893,2.2893,2.2893,2.2893,2.2893,2.2893,2.2893,2.2893,2.2893,2.2893,2.2893,2.2893,2.2893,2.2893,2.2893,2.2893,2.2974,2.306,2.3252,2.3394,2.3527,2.3763,2.3803,2.3803,2.3803,2.3884,2.3937,2.3937,2.4155,2.4329,2.4329,2.4479,2.4599,2.4599,2.4599,2.4599,2.4599,2.4599,2.4599,2.4599,2.4599,2.4599,2.4599,2.501,2.5304,2.5518,2.5944,2.6225,2.6386,2.6386,2.6386,1.3338,1.2646,0.0,0.0,0.0,0.0,0.0,0.0,0.0,0.0,0.0,0.0,0.0,0.0,0.0,0.0,0.0,0.0,0.0,0.0,0.0,0.0,0.0,0.0,0.0,0.0,0.0,0.0,0.0,0.0,0.0,2.2653,2.2686,2.2686,2.284,2.2893,2.2893,2.2893,2.284,2.2686,2.2686,2.2666,2.2559,2.2786,2.2893,2.2893,2.2893,2.2893,2.2893,2.2893,2.2893,2.2893,2.2893,2.2893,2.288,2.276,2.28,2.288,2.276,2.28,2.2893,2.2893,2.2893,2.2893,2.2893,2.2893,2.2893,2.2893,2.2893,2.2893,2.2893,2.2893,2.2893,2.2893,2.2893,2.2893,2.2893,2.2893,2.296,2.31,2.314,2.3207,2.3415,2.3442,2.3442,2.3442,2.3514,2.3634,2.379,2.4022,2.4209,2.4209,2.4426,2.4599,2.4599,2.4599,2.4599,2.4599,2.4599,2.4599,2.4599,2.4599,2.4599,2.4599,2.493,2.517,2.5344,2.5797,2.6091,2.6265,2.6333,2.6386,1.4326,0.0,0.0,0.0,0.0,0.0,0.0,0.0,0.0,0.0,0.0,0.0,0.0,0.0,0.0,0.0,0.0,0.0,0.0,0.0,0.0,0.0,0.0,0.0,0.0,0.0,0.0,0.0,0.0,0.0,0.0,2.2231,2.2345,2.2345,2.2679,2.2813,2.2813,2.2813,2.2679,2.2345,2.2345,2.2245,2.2004,2.2572,2.2827,2.2853,2.2853,2.2867,2.2893,2.2893,2.2893,2.2893,2.2893,2.288,2.2827,2.2512,2.2592,2.2813,2.2512,2.2619,2.2893,2.2893,2.2893,2.2893,2.2893,2.2893,2.2893,2.2893,2.2893,2.2893,2.2893,2.2893,2.2893,2.2893,2.2893,2.2893,2.2893,2.2893,2.2893,2.2893,2.2893,2.2893,2.2893,2.2893,2.2893,2.2893,2.31,2.338,2.3696,2.3941,2.4128,2.4128,2.4372,2.4559,2.4559,2.4586,2.4599,2.4599,2.4599,2.4599,2.4599,2.4599,2.4599,2.4599,2.4903,2.505,2.5115,2.565,2.5944,2.5998,2.6238,2.6333,0.0,1.2801,0.0,0.0,0.0,0.0,0.0,0.0,0.0,0.0,0.0,0.0,0.0,0.0,0.0,0.0,0.0,0.0,0.0,0.0,0.0,0.0,0.0,0.0,0.0,0.0,0.0,0.0,0.0,0.0,2.1977,2.2044,2.2084,2.2084,2.2171,2.2178,2.2178,2.2178,2.2171,0.0,2.2084,2.2044,2.1991,2.2111,2.2298,2.2512,2.2512,2.2645,2.2893,2.2893,2.2893,2.2893,2.2893,2.2746,2.2512,2.2445,2.2458,2.2498,2.2445,2.2619,2.2893,2.2893,2.2893,2.2893,2.2893,2.2893,2.2893,2.2893,2.2893,2.2893,2.2893,2.2893,2.2893,2.2893,2.2893,2.2893,2.2893,2.2893,2.2893,2.2893,2.2893,2.2893,2.2893,2.2893,2.2893,2.2893,2.296,2.3014,2.3081,2.3327,2.3479,2.3479,2.3981,2.4302,2.4302,2.4466,2.4599,2.4599,2.4599,2.4599,2.4599,2.4599,2.4599,2.4599,2.4666,2.485,2.5115,2.5248,2.5543,2.5998,2.5785,2.5945,0.0,0.0,0.0,0.0,0.0,0.0,0.0,0.0,0.0,0.0,0.0,0.0,0.0,0.0,0.0,0.0,0.0,0.0,0.0,0.0,0.0,0.0,0.0,0.0,0.0,0.0,0.0,0.0,0.0,2.1403,2.1563,2.1729,2.181,2.181,2.1943,2.1991,2.1991,2.1991,2.1957,2.181,2.181,2.1729,2.1577,2.1857,2.2071,2.2218,2.2218,2.2298,2.2479,2.2479,2.2479,2.2479,2.2479,2.2352,2.2191,2.2058,2.2084,2.2191,2.2044,2.2224,2.2479,2.2479,2.2572,2.2645,2.2645,2.2786,2.2893,2.2893,2.2893,2.2893,2.2893,2.2893,2.2893,2.2893,2.2893,2.2893,2.2893,2.2893,2.2893,2.2893,2.2893,2.2893,2.2893,2.2893,2.2893,2.2893,2.2893,2.2893,2.2893,2.326,2.3487,2.3305,2.3848,2.4209,2.4209,2.4342,2.4452,2.4586,2.4599,2.4599,2.4599,2.4599,2.4599,2.4599,2.4599,2.4679,2.4863,2.501,2.5275,2.5569,2.5518,2.5678,0.0,0.0,0.0,0.0,0.0,0.0,0.0,0.0,0.0,0.0,0.0,0.0,0.0,0.0,0.0,0.0,0.0,0.0,0.0,0.0,0.0,0.0,0.0,0.0,0.0,0.0,0.0,0.0,0.0,2.1109,2.1109,2.1368,2.1502,2.1502,2.1743,2.183,2.183,2.183,2.1743,2.1502,2.1502,2.1381,2.1122,2.1617,2.189,2.1943,2.1943,2.197,2.1991,2.1991,2.1991,2.1991,2.2044,2.2004,2.1917,2.1729,2.1783,2.1917,2.1662,2.1783,2.1991,2.1991,2.2151,2.2338,2.2338,2.2552,2.2813,2.2813,2.2853,2.288,2.284,2.2813,2.2813,2.2813,2.2813,2.284,2.288,2.2893,2.2893,2.2893,2.2893,2.2893,2.2893,2.2893,2.2893,2.2893,2.2893,2.2893,2.2893,2.3335,2.3549,2.3273,2.3728,2.4075,2.4128,2.4168,2.4329,2.4586,2.4599,2.4599,2.4599,2.4599,2.4599,2.4599,2.4599,2.4599,2.4599,2.489,2.5024,2.5077,2.5277,2.5411,0.0,0.0,0.0,0.0,0.0,0.0,0.0,0.0,0.0,0.0,0.0,0.0,0.0,0.0,0.0,0.0,0.0,0.0,0.0,0.0,0.0,0.0,0.0,0.0,0.0,0.0,0.0,0.0,2.1109,2.1109,2.1109,2.1149,2.1162,2.1162,2.1203,2.1229,2.1229,2.1229,2.1203,2.1162,2.1162,2.1149,2.1109,2.1189,2.1363,2.1649,2.1649,2.1783,2.1991,2.1991,2.1991,2.2004,2.2258,2.2058,2.1662,2.1877,2.1823,2.1636,2.1596,2.1783,2.1991,2.1991,2.2004,2.2044,2.2044,2.2245,2.2472,2.2472,2.2659,2.284,2.2539,2.2472,2.2472,2.2472,2.2472,2.2552,2.284,2.2893,2.2893,2.2893,2.2893,2.2893,2.2893,2.2893,2.2893,2.2893,2.2893,2.2893,2.2893,2.2974,2.3,2.296,2.3233,2.3554,2.3843,2.4062,2.4329,2.4586,2.4599,2.4599,2.4599,2.4599,2.4599,2.4599,2.4599,2.4599,2.4599,2.4639,2.4823,2.5077,2.4863,2.4986,1.095,1.1227,0.0,0.0,0.0,0.0,0.0,0.0,0.0,0.0,0.0,0.0,0.0,0.0,0.0,0.0,0.0,0.0,0.0,0.0,0.0,0.0,0.0,0.0,0.0,0.0,0.0,0.0,2.1109,2.1109,2.1109,2.1109,2.1109,2.1109,2.1109,2.1109,2.1109,2.1109,2.1109,2.1109,2.1109,2.1109,2.1109,2.1109,2.1176,2.1309,2.1309,2.1376,2.1496,2.1496,2.1496,2.151,2.163,2.1523,2.1323,2.1443,2.1416,2.1309,2.1309,2.139,2.1496,2.1496,2.1603,2.1783,2.1783,2.1951,2.2178,2.2178,2.2271,2.2372,2.2205,2.2178,2.2178,2.2178,2.2298,2.2458,2.2579,2.2773,2.2893,2.2893,2.2893,2.2893,2.2893,2.2893,2.2893,2.2893,2.2893,2.2893,2.2893,2.302,2.306,2.292,2.314,2.3345,2.3514,2.3794,2.4088,2.4382,2.4396,2.4426,2.4586,2.4439,2.4439,2.4599,2.4599,2.4599,2.4599,2.4599,2.4666,2.4823,2.4653,2.4733,0.0,0.0,0.0,0.0,0.0,0.0,0.0,0.0,0.0,0.0,0.0,0.0,0.0,0.0,0.0,0.0,0.0,0.0,0.0,0.0,0.0,0.0,0.0,0.0,0.0,0.0,0.0,0.0,2.1109,2.1109,2.1109,2.1109,2.1109,2.1109,2.1109,2.1109,2.1109,2.1109,2.1109,2.1109,2.1109,2.1109,2.1109,2.1109,2.1109,2.1109,2.1109,2.1109,2.1109,2.1109,2.1109,2.1122,2.1189,2.1176,2.1122,2.1189,2.1176,2.1109,2.1109,2.1109,2.1109,2.1109,2.1256,2.1475,2.1475,2.1676,2.1917,2.1917,2.1957,2.1964,2.193,2.1917,2.1917,2.1917,2.2044,2.2258,2.2485,2.2712,2.2893,2.2893,2.2893,2.2893,2.2893,2.2893,2.2893,2.2893,2.2893,2.2893,2.2893,2.306,2.3113,2.292,2.3073,2.3247,2.3278,2.3527,2.3781,2.4075,2.4102,2.4195,2.4372,2.4275,2.4302,2.4479,2.4559,2.4599,2.4599,2.4599,2.4599,2.4599,2.4599,2.4599,0.0,0.0,0.0,0.0,0.0,0.0,0.0,0.0,0.0,0.0,0.0,0.0,0.0,0.0,0.0,0.0,0.0,0.0,0.0,0.0,0.0,0.0,0.0,0.0,0.0,0.0,0.0,0.0,2.1109,2.1109,2.1109,2.1109,2.1109,2.1109,2.1109,2.1109,2.1109,2.1109,2.1109,2.1109,2.1109,2.1109,2.1109,2.1109,2.1109,2.1109,2.1109,2.1109,2.1109,2.1109,2.1109,2.1136,2.1448,2.1395,2.1149,2.1462,2.1381,2.1109,2.1109,2.1109,2.1109,2.1109,2.1122,2.1136,2.1136,2.1368,2.1609,2.1609,2.181,2.1957,2.1676,2.1609,2.1609,2.1609,2.1622,2.1863,2.2693,2.288,2.2893,2.2893,2.2893,2.2893,2.2893,2.2893,2.2893,2.2893,2.2893,2.2893,2.2893,2.2907,2.292,2.2893,2.2907,2.3006,2.3265,2.3305,2.3474,2.3803,2.383,2.383,2.3843,2.4062,2.4209,2.4222,2.4452,2.4599,2.4599,2.4599,2.4599,2.4599,2.4599,2.4599,0.0,0.0,0.0,0.0,0.0,0.0,0.0,0.0,0.0,0.0,0.0,0.0,0.0,0.0,0.0,0.0,0.0,0.0,0.0,0.0,0.0,0.0,0.0,0.0,0.0,0.0,0.0,0.0,0.0,2.1109,2.1109,2.1109,2.1109,2.1109,2.1109,2.1109,2.1109,2.1109,2.1109,2.1109,2.1109,2.1109,2.1109,2.1109,2.1109,2.1109,2.1109,2.1109,2.1109,2.1109,2.1109,2.1122,2.1229,2.1203,2.1122,2.1229,2.1203,2.1109,2.1109,2.1109,2.1109,2.1109,2.1109,2.1109,2.1109,2.1189,2.1269,2.1269,2.1349,2.1403,2.1296,2.1269,2.1309,2.1542,2.1582,2.1729,2.2224,2.2626,2.2893,2.2893,2.2893,2.2893,2.2893,2.2893,2.2893,2.2893,2.2893,2.2893,2.2893,2.2893,2.2893,2.2893,2.2893,2.2947,2.3054,2.3207,2.3332,2.3474,2.3487,2.3567,2.3803,2.3688,2.3728,2.3928,2.4022,2.4262,2.4599,2.4599,2.4599,2.4599,2.4599,2.4599,1.1361,0.0,0.0,0.0,0.0,0.0,0.0,0.0,0.0,0.0,0.0,0.0,0.0,0.0,0.0,0.0,0.0,0.0,0.0,0.0,0.0,0.0,0.0,0.0,0.0,0.0,0.0,0.0,0.0,0.0,2.1109,2.1109,2.1109,2.1109,2.1109,2.1109,2.1109,2.1109,2.1109,2.1109,2.1109,2.1109,2.1109,2.1109,2.1109,2.1109,2.1109,2.1109,2.1109,2.1109,2.1109,2.1109,2.1109,2.1109,2.1109,2.1109,2.1109,2.1109,2.1109,2.1109,2.1109,2.1109,2.1109,2.1109,2.1109,2.1109,2.1109,2.1109,2.1109,2.1109,2.1109,2.1109,2.1162,2.1395,2.1515,2.1636,2.1836,2.2331,2.2712,2.2712,2.2827,2.2893,2.2893,2.2893,2.2893,2.2893,2.2893,2.2893,2.2893,2.2893,2.2893,2.2893,2.2893,2.2893,2.2893,2.3046,2.3166,2.3166,2.3166,2.326,2.3496,2.338,2.3385,2.3621,2.375,2.3968,2.4342,2.4412,2.4506,2.4599,2.4492,2.4452,0.0,0.0,0.0,0.0,0.0,0.0,0.0,0.0,0.0,0.0,0.0,0.0,0.0,0.0,0.0,0.0,0.0,0.0,0.0,0.0,0.0,0.0,0.0,0.0,0.0,0.0,0.0,0.0,2.1109,2.1109,2.1109,2.1109,2.1109,2.1109,2.1109,2.1109,2.1109,2.1109,2.1109,2.1109,2.1109,2.1109,2.1109,2.1109,2.1109,2.1109,2.1109,2.1109,2.1109,2.1109,2.1109,2.1109,2.1109,2.1109,2.1109,2.1109,2.1109,2.1109,2.1109,2.1109,2.1109,2.1109,2.1109,2.1109,2.1109,2.1109,2.1109,2.1109,2.1109,2.1109,2.1109,2.1109,2.1109,2.1109,2.1368,2.1601,2.1601,2.1991,2.2392,2.2405,2.2645,2.288,2.288,2.288,2.288,2.2893,2.2893,2.2893,2.2893,2.2893,2.2893,2.2893,2.2893,2.2893,2.2893,2.2893,2.2893,2.2893,2.2893,2.2893,2.2893,2.3153,2.3278,2.3278,2.3594,2.379,2.379,2.4048,2.4342,2.4572,2.4329,2.4195,1.2573,0.0,0.0,0.0,0.0,0.0,0.0,0.0,0.0,0.0,0.0,0.0,0.0,0.0,0.0,0.0,0.0,0.0,0.0,0.0,0.0,0.0,0.0,0.0,0.0,0.0,0.0,0.0,2.1109,2.1109,2.1109,2.1109,2.1109,2.1109,2.1109,2.1109,2.1109,2.1109,2.1109,2.1109,2.1109,2.1109,2.1109,2.1109,2.1109,2.1109,2.1109,2.1109,2.1109,2.1109,2.1109,2.1109,2.1109,2.1109,2.1109,2.1109,2.1109,2.1109,2.1109,2.1109,2.1109,2.1109,2.1109,2.1109,2.1109,2.1109,2.1109,2.1109,2.1109,2.1109,2.1109,2.1109,2.1109,2.1109,2.1176,2.1229,2.1229,2.1555,2.189,2.2071,2.2211,2.2298,2.2498,2.2539,2.2619,2.2867,2.2893,2.2893,2.2893,2.2893,2.2893,2.2893,2.2893,2.2893,2.2893,2.2893,2.2893,2.2893,2.2893,2.2893,2.2893,2.2974,2.3027,2.3027,2.3108,2.322,2.3447,2.3741,2.3928,2.4008,2.3964,2.3924,0.0,0.0,0.0,0.0,0.0,0.0,0.0,1.252,0.0,0.0,0.0,0.0,0.0,0.0,0.0,0.0,0.0,0.0,0.0,0.0,0.0,0.0,0.0,0.0,0.0,2.0828,2.0975,2.1096,2.1109,2.1109,2.1109,2.1109,2.1109,2.1109,2.1109,2.1109,2.1109,2.1109,2.1109,2.1109,2.1109,2.1109,2.1109,2.1109,2.1109,2.1109,2.1109,2.1109,2.1109,2.1109,2.1109,2.1109,2.1109,2.1109,2.1109,2.1109,2.1109,2.1109,2.1109,2.1109,2.1109,2.1109,2.1109,2.1109,2.1109,2.1109,2.1109,2.1109,2.1109,2.1109,2.1109,2.1109,2.1109,2.1109,2.1109,2.1109,2.1109,2.1243,2.1489,2.1783,2.193,2.2044,2.2205,2.2338,2.2472,2.2645,2.2813,2.2893,2.2893,2.2893,2.2893,2.2893,2.2893,2.2893,2.2893,2.2893,2.2893,2.2893,2.2893,2.2893,2.2893,2.2893,2.2893,2.2893,2.2893,2.2987,2.314,2.3434,2.3581,2.3581,2.3581,2.3581,0.0,0.0,0.0,0.0,0.0,0.0,1.3709,1.2762,0.0,0.0,0.0,0.0,0.0,0.0,0.0,0.0,0.0,0.0,0.0,0.0,0.0,0.0,0.0,0.0,2.0579,2.0632,2.0735,2.0989,2.1042,2.1069,2.1069,2.1096,2.1109,2.1109,2.1109,2.1109,2.1109,2.1109,2.1109,2.1109,2.1109,2.1109,2.1109,2.1109,2.1109,2.1109,2.1109,2.1109,2.1109,2.1109,2.1109,2.1109,2.1109,2.1109,2.1109,2.1109,2.1109,2.1109,2.1109,2.1109,2.1109,2.1109,2.1109,2.1109,2.1109,2.1109,2.1109,2.1109,2.1109,2.1109,2.1109,2.1109,2.1109,2.1109,2.1109,2.1109,2.1109,2.1109,2.1189,2.1489,2.1743,2.1897,2.197,2.2151,2.2338,2.2365,2.2619,2.2853,2.2853,2.288,2.2893,2.2893,2.2893,2.288,2.2853,2.288,2.288,2.2853,2.288,2.2893,2.2893,2.2893,2.2893,2.2893,2.2893,2.2893,2.2893,2.314,2.3273,2.3273,2.3273,2.3273,1.3601,1.4039,1.4528,0.0,0.0,0.0,0.0,1.3639,0.0,0.0,0.0,0.0,0.0,0.0,0.0,0.0,0.0,0.0,0.0,0.0,0.0,0.0,0.0,0.0,1.996,2.0187,2.0317,2.037,2.0628,2.0793,2.0793,2.0989,2.1109,2.1109,2.1109,2.1109,2.1109,2.1109,2.1109,2.1109,2.1109,2.1109,2.1109,2.1109,2.1109,2.1109,2.1109,2.1109,2.1109,2.1109,2.1109,2.1109,2.1109,2.1109,2.1109,2.1109,2.1109,2.1109,2.1109,2.1109,2.1109,2.1109,2.1109,2.1109,2.1109,2.1109,2.1109,2.1109,2.1109,2.1109,2.1109,2.1109,2.1109,2.1109,2.1109,2.1109,2.1109,2.1109,2.1122,2.1189,2.1243,2.1349,2.1622,2.1716,2.1836,2.2031,2.2325,2.2498,2.2498,2.2712,2.2893,2.2893,2.2893,2.28,2.2525,2.2726,2.2786,2.2525,2.276,2.2893,2.2893,2.2893,2.2893,2.2893,2.2893,2.2893,2.2893,2.296,2.2987,2.2987,2.2987,2.2987,0.0,0.0,1.4327,1.4476,0.0,0.0,0.0,0.0,1.3193,0.0,0.0,0.0,0.0,0.0,0.0,0.0,0.0,0.0,0.0,0.0,0.0,0.0,0.0,0.0,1.9786,1.9933,2.005,2.0197,2.0374,2.0521,2.0699,2.0846,2.0962,2.1109,2.1109,2.1109,2.1109,2.1109,2.1109,2.1109,2.1109,2.1109,2.1109,2.1109,2.1109,2.1109,2.1109,2.1109,2.1109,2.1109,2.1109,2.1109,2.1109,2.1109,2.1109,2.1109,2.1109,2.1109,2.1109,2.1109,2.1109,2.1109,2.1109,2.1109,2.1109,2.1109,2.1109,2.1109,2.1109,2.1109,2.1109,2.1109,2.1109,2.1109,2.1109,2.1109,2.1109,2.1109,2.1109,2.1109,2.1109,2.1162,2.1309,2.1489,2.1636,2.1783,2.2017,2.2205,2.2205,2.2372,2.2452,2.2452,2.2452,2.2365,2.2218,2.2338,2.2452,2.2385,2.2565,2.2746,2.2893,2.2893,2.2893,2.2893,2.2893,2.2893,2.2893,2.2893,2.2893,2.2893,2.2893,2.2893,0.0,0.0,0.0,0.0,0.0,1.422,0.0,0.0,0.0,1.3401,0.0,0.0,0.0,0.0,0.0,0.0,0.0,0.0,0.0,0.0,0.0,0.0,0.0,0.0,0.0,1.9586,1.9693,2.001,1.9983,2.0104,2.0525,2.0592,2.0695,2.0935,2.1002,2.1029,2.1029,2.1082,2.1109,2.1109,2.1109,2.1109,2.1109,2.1109,2.1109,2.1109,2.1109,2.1109,2.1109,2.1109,2.1109,2.1109,2.1109,2.1109,2.1109,2.1109,2.1109,2.1109,2.1109,2.1109,2.1109,2.1109,2.1109,2.1109,2.1109,2.1109,2.1109,2.1109,2.1109,2.1109,2.1109,2.1109,2.1109,2.1109,2.1109,2.1109,2.1109,2.1109,2.1109,2.1109,2.1109,2.1109,2.1109,2.1309,2.1502,2.1502,2.1743,2.193,2.193,2.1984,2.1991,2.1991,2.1991,2.1964,2.1943,2.1984,2.2058,2.2245,2.2298,2.2445,2.2719,2.2733,2.276,2.2813,2.2813,2.284,2.2893,2.2893,2.2893,2.2893,2.2893,2.2893,0.0,0.0,0.0,0.0,1.3607,0.0,0.0,0.0,1.3691,1.3244,0.0,0.0,0.0,0.0,0.0,0.0,0.0,0.0,0.0,0.0,0.0,0.0,0.0,0.0,0.0,1.8798,1.8865,1.9455,1.9225,1.9319,1.9867,2.0147,2.0264,2.0304,2.0588,2.0753,2.0753,2.0975,2.1109,2.1109,2.1109,2.1109,2.1109,2.1109,2.1109,2.1109,2.1109,2.1109,2.1109,2.1109,2.1109,2.1109,2.1109,2.1109,2.1109,2.1109,2.1109,2.1109,2.1109,2.1109,2.1109,2.1109,2.1109,2.1109,2.1109,2.1109,2.1109,2.1109,2.1109,2.1109,2.1109,2.1109,2.1109,2.1109,2.1109,2.1109,2.1109,2.1109,2.1109,2.1109,2.1109,2.1109,2.1109,2.1136,2.1162,2.1162,2.1448,2.1636,2.1636,2.1863,2.1991,2.1991,2.1991,2.1917,2.1662,2.1877,2.1917,2.1703,2.193,2.2044,2.2084,2.2084,2.2205,2.2458,2.2472,2.2605,2.2893,2.2893,2.2893,2.2893,2.2893,2.2893,0.0,0.0,0.0,0.0,0.0,0.0,1.2918,0.0,1.2966,0.0,0.0,0.0,0.0,0.0,0.0,0.0,0.0,0.0,0.0,0.0,0.0,0.0,0.0,0.0,0.0,0.0,0.0,0.0,1.8905,1.9105,1.9548,1.9826,2.0024,2.0197,2.0361,2.0414,2.0414,2.0708,2.0855,2.0855,2.1029,2.1109,2.1109,2.1109,2.1109,2.1109,2.1109,2.1109,2.1109,2.1109,2.1109,2.1109,2.1109,2.1109,2.1109,2.1109,2.1109,2.1109,2.1109,2.1109,2.1109,2.1109,2.1109,2.1109,2.1109,2.1109,2.1109,2.1109,2.1109,2.1109,2.1109,2.1109,2.1109,2.1109,2.1109,2.1109,2.1109,2.1109,2.1109,2.1109,2.1109,2.1109,2.1109,2.1109,2.1109,2.1109,2.1216,2.1296,2.1296,2.1403,2.1483,2.1483,2.1483,2.143,2.1309,2.1403,2.1496,2.1582,2.1863,2.1991,2.1991,2.1991,2.2044,2.2164,2.2164,2.2231,2.2385,2.2525,2.2605,2.2605,2.2813,2.2893,1.2533,0.0,0.0,0.0,0.0,0.0,0.0,0.0,0.0,0.0,0.0,0.0,0.0,0.0,0.0,0.0,0.0,0.0,0.0,0.0,0.0,0.0,0.0,0.0,0.0,0.0,0.0,0.0,0.0,1.8677,1.9212,1.9439,1.9693,1.9957,2.0037,2.0077,2.0077,2.0401,2.0548,2.0561,2.0855,2.0989,2.0989,2.1069,2.1109,2.1109,2.1109,2.1109,2.1109,2.1109,2.1109,2.1109,2.1109,2.1109,2.1109,2.1109,2.1109,2.1109,2.1109,2.1109,2.1109,2.1109,2.1109,2.1109,2.1109,2.1109,2.1109,2.1109,2.1109,2.1109,2.1109,2.1109,2.1109,2.1109,2.1109,2.1109,2.1109,2.1109,2.1109,2.1109,2.1109,2.1109,2.1109,2.1109,2.1109,2.1109,2.1109,2.1109,2.1109,2.1109,2.1109,2.1109,2.1109,2.1109,2.1109,2.1109,2.1203,2.1448,2.1662,2.175,2.175,2.175,2.179,2.1903,2.1903,2.1943,2.1991,2.2205,2.2298,2.2311,2.2719,2.2893,0.0,0.0,0.0,0.9723,0.0,0.0,0.0,0.0,1.1761,0.0,0.0,0.0,0.0,0.0,0.0,0.0,0.0,0.0,0.0,0.0,0.0,0.0,0.0,0.0,0.0,0.0,0.0,0.0,0.0,0.0,1.885,1.8916,1.9092,1.9415,1.9666,1.9813,1.9813,2.0077,2.0224,2.0224,2.0548,2.0726,2.0726,2.0975,2.1109,2.1109,2.1109,2.1109,2.1109,2.1109,2.1109,2.1109,2.1109,2.1109,2.1109,2.1109,2.1109,2.1109,2.1109,2.1109,2.1109,2.1109,2.1109,2.1109,2.1109,2.1109,2.1109,2.1109,2.1109,2.1109,2.1109,2.1109,2.1109,2.1109,2.1109,2.1109,2.1109,2.1109,2.1109,2.1109,2.1109,2.1109,2.1109,2.1109,2.1109,2.1109,2.1109,2.1109,2.1109,2.1109,2.1109,2.1109,2.1109,2.1109,2.1109,2.1109,2.1109,2.1122,2.1136,2.1136,2.1136,2.1136,2.1269,2.1628,2.1596,2.1743,2.1991,2.1991,2.2004,2.2017,2.2626,2.2893,0.0,0.0,0.8949,0.9048,0.0,0.0,0.0,0.0,0.0,0.0,0.0,0.0,0.0,0.0,0.0,0.0,0.0,0.0,0.0,0.0,0.0,0.0,0.0,0.0,0.0,0.0,0.0,0.0,1.7461,0.0,0.0,1.8689,1.8943,1.9078,1.9359,1.9548,1.9548,1.98,1.9947,1.9947,2.0241,2.0388,2.0357,2.045,2.049,2.0504,2.0735,2.0828,2.0842,2.1029,2.1109,2.1109,2.1109,2.1109,2.1109,2.1109,2.1109,2.1109,2.1109,2.1109,2.1109,2.1109,2.1109,2.1109,2.1109,2.1109,2.1109,2.1109,2.1109,2.1109,2.1109,2.1109,2.1109,2.1109,2.1109,2.1109,2.1109,2.1109,2.1109,2.1109,2.1109,2.1109,2.1109,2.1109,2.1109,2.1109,2.1109,2.1109,2.1109,2.1109,2.1109,2.1109,2.1109,2.1109,2.1109,2.1109,2.1109,2.1109,2.1109,2.1109,2.1109,2.1109,2.1162,2.1256,2.1256,2.1309,2.1403,2.1636,2.1729,2.1743,2.2131,2.2318,1.1194,0.9682,0.0,0.8478,0.8503,0.0,0.9665,0.0,0.0,0.0,0.0,0.0,0.0,0.0,0.0,0.0,0.0,0.0,0.0,0.0,0.0,0.0,0.0,0.0,0.0,0.0,1.6567,1.6993,0.0,0.0,0.0,0.0,1.8783,1.889,1.9241,1.9401,1.9401,1.9575,1.9639,1.9653,1.9947,2.005,2.005,2.0157,2.0197,2.021,2.0441,2.0521,2.0548,2.0828,2.0949,2.0962,2.1069,2.1109,2.1109,2.1109,2.1109,2.1109,2.1109,2.1109,2.1109,2.1109,2.1109,2.1109,2.1109,2.1109,2.1109,2.1109,2.1109,2.1109,2.1109,2.1109,2.1109,2.1109,2.1109,2.1109,2.1109,2.1109,2.1109,2.1109,2.1109,2.1109,2.1109,2.1109,2.1109,2.1109,2.1109,2.1109,2.1109,2.1109,2.1109,2.1109,2.1109,2.1109,2.1109,2.1109,2.1109,2.1109,2.1109,2.1109,2.1109,2.1109,2.1109,2.1109,2.1109,2.1109,2.1109,2.1328,2.1422,2.1435,2.159,2.167]},{"header":{"parameterUnit":"m.s-1","parameterCategory":1,"la1":30.6,"la2":29.2853,"lo1":-89.7004,"lo2":-87.6739,"dy":0.0162,"dx":0.0183,"nx":112,"ny":82,"refTime":"2024-08-21T06:00:00:Z","depth":0,"parameterNumber":3,"parameterNumberName":"V-component_of_WINDS"},"data":[0.0,0.0,0.0,0.0,0.0,0.0,0.0,0.0,0.0,0.0,0.0,0.0,0.0,0.0,0.0,0.0,0.0,0.0,0.0,0.0,0.0,0.0,0.0,0.0,0.0,0.0,0.0,0.0,0.0,0.0,0.0,0.0,0.0,0.0,0.0,0.0,0.0,0.0,0.0,0.0,0.0,0.0,0.0,0.0,0.0,0.0,0.0,0.0,0.0,0.0,0.0,0.0,0.0,0.0,0.0,0.0,0.0,0.0,0.0,0.0,0.0,0.0,0.0,0.0,0.0,0.0,0.0,0.0,0.0,0.0,0.0,0.0,0.0,0.0,0.0,0.0,0.0,0.0,0.0,0.0,0.0,0.0,0.0,0.0,0.0,0.0,0.0,0.0,0.0,0.0,0.0,4.2396,4.3102,4.3506,4.3506,4.3506,4.28,4.1213,0.0,0.0,0.0,0.0,0.0,0.0,0.0,0.0,0.0,0.0,0.0,0.0,0.0,0.0,0.0,0.0,0.0,0.0,0.0,0.0,0.0,0.0,0.0,0.0,0.0,0.0,0.0,0.0,0.0,0.0,0.0,0.0,0.0,0.0,0.0,0.0,0.0,0.0,0.0,0.0,0.0,0.0,0.0,0.0,0.0,0.0,0.0,0.0,0.0,0.0,0.0,0.0,0.0,0.0,0.0,0.0,0.0,0.0,0.0,0.0,0.0,0.0,0.0,0.0,0.0,0.0,0.0,0.0,0.0,0.0,0.0,0.0,0.0,0.0,0.0,0.0,0.0,0.0,0.0,0.0,0.0,0.0,0.0,0.0,0.0,0.0,0.0,0.0,0.0,0.0,0.0,0.0,0.0,0.0,0.0,0.0,0.0,0.0,0.0,0.0,0.0,0.0,0.0,0.0,4.1654,4.3176,4.3433,4.3506,4.3506,4.3506,4.28,4.1213,0.0,0.0,0.0,0.0,0.0,0.0,0.0,0.0,0.0,0.0,0.0,0.0,0.0,0.0,0.0,0.0,0.0,0.0,0.0,0.0,0.0,0.0,0.0,0.0,0.0,0.0,0.0,0.0,0.0,0.0,0.0,0.0,0.0,0.0,0.0,0.0,0.0,0.0,0.0,0.0,0.0,0.0,0.0,0.0,0.0,0.0,0.0,0.0,0.0,0.0,0.0,0.0,0.0,0.0,0.0,0.0,0.0,0.0,0.0,0.0,0.0,0.0,0.0,0.0,0.0,0.0,0.0,0.0,0.0,0.0,0.0,0.0,0.0,0.0,0.0,0.0,0.0,0.0,0.0,0.0,0.0,0.0,0.0,0.0,0.0,0.0,0.0,0.0,0.0,0.0,0.0,0.0,0.0,0.0,0.0,0.0,0.0,0.0,0.0,0.0,0.0,0.0,0.0,4.1405,4.269,4.3433,4.3506,4.3506,4.3506,4.3102,4.2359,4.1177,3.9533,0.0,0.0,0.0,0.0,0.0,0.0,0.0,0.0,0.0,0.0,0.0,0.0,0.0,0.0,0.0,0.0,0.0,0.0,0.0,0.0,0.0,0.0,0.0,0.0,0.0,0.0,0.0,0.0,0.0,0.0,0.0,0.0,0.0,0.0,0.0,0.0,0.0,0.0,0.0,0.0,0.0,0.0,0.0,0.0,0.0,0.0,0.0,0.0,0.0,0.0,0.0,0.0,0.0,0.0,0.0,0.0,0.0,0.0,0.0,0.0,0.0,0.0,0.0,0.0,0.0,0.0,0.0,0.0,0.0,0.0,0.0,0.0,0.0,0.0,0.0,0.0,0.0,0.0,0.0,0.0,0.0,0.0,0.0,0.0,0.0,0.0,0.0,0.0,0.0,0.0,0.0,0.0,0.0,0.0,0.0,0.0,0.0,0.0,0.0,0.0,0.0,0.0,4.2506,4.3506,4.3506,4.3506,4.3506,4.3506,4.2772,4.1947,4.1132,3.8843,0.0,0.0,0.0,0.0,0.0,0.0,0.0,0.0,0.0,0.0,0.0,0.0,0.0,0.0,0.0,0.0,0.0,0.0,0.0,0.0,0.0,0.0,0.0,0.0,0.0,0.0,0.0,0.0,0.0,0.0,0.0,0.0,0.0,0.0,0.0,0.0,0.0,0.0,0.0,0.0,0.0,0.0,0.0,0.0,0.0,0.0,0.0,0.0,0.0,0.0,0.0,0.0,0.0,0.0,0.0,0.0,0.0,0.0,0.0,0.0,0.0,0.0,0.0,0.0,0.0,0.0,0.0,0.0,0.0,0.0,0.0,0.0,0.0,0.0,0.0,0.0,0.0,0.0,0.0,0.0,0.0,0.0,0.0,0.0,0.0,0.0,0.0,0.0,0.0,0.0,0.0,0.0,0.0,0.0,0.0,0.0,0.0,0.0,0.0,0.0,0.0,0.0,4.2506,4.3506,4.3506,4.3506,4.3506,4.3506,4.2772,4.1947,4.1132,3.8843,0.0,0.0,0.0,0.0,0.0,0.0,0.0,0.0,0.0,0.0,0.0,0.0,0.0,0.0,0.0,0.0,0.0,0.0,0.0,0.0,0.0,0.0,0.0,0.0,0.0,0.0,0.0,0.0,0.0,0.0,0.0,0.0,0.0,0.0,0.0,0.0,0.0,0.0,0.0,0.0,0.0,0.0,0.0,0.0,0.0,0.0,0.0,0.0,0.0,0.0,0.0,0.0,0.0,0.0,0.0,0.0,0.0,0.0,0.0,0.0,0.0,0.0,0.0,0.0,0.0,0.0,0.0,0.0,0.0,0.0,0.0,0.0,0.0,0.0,0.0,0.0,0.0,0.0,0.0,0.0,0.0,0.0,0.0,0.0,0.0,0.0,0.0,0.0,0.0,0.0,0.0,0.0,0.0,0.0,0.0,0.0,0.0,0.0,0.0,0.0,0.0,0.0,4.2506,4.3506,0.0,4.3506,4.3506,4.3506,4.2286,4.1213,4.0414,0.0,0.0,0.0,0.0,0.0,0.0,0.0,0.0,0.0,0.0,0.0,0.0,0.0,0.0,0.0,0.0,0.0,0.0,0.0,0.0,0.0,0.0,0.0,0.0,0.0,0.0,0.0,0.0,0.0,0.0,0.0,0.0,0.0,0.0,0.0,0.0,0.0,0.0,0.0,0.0,0.0,0.0,0.0,0.0,0.0,0.0,0.0,0.0,0.0,0.0,0.0,0.0,0.0,0.0,0.0,0.0,0.0,0.0,0.0,0.0,0.0,0.0,0.0,0.0,0.0,0.0,0.0,0.0,0.0,0.0,0.0,0.0,0.0,0.0,0.0,0.0,0.0,0.0,0.0,0.0,0.0,0.0,0.0,0.0,0.0,0.0,0.0,0.0,0.0,0.0,0.0,0.0,0.0,0.0,0.0,0.0,0.0,0.0,0.0,0.0,0.0,0.0,4.0883,4.2506,4.3506,0.0,4.3506,4.3506,4.3506,4.2249,4.114,4.0341,0.0,0.0,0.0,0.0,0.0,0.0,0.0,0.0,0.0,0.0,0.0,0.0,0.0,0.0,0.0,0.0,0.0,0.0,0.0,0.0,0.0,0.0,0.0,0.0,0.0,0.0,0.0,0.0,0.0,0.0,0.0,0.0,0.0,0.0,0.0,0.0,0.0,0.0,0.0,0.0,0.0,0.0,0.0,0.0,0.0,0.0,0.0,0.0,0.0,0.0,0.0,0.0,0.0,0.0,0.0,0.0,0.0,0.0,0.0,0.0,0.0,0.0,0.0,0.0,0.0,0.0,0.0,0.0,0.0,0.0,0.0,0.0,0.0,0.0,0.0,0.0,0.0,0.0,0.0,0.0,0.0,0.0,0.0,0.0,0.0,0.0,0.0,0.0,0.0,0.0,0.0,0.0,0.0,0.0,0.0,0.0,0.0,0.0,0.0,0.0,0.0,0.0,4.0912,4.2506,4.3506,4.3506,4.3506,4.3506,4.3506,4.2772,4.1956,0.0,0.0,0.0,0.0,0.0,0.0,0.0,0.0,0.0,0.0,0.0,0.0,0.0,0.0,0.0,0.0,0.0,0.0,0.0,0.0,0.0,0.0,0.0,0.0,0.0,0.0,0.0,0.0,0.0,0.0,0.0,0.0,0.0,0.0,0.0,0.0,0.0,0.0,0.0,0.0,0.0,0.0,0.0,0.0,0.0,0.0,0.0,0.0,0.0,0.0,0.0,0.0,0.0,0.0,0.0,0.0,0.0,0.0,0.0,0.0,0.0,0.0,0.0,0.0,0.0,0.0,0.0,0.0,0.0,0.0,0.0,0.0,0.0,0.0,0.0,0.0,0.0,0.0,0.0,0.0,0.0,0.0,0.0,0.0,0.0,0.0,0.0,0.0,0.0,0.0,0.0,0.0,0.0,0.0,0.0,0.0,0.0,0.0,0.0,0.0,0.0,0.0,0.0,4.1654,4.3351,4.4342,4.4342,4.4342,4.4121,4.3543,4.2772,4.1699,4.0341,0.0,0.0,0.0,0.0,0.0,0.0,0.0,0.0,0.0,0.0,0.0,0.0,0.0,0.0,0.0,0.0,0.0,0.0,0.0,0.0,0.0,0.0,0.0,0.0,0.0,0.0,0.0,0.0,0.0,0.0,0.0,0.0,0.0,0.0,0.0,0.0,0.0,0.0,0.0,0.0,0.0,0.0,0.0,0.0,0.0,0.0,0.0,0.0,0.0,0.0,0.0,0.0,0.0,0.0,0.0,0.0,0.0,0.0,0.0,0.0,0.0,0.0,0.0,0.0,0.0,0.0,0.0,0.0,0.0,0.0,0.0,0.0,0.0,0.0,0.0,0.0,0.0,0.0,0.0,0.0,0.0,0.0,0.0,0.0,0.0,0.0,0.0,0.0,0.0,0.0,0.0,0.0,0.0,0.0,0.0,0.0,0.0,0.0,0.0,0.0,0.0,0.0,4.2066,4.3975,4.5177,4.5177,4.4883,4.4516,4.4011,4.324,4.2103,4.0487,0.0,0.0,0.0,0.0,0.0,0.0,0.0,0.0,0.0,0.0,0.0,0.0,0.0,0.0,0.0,0.0,0.0,0.0,0.0,0.0,0.0,0.0,0.0,0.0,0.0,0.0,0.0,0.0,0.0,0.0,0.0,0.0,0.0,0.0,0.0,0.0,0.0,0.0,0.0,0.0,0.0,0.0,0.0,0.0,0.0,0.0,0.0,0.0,0.0,0.0,0.0,0.0,0.0,0.0,0.0,0.0,0.0,0.0,0.0,0.0,0.0,0.0,0.0,0.0,0.0,0.0,0.0,0.0,0.0,0.0,0.0,0.0,0.0,0.0,0.0,0.0,0.0,0.0,0.0,0.0,0.0,0.0,0.0,0.0,0.0,0.0,0.0,0.0,0.0,0.0,0.0,0.0,0.0,0.0,0.0,0.0,0.0,0.0,0.0,0.0,0.0,0.0,4.2396,4.4562,4.5993,4.5993,4.536,4.4847,4.47,4.4011,4.291,4.1323,0.0,0.0,0.0,0.0,0.0,0.0,0.0,0.0,0.0,0.0,0.0,0.0,0.0,0.0,0.0,0.0,0.0,0.0,0.0,0.0,0.0,0.0,0.0,0.0,0.0,0.0,0.0,0.0,0.0,0.0,0.0,0.0,0.0,0.0,0.0,0.0,0.0,0.0,0.0,0.0,0.0,0.0,0.0,0.0,0.0,0.0,0.0,0.0,0.0,0.0,0.0,0.0,0.0,0.0,0.0,0.0,0.0,0.0,0.0,0.0,3.8388,0.0,0.0,0.0,0.0,0.0,0.0,0.0,0.0,0.0,0.0,0.0,0.0,0.0,0.0,0.0,0.0,0.0,0.0,0.0,0.0,0.0,0.0,0.0,0.0,0.0,0.0,0.0,0.0,0.0,0.0,0.0,0.0,0.0,0.0,0.0,0.0,0.0,0.0,0.0,0.0,0.0,4.3929,4.5727,4.6828,4.6828,4.6672,4.6085,4.481,4.4553,4.3754,4.2139,4.0716,0.0,0.0,0.0,0.0,0.0,0.0,0.0,0.0,0.0,0.0,0.0,0.0,0.0,0.0,0.0,0.0,0.0,0.0,0.0,0.0,0.0,0.0,0.0,0.0,0.0,0.0,0.0,0.0,0.0,0.0,0.0,0.0,0.0,0.0,0.0,0.0,0.0,0.0,0.0,0.0,0.0,0.0,0.0,0.0,0.0,0.0,0.0,0.0,0.0,0.0,0.0,0.0,0.0,0.0,0.0,0.0,0.0,0.0,0.0,0.0,4.0414,0.0,0.0,0.0,0.0,0.0,0.0,0.0,0.0,0.0,0.0,0.0,0.0,0.0,0.0,0.0,0.0,0.0,0.0,0.0,0.0,0.0,0.0,0.0,0.0,0.0,0.0,0.0,0.0,0.0,0.0,0.0,0.0,0.0,0.0,0.0,0.0,0.0,0.0,0.0,0.0,4.4553,4.6425,4.7672,4.7672,4.7333,4.6746,4.5902,4.514,4.4186,4.2947,4.1735,0.0,0.0,0.0,0.0,0.0,0.0,0.0,0.0,0.0,0.0,0.0,0.0,0.0,0.0,0.0,0.0,0.0,0.0,0.0,0.0,0.0,0.0,0.0,0.0,0.0,0.0,0.0,0.0,0.0,0.0,0.0,0.0,0.0,0.0,0.0,0.0,0.0,0.0,0.0,0.0,0.0,0.0,0.0,0.0,0.0,0.0,0.0,0.0,0.0,0.0,0.0,0.0,0.0,4.5296,4.5333,4.4644,4.6608,4.7232,4.6617,4.4488,4.3387,4.3122,0.0,0.0,0.0,0.0,0.0,0.0,0.0,0.0,0.0,0.0,0.0,0.0,0.0,0.0,0.0,0.0,0.0,0.0,0.0,0.0,0.0,0.0,0.0,0.0,0.0,4.6067,4.5635,0.0,0.0,0.0,0.0,0.0,0.0,0.0,0.0,0.0,0.0,0.0,0.0,4.5067,4.6975,4.8296,4.8296,4.7709,4.7259,4.7113,4.5874,4.4709,4.3763,4.2947,4.1846,0.0,0.0,0.0,0.0,0.0,0.0,0.0,0.0,0.0,0.0,0.0,0.0,0.0,0.0,0.0,0.0,0.0,0.0,0.0,0.0,0.0,0.0,0.0,0.0,0.0,0.0,0.0,0.0,0.0,0.0,0.0,0.0,3.6078,3.7059,0.0,0.0,0.0,0.0,0.0,0.0,0.0,0.0,0.0,0.0,0.0,0.0,0.0,4.5067,4.6452,4.7269,4.7682,4.7682,4.926,4.9554,4.8802,4.9123,4.9601,5.0105,4.9003,0.0,4.6342,4.4957,0.0,0.0,0.0,0.0,0.0,0.0,0.0,0.0,0.0,0.0,0.0,0.0,0.0,0.0,0.0,0.0,0.0,0.0,0.0,0.0,0.0,0.0,4.8012,4.8756,4.906,4.8976,0.0,4.6177,4.4149,4.3966,4.2865,0.0,0.0,0.0,0.0,0.0,0.0,0.0,4.6599,4.7672,4.8296,4.8296,4.8223,4.7856,4.7149,4.6892,4.6122,4.4626,4.3791,4.2919,4.2029,4.1323,0.0,0.0,0.0,0.0,0.0,0.0,0.0,0.0,0.0,0.0,0.0,0.0,0.0,0.0,0.0,0.0,0.0,0.0,0.0,0.0,0.0,0.0,0.0,0.0,0.0,0.0,0.0,0.0,0.0,3.6713,3.8662,3.9431,3.99,4.0157,0.0,0.0,0.0,0.0,0.0,0.0,0.0,0.0,0.0,4.6682,4.7159,4.7755,4.8443,4.9297,4.9691,4.9738,5.0912,5.1059,5.0298,5.1206,5.1573,5.1463,5.1536,5.0902,4.9738,4.8122,4.6948,4.6177,0.0,0.0,0.0,0.0,4.6214,4.6214,4.6214,4.6296,0.0,4.4782,0.0,0.0,0.0,0.0,0.0,0.0,0.0,0.0,0.0,0.0,0.0,5.0739,5.0959,5.1069,5.1536,5.0141,4.8379,0.0,4.6544,4.5966,4.4562,0.0,0.0,0.0,0.0,4.7159,4.8343,4.9224,4.9517,4.9087,4.9013,4.8673,4.7856,4.7369,4.6782,4.6085,4.5296,4.4681,4.4342,4.3562,4.2902,0.0,0.0,0.0,0.0,0.0,0.0,0.0,0.0,0.0,0.0,0.0,0.0,0.0,0.0,0.0,0.0,0.0,0.0,0.0,0.0,0.0,0.0,0.0,0.0,0.0,0.0,0.0,0.0,3.9585,4.1323,4.1662,4.2616,4.291,0.0,0.0,0.0,0.0,0.0,0.0,4.7095,4.7929,4.881,4.9848,5.0435,5.0849,5.1069,5.1683,5.2013,5.205,5.2648,5.2611,5.2087,5.3261,5.3482,5.2941,5.3555,5.3482,5.2758,5.0739,4.9417,4.8636,4.86,4.8636,4.8673,4.8847,4.892,4.892,4.892,4.9233,4.9344,4.7691,0.0,4.7379,4.5599,0.0,0.0,0.0,0.0,4.8113,4.9701,5.0618,5.1316,5.2123,5.2454,5.2784,5.3361,5.3188,5.2207,0.0,4.9454,4.9023,4.7177,0.0,0.0,0.0,0.0,4.893,4.9784,5.0435,5.0582,4.9968,4.9721,4.9344,4.8673,4.7893,4.7333,4.7113,4.6535,4.6104,4.592,4.5333,4.4745,4.413,0.0,0.0,0.0,0.0,0.0,0.0,0.0,0.0,0.0,0.0,0.0,0.0,0.0,0.0,0.0,0.0,0.0,0.0,0.0,0.0,0.0,0.0,0.0,0.0,0.0,0.0,0.0,0.0,0.0,4.3469,4.4745,0.0,0.0,0.0,0.0,4.6782,4.8416,4.9711,5.0508,5.1316,5.2464,5.4032,5.4142,5.4509,5.5291,5.5328,5.5365,5.5365,5.5401,5.5401,5.5365,5.5438,5.5475,5.5438,5.5475,5.5475,5.5181,5.2013,5.0251,4.9537,4.9454,4.949,4.9637,5.0398,5.0655,5.0655,5.0655,5.0178,4.9711,5.0362,5.0068,4.9463,4.9317,4.8719,0.0,0.0,4.9454,4.9821,5.1473,5.1914,5.2134,5.2957,5.3728,5.4289,5.4326,5.4913,5.4704,0.0,5.0629,4.9574,4.9427,0.0,4.8526,4.9307,4.95,4.9821,5.0655,5.0765,5.0765,5.0729,5.0078,4.9574,4.9537,4.8746,4.7893,4.7149,4.7076,4.6718,4.592,4.5847,4.581,4.5773,4.4204,0.0,0.0,0.0,0.0,0.0,0.0,0.0,0.0,0.0,0.0,0.0,0.0,0.0,0.0,0.0,0.0,0.0,0.0,0.0,0.0,0.0,0.0,0.0,0.0,0.0,0.0,0.0,0.0,4.5838,4.7709,0.0,4.7865,4.9003,4.9921,5.0215,5.1756,5.2821,5.3115,5.3896,5.4594,5.5144,5.5181,5.5328,5.5585,5.5585,5.5585,5.5585,5.5585,5.5585,5.5585,5.5585,5.5585,5.5585,5.5585,5.5585,5.5511,5.4373,5.3712,5.3455,5.3419,5.3455,5.3419,5.3188,5.3115,5.3041,5.2517,5.216,5.1867,5.1646,5.1022,5.0362,5.0362,5.0178,5.0068,5.0922,5.1143,5.151,5.3125,5.3555,5.3739,5.4546,5.495,5.5181,5.5181,5.5401,5.5365,5.4483,5.3859,5.3125,5.2087,5.1673,5.1379,5.1179,5.1143,5.1436,5.2223,5.2333,5.215,5.161,5.1326,5.0739,4.9684,4.9307,4.8563,4.7186,4.7113,4.6966,4.6682,4.6682,4.6682,4.6682,4.559,4.4635,0.0,0.0,0.0,0.0,0.0,0.0,0.0,0.0,0.0,0.0,0.0,0.0,0.0,0.0,0.0,0.0,0.0,0.0,0.0,0.0,0.0,0.0,0.0,0.0,0.0,0.0,4.8663,4.837,5.0535,5.1573,5.0445,5.184,5.2831,5.2831,5.4289,5.5207,5.5207,5.5978,5.6393,5.6393,5.6393,5.6393,5.6393,5.6393,5.6393,5.6393,5.6393,5.6393,5.6393,5.6393,5.6393,5.6393,5.6393,5.6393,5.6393,5.6393,5.6393,5.6356,5.5805,5.5585,5.5548,5.4997,5.4803,5.473,5.4179,5.3995,5.3922,5.3382,5.2858,5.2417,5.2417,5.2417,5.2527,5.3052,5.3198,5.3455,5.452,5.4803,5.495,5.5475,5.5805,5.5978,5.5978,5.6209,5.6393,5.6393,5.5989,5.5254,5.4179,5.3995,5.3812,5.3309,5.2978,5.3004,5.3544,5.3361,5.2994,5.2454,5.216,5.1583,5.0482,4.9894,4.9123,4.8003,4.7672,4.7489,4.7489,4.7489,4.7489,4.7489,4.6718,4.6168,4.5911,0.0,0.0,0.0,0.0,0.0,0.0,0.0,0.0,0.0,0.0,0.0,0.0,0.0,0.0,0.0,0.0,0.0,0.0,0.0,0.0,0.0,0.0,0.0,4.75,5.009,5.1803,5.1022,5.3004,5.3849,5.2317,5.3592,5.4509,5.4509,5.5978,5.6847,5.6847,5.7593,5.7997,5.7997,5.7997,5.7997,5.7997,5.7997,5.7997,5.7997,5.7997,5.7997,5.7997,5.7997,5.7997,5.7997,5.7997,5.7997,5.7997,5.7997,5.7997,5.785,5.6282,5.5658,5.5658,5.5658,5.5622,5.5585,5.5585,5.5585,5.5585,5.5585,5.5585,5.5585,5.5585,5.5585,5.5585,5.5585,5.5585,5.5622,5.5622,5.5658,5.5658,5.5658,5.6271,5.6847,5.6847,5.7446,5.7997,5.7997,5.676,5.5658,5.5658,5.5658,5.5622,5.5585,5.495,0.0,5.4436,5.3765,5.3287,5.3287,5.2564,5.2097,5.206,5.0592,4.9684,4.9574,4.8783,4.8296,4.8296,4.8333,4.837,4.8406,4.7663,4.7672,4.8406,0.0,0.0,0.0,0.0,0.0,0.0,0.0,0.0,0.0,0.0,0.0,0.0,0.0,0.0,0.0,0.0,0.0,0.0,0.0,0.0,0.0,0.0,5.0702,4.9951,5.2107,5.3665,5.3445,5.5023,5.5967,5.5537,5.6418,5.7005,5.7005,5.7409,5.7666,5.7666,5.7886,5.7997,5.7997,5.7997,5.7997,5.7997,5.7997,5.7997,5.7997,5.7997,5.7997,5.7997,5.7997,5.7997,5.7997,5.7997,5.7997,5.7997,5.7997,5.7997,5.796,5.7519,5.7347,5.7262,5.6675,5.6088,5.5585,5.5585,5.5585,5.5585,5.5585,5.5585,5.5585,5.5585,5.5585,5.5585,5.5585,5.5585,5.5732,5.6308,5.6455,5.6638,5.7189,5.7519,5.7666,5.7666,5.785,5.7997,5.7997,5.7629,5.7152,5.6565,5.6455,5.6271,5.5695,5.5401,0.0,5.5254,5.5071,5.495,5.495,5.474,5.4142,5.2957,5.2454,5.1206,4.882,4.8416,4.8296,4.8296,4.8893,4.9784,5.0959,5.1342,5.1342,0.0,0.0,0.0,0.0,0.0,0.0,0.0,0.0,0.0,0.0,0.0,0.0,0.0,0.0,0.0,0.0,0.0,0.0,0.0,0.0,0.0,0.0,5.1903,5.3455,5.3335,5.4509,5.5427,5.5427,5.6528,5.7299,5.7299,5.774,5.7997,5.7997,5.7997,5.7997,5.7997,5.7997,5.7997,5.7997,5.7997,5.7997,5.7997,5.7997,5.7997,5.7997,5.7997,5.7997,5.7997,5.7997,5.7997,0.0,5.7997,5.7997,5.7997,5.7997,5.7997,0.0,0.0,0.0,0.0,0.0,5.7005,5.6613,5.6613,5.6613,5.6613,5.6613,5.6613,5.6613,5.6613,5.6613,5.6613,5.6613,5.6613,5.6723,5.7189,5.7299,5.7409,5.7886,5.7997,5.7997,5.7997,5.7997,5.7997,5.7997,5.7997,0.0,5.7373,5.7299,5.7152,5.6686,5.6319,5.6088,5.6088,5.5805,5.5585,5.5585,5.5585,5.5218,5.4289,5.3922,0.0,0.0,0.0,5.0352,5.0352,5.0839,0.0,0.0,0.0,0.0,0.0,0.0,0.0,0.0,5.3015,5.3628,0.0,0.0,0.0,0.0,0.0,0.0,0.0,0.0,0.0,0.0,0.0,0.0,0.0,0.0,0.0,0.0,5.43,5.6025,5.6811,5.6921,5.6921,5.6921,5.7556,5.7997,5.7997,5.807,5.8143,5.8143,5.8217,5.8253,5.8253,0.0,0.0,0.0,0.0,5.8253,5.8253,5.8253,5.8253,5.8253,5.818,5.8143,5.8143,5.8033,5.7997,5.7997,5.7997,5.7997,5.7997,5.7997,5.7997,5.7997,5.7997,5.7997,5.7997,5.7997,5.7997,5.7997,5.7997,0.0,0.0,5.7997,5.7997,5.7997,5.7997,5.7997,5.7997,5.7997,5.7997,5.7997,5.7997,5.7997,5.7997,5.7997,5.7997,5.7997,5.7997,5.7997,5.7997,5.7997,5.7997,5.7997,5.7997,5.7997,5.7997,5.7997,5.7409,5.6921,5.6921,5.6308,5.5879,5.5879,0.0,0.0,5.5732,5.506,5.4289,5.3398,5.3324,5.3398,5.3471,5.3544,5.3948,5.4656,5.4766,5.5464,5.6811,5.6884,5.7373,5.807,5.5831,5.5611,0.0,0.0,0.0,0.0,0.0,0.0,0.0,0.0,0.0,0.0,0.0,0.0,0.0,0.0,0.0,5.452,5.5831,5.6859,5.7666,5.7776,5.7776,5.7776,5.7923,5.7997,5.7997,5.8584,5.8976,5.8976,5.9575,5.9942,5.9942,5.9942,0.0,5.9942,5.9942,5.9942,5.9942,5.9942,5.9942,5.9942,0.0,0.0,5.8939,5.829,5.7997,5.7997,5.7997,5.7997,5.7997,5.7997,5.7997,5.7997,5.7997,5.7997,5.7997,5.7997,5.7997,5.7997,5.7997,5.7997,5.7997,5.7997,5.7997,5.7997,5.7997,5.7997,0.0,5.7997,5.7997,5.7997,5.7997,5.7997,5.7997,5.7997,5.7997,5.7997,5.7997,5.7997,5.7997,5.7997,5.7997,5.7997,5.7997,5.7997,5.7997,5.7997,5.7886,5.7776,5.7776,5.7629,5.7519,5.7519,5.7519,5.7262,5.6638,5.6444,5.571,5.4252,5.4179,5.4473,5.5108,5.5757,5.6187,5.6334,5.6969,5.7152,5.6811,5.7446,5.818,5.8939,5.7813,5.7813,0.0,0.0,0.0,0.0,0.0,0.0,0.0,0.0,0.0,0.0,0.0,5.014,5.1667,0.0,5.4337,5.5941,5.6895,5.7556,5.7923,5.7997,5.7997,5.7997,5.7997,5.8143,5.8547,5.8976,5.938,5.9783,6.015,6.0419,6.0419,6.0419,6.0419,6.0419,6.0419,6.0419,6.0419,6.0419,6.0419,6.0419,6.0003,5.9783,5.9783,5.9391,5.9208,5.9171,5.8767,5.8609,5.8572,5.818,5.7997,5.7997,5.7997,5.7997,5.7997,5.7997,5.7997,5.7997,5.7997,5.7997,5.7997,5.7997,5.7997,5.7997,5.7997,5.7997,5.7997,5.7997,5.7997,5.7997,5.7997,5.7997,5.7997,5.7997,5.7997,5.7997,5.7997,5.7997,5.7997,5.7997,5.7997,5.7997,5.7997,5.7997,5.7997,5.7997,5.7997,5.7997,5.7997,5.7997,5.7997,5.7997,5.7997,5.785,5.7446,5.7031,5.6627,5.6235,5.5831,5.5978,5.676,5.7189,5.7409,5.7409,5.7813,5.7997,5.7985,5.8389,5.9013,5.9783,5.9391,5.9428,0.0,0.0,0.0,0.0,0.0,0.0,0.0,0.0,4.9896,5.132,5.221,5.3209,5.4594,5.539,5.6099,5.6884,5.7593,5.7997,5.7997,5.7997,5.7997,5.7997,5.8143,5.851,5.9159,5.949,5.993,6.0566,6.0786,6.086,6.086,6.086,6.086,6.086,6.086,6.086,6.086,6.086,6.086,6.086,6.0713,6.0639,6.0639,6.0456,6.0419,6.037,5.971,5.9343,5.9159,5.851,5.8143,5.7997,5.7997,5.7997,5.7997,5.7997,5.7997,5.7997,5.7997,5.7997,5.7997,5.7997,5.7997,5.7997,5.7997,5.7997,5.7997,5.7997,5.7997,5.7997,5.7997,5.7997,5.7997,5.7997,5.7997,5.7997,5.7997,5.7997,5.7997,5.7997,5.7997,5.7997,5.7997,5.7997,5.7997,5.7997,5.7997,5.7997,5.7997,5.7997,5.7997,5.7997,5.7997,5.7997,5.7997,5.7409,5.7299,5.796,5.7409,5.7409,5.8217,5.8217,5.8327,5.8474,5.8474,5.8804,5.9416,5.9416,5.9857,6.0639,6.0639,6.0639,4.2102,4.2767,4.4013,4.6154,4.7408,4.8494,0.0,0.0,5.304,5.3913,5.4695,5.5486,5.6381,5.6602,5.6932,5.774,5.7923,5.7997,5.7997,5.7997,5.7997,5.7997,5.8609,5.9086,5.9184,6.0493,6.1374,6.1459,6.2144,6.2536,6.2536,6.2536,6.2536,6.2536,6.2536,6.2536,6.2536,6.2536,6.2536,6.2536,6.1814,6.1484,6.1447,6.075,6.0419,6.037,6.0297,5.9857,5.9184,5.9086,5.8646,5.7997,5.7997,5.7997,5.7997,5.7997,5.7997,5.7997,5.7997,5.7997,5.7997,5.7997,5.7997,5.7997,5.7997,5.7997,5.7997,5.7997,5.7997,5.7997,5.7997,5.7997,5.7997,5.7997,5.7997,5.7997,5.7997,5.7997,5.7997,5.7997,5.7997,5.7997,5.7997,5.7997,5.7997,5.7997,5.7997,5.7997,5.7997,5.7997,5.7997,5.7997,5.7997,5.7997,5.7997,5.7923,5.7886,5.7997,5.7923,5.8217,5.9049,5.9086,5.9416,6.0126,6.0126,6.0199,6.026,6.026,6.0676,6.1484,6.1484,6.1484,4.3719,4.516,4.6754,0.0,4.9284,5.0826,5.1991,5.3461,5.4857,5.5666,5.6452,5.7079,5.7446,5.7483,5.7593,0.0,5.7997,5.7997,5.7997,5.7997,5.7997,5.7997,5.9134,5.9893,5.9893,6.0933,6.1777,6.2254,6.2609,6.2793,6.2793,6.2793,6.2793,6.2793,6.2793,6.2793,6.2793,6.2793,6.2793,6.2793,6.2462,6.2291,6.2291,6.1949,6.1545,6.108,6.108,6.0639,5.9857,5.938,5.9013,5.8646,5.818,5.7997,5.7997,5.7997,5.7997,5.7997,5.7997,5.7997,5.7997,5.7997,5.7997,5.7997,5.7997,5.7997,5.7997,5.7997,5.7997,5.7997,5.7997,5.7997,5.7997,5.7997,5.8364,5.8682,5.8682,5.9061,5.9281,5.8792,5.8682,5.8535,5.807,5.7997,5.7997,5.7997,5.7997,5.7997,5.7997,5.7997,5.7997,5.7997,5.7997,5.7997,5.7997,5.8437,5.8682,5.8682,5.9134,5.9538,5.9893,5.9893,6.004,6.037,6.0419,6.0639,6.108,6.108,6.152,6.2291,6.2291,6.2585,4.5403,0.0,0.0,4.9625,5.1403,5.3188,5.4021,5.528,5.6429,5.7005,5.7593,5.7997,5.7997,5.7997,5.7997,5.7997,5.818,5.8253,5.8033,5.818,5.8253,5.8033,5.9208,6.015,6.0382,6.1337,6.2181,6.2756,6.2793,6.2793,6.2793,6.3013,6.316,6.316,6.316,6.316,6.316,6.2903,6.2793,6.2793,6.2793,6.2793,6.2793,6.2793,6.2462,6.1924,6.1924,6.1484,6.0676,6.0114,5.9747,5.949,5.8877,5.8547,5.8364,5.8584,5.8364,5.7997,5.7997,5.7997,5.7997,5.7997,5.7997,5.7997,5.7997,5.7997,5.7997,5.7997,5.7997,5.7997,5.7997,5.8143,5.8327,5.8327,5.8939,5.9526,5.9526,6.0003,6.0236,5.9636,5.9526,5.9343,5.8767,5.8657,5.8657,5.8657,5.8657,5.851,5.807,5.7997,5.7997,5.7997,5.7997,5.8107,5.8327,5.8866,5.9306,5.9526,6.0077,6.0493,6.0713,6.075,6.086,6.1068,6.1068,6.1337,6.1924,6.1924,6.2218,6.2793,6.2793,6.3282,0.0,0.0,5.0124,5.2491,5.4289,5.5695,5.6528,5.7336,5.7923,5.796,5.796,5.7997,5.7997,5.7997,5.7997,5.7997,5.8646,5.8902,5.8107,5.8682,5.8866,5.8107,5.8719,5.9526,0.0,6.1838,6.2756,6.2793,6.2793,6.2793,6.2793,6.3613,6.4066,6.4066,6.4066,6.4066,6.4066,6.3196,6.2793,6.2793,6.2793,6.2793,6.2793,6.2793,6.2793,6.2756,6.2756,6.2316,6.1557,6.152,6.108,6.037,6.0346,5.9857,5.9269,6.004,5.9355,5.7997,5.7997,5.7997,5.7997,5.7997,5.7997,5.7997,5.7997,5.7997,5.7997,5.7997,5.7997,5.7997,5.7997,5.8572,5.9159,5.9159,5.9783,6.037,6.037,6.0382,6.037,6.0382,6.037,6.0346,6.0346,6.0346,6.0346,6.0346,6.0346,5.9758,5.8217,5.7997,5.7997,5.7997,5.7997,5.8327,5.9086,5.9196,5.9526,6.0297,6.037,6.075,6.152,6.1557,6.1924,6.2719,6.2719,6.2756,6.2756,6.2756,6.2793,6.2793,6.2793,6.3282,4.7795,0.0,5.2454,5.4326,5.5611,5.6602,5.7409,5.7813,5.7997,5.7997,5.7997,5.7997,5.7997,5.7997,5.818,5.8719,5.9013,5.9306,5.9575,5.9832,5.971,5.8902,5.9967,0.0,0.0,0.0,0.0,6.2756,6.3356,6.3649,6.3649,6.4457,6.4897,6.4897,6.4897,6.4897,6.4897,6.4591,6.4444,6.4444,6.3906,6.3356,6.2793,6.2793,6.2793,6.2793,6.2793,6.2646,6.2365,6.1814,6.1447,6.1153,6.0603,6.0236,6.004,6.0297,6.0052,5.9538,5.8976,5.8437,5.7997,5.7997,5.7997,5.7997,5.7997,5.7997,5.7997,5.7997,5.84,5.8792,5.8792,5.938,6.0003,6.0003,6.0603,6.119,6.119,6.163,6.1838,6.13,6.119,6.1043,6.0493,6.0419,6.0419,6.0419,6.0419,6.0187,5.9648,5.9612,5.9612,5.9612,5.9612,5.9722,5.9967,6.0493,6.0896,6.119,6.1704,6.2095,6.2389,6.2401,6.2499,6.2793,6.3356,6.3392,6.2793,6.393,6.4187,6.3686,6.42,6.4897,4.9468,5.1881,5.4363,5.5684,5.6638,5.7373,5.7886,5.7997,5.7997,5.7997,5.7776,5.7666,5.796,5.7776,5.785,5.8646,5.9233,5.971,5.993,6.0456,6.0529,5.971,6.0786,6.141,0.0,0.0,0.0,6.2756,6.3613,6.4103,6.4103,6.5154,6.5742,6.5742,6.5742,6.5742,6.5742,6.5435,6.5288,6.5288,6.4494,6.3796,6.3282,6.3282,6.3282,6.3282,6.3282,6.3282,6.3209,6.2365,6.2034,6.1998,6.1471,6.108,6.086,6.1141,6.0884,6.0334,5.982,5.9269,5.8804,5.851,5.8437,5.84,5.8107,5.7997,5.807,5.8364,5.8792,5.9269,5.9563,6.0236,6.0823,6.0823,6.1447,6.2034,6.2034,6.2426,6.2646,6.2144,6.2034,6.1851,6.1361,6.1251,6.1251,6.1251,6.1251,6.1031,6.0481,6.0419,6.0419,6.0419,6.0419,6.0529,6.0786,6.13,6.1704,6.1998,6.2499,6.2793,6.2793,6.3086,6.3282,6.3282,6.409,6.4237,6.371,6.4774,6.5031,6.453,6.5081,6.5742,5.1693,5.3859,5.5842,5.6675,5.7446,5.7997,5.7997,5.796,5.7923,5.7923,5.7299,5.6969,5.774,0.0,5.7079,5.7923,5.9391,6.0187,5.9526,6.0786,6.1447,0.0,0.0,0.0,0.0,0.0,0.0,6.2939,0.0,6.4176,6.4213,6.5705,6.6549,6.6549,6.6549,6.6549,6.6549,6.5802,6.5398,6.5362,6.4604,6.4176,6.4103,6.4139,6.4139,6.4103,6.4103,6.4103,6.4029,6.316,6.2793,6.2793,6.2793,6.2316,6.1741,6.2499,6.1838,6.0517,6.0517,6.0481,6.026,5.9526,5.9269,5.9123,5.8364,5.8107,5.8217,5.9049,5.9269,5.9453,6.026,6.1043,6.1667,6.1667,6.2254,6.2793,6.2793,6.2793,6.2793,6.2793,6.2793,6.2793,6.2793,6.2793,6.2829,6.2866,6.2866,6.2316,6.0701,6.0517,6.0517,6.0517,6.0517,6.0823,6.1606,6.1667,6.1998,6.2829,6.2866,6.2866,6.2939,6.3723,6.4176,6.4176,6.4971,6.5325,6.5288,6.5362,6.5398,6.5362,6.5398,6.5852,5.3335,5.5097,5.6675,5.7483,5.785,5.7997,5.7997,5.7556,5.7116,5.7116,5.6455,5.5989,5.6172,0.0,0.0,5.8682,5.9747,0.0,6.2622,6.3221,0.0,6.3172,0.0,6.4127,6.3515,6.42,0.0,0.0,6.4861,6.5264,6.5852,6.6856,6.7407,6.7407,6.7407,6.7407,6.7407,6.7187,6.6769,6.6182,6.5999,6.5264,6.4139,6.4714,6.4677,6.4103,6.4103,6.4103,6.4029,6.316,6.2793,6.2793,6.2793,6.2683,6.2499,6.2719,6.2536,6.2205,6.2205,6.1398,6.0382,6.015,6.0077,6.004,5.9869,5.938,5.9049,5.9857,6.0077,6.026,6.108,6.1887,6.2499,6.2499,6.2646,6.2793,6.2793,6.2793,6.2793,6.2793,6.2793,6.2793,6.2793,6.2793,6.3013,6.3686,6.3759,6.3392,6.2316,6.2205,6.2205,6.2205,6.2205,6.2279,6.2462,6.2499,6.2879,6.3723,6.3759,6.4053,6.4628,6.4884,6.5007,6.5007,6.5778,6.5888,6.5288,6.6512,6.6769,6.6219,6.6806,6.7187,5.5097,5.6381,5.7446,5.7886,5.7997,5.7923,5.7556,5.6859,5.6161,5.5831,5.484,0.0,5.4473,5.5207,0.0,0.0,0.0,0.0,6.2781,6.3625,6.4249,0.0,6.5338,0.0,6.4714,6.5338,6.5852,0.0,6.5852,6.6035,6.6476,6.726,6.77,6.77,6.77,6.77,6.77,6.77,6.748,6.704,6.6659,6.6035,6.5154,6.5264,6.5264,6.5118,0.0,6.4323,6.453,6.3306,6.2793,6.2793,6.2793,6.2793,6.2793,6.2793,6.2793,6.2793,6.2793,6.2205,6.1398,6.1043,6.0933,6.086,6.0529,6.0077,5.9893,6.0713,6.0933,6.1117,6.1924,6.2462,6.2793,6.2793,6.2793,6.2793,6.2793,6.2793,6.2793,6.2793,6.2793,6.2903,6.3306,6.3392,6.3649,6.4494,6.464,6.431,6.3466,6.3392,6.3392,6.3392,6.3392,6.349,6.3857,6.3894,6.4114,6.4604,6.464,6.4824,6.5288,6.5632,6.5852,6.5852,6.6623,6.6806,6.6366,6.726,6.748,6.7026,6.748,6.77,5.6748,5.7483,5.7997,5.7997,5.7923,5.7629,5.6811,5.5941,5.506,5.4252,0.0,5.205,5.2737,5.3618,5.4546,5.5438,0.0,6.0456,6.1594,6.3111,6.442,6.5362,6.6182,6.6402,6.5692,6.6256,6.6659,6.6659,6.6659,6.6659,6.6659,6.7333,6.77,6.77,6.77,6.77,6.77,6.77,6.77,6.77,6.7003,6.6586,6.6476,6.5778,6.5852,6.6402,0.0,0.0,6.5178,6.349,6.2793,6.2793,6.2793,6.2793,6.2793,6.2793,6.2793,6.2793,6.2793,6.2793,6.2683,6.1998,6.1741,6.163,6.0933,6.0627,6.075,6.152,6.1679,6.1777,6.2572,6.2793,6.2793,6.2793,6.2793,6.2829,6.2939,6.2976,6.2939,6.2829,6.2793,6.3086,6.3956,6.4103,6.442,6.5325,6.5472,6.5228,6.4494,6.4323,6.4213,6.4103,6.4213,6.453,6.5251,6.5288,6.5362,6.5435,6.5472,6.5508,6.5632,6.6292,6.6659,6.6659,6.7333,6.77,6.77,6.77,6.77,6.77,6.77,6.77,5.7556,5.7886,5.7997,5.7997,5.7483,5.6785,5.5989,5.4656,0.0,0.0,5.1683,5.1059,5.1196,5.2407,5.3885,5.5365,0.0,0.0,0.0,0.0,6.4653,0.0,0.0,0.0,0.0,0.0,0.0,0.0,0.0,6.748,6.748,6.7627,6.77,6.77,6.77,6.77,6.77,6.77,6.77,6.77,6.7554,6.715,6.6512,6.6366,6.6366,6.6402,6.48,0.0,6.5178,6.349,6.2793,6.2793,6.2793,6.2793,6.2793,6.2793,6.2793,6.2793,6.2793,6.2793,6.2793,6.2646,6.2572,6.2572,6.2426,6.1924,6.1557,6.2365,6.2108,6.1777,6.2572,6.2793,6.2793,6.2793,6.2793,6.3013,6.3723,6.387,6.3649,6.2939,6.2793,6.3086,6.3956,6.4103,6.4617,6.6072,6.6292,6.6256,6.6109,6.5521,6.4861,6.4176,6.4714,6.5141,6.5288,6.5288,6.5582,6.6256,6.6292,6.6586,6.726,6.7407,6.748,6.748,6.7627,6.77,6.77,6.77,6.77,6.77,6.77,6.77,5.7776,5.7997,5.7997,5.7997,5.7409,5.648,5.5244,0.0,0.0,0.0,5.0068,4.9517,4.9517,5.1169,0.0,0.0,0.0,0.0,0.0,0.0,0.0,0.0,0.0,0.0,0.0,0.0,0.0,0.0,0.0,6.77,6.77,6.77,6.77,6.77,6.77,6.77,6.77,6.77,6.77,6.77,6.77,6.7517,6.7113,6.6256,6.6109,6.6402,6.431,0.0,6.4567,6.3306,6.2793,6.2793,6.2793,6.2793,6.2793,6.2793,6.2793,6.2793,6.2793,6.2793,6.2793,6.2793,6.2793,6.2793,6.2793,6.2536,6.2291,6.2683,6.2499,6.2316,6.2683,6.2793,6.2793,6.2793,6.2793,6.2903,6.3319,6.3759,6.3992,6.3576,6.382,6.4371,6.5191,6.5338,6.5755,6.6966,6.71,6.6953,6.6549,6.6512,6.6219,6.5411,6.5705,6.6109,6.6512,6.6549,6.6696,6.7113,6.71,6.7297,6.7664,6.77,6.77,6.77,6.77,6.77,6.77,6.77,6.77,6.77,6.77,6.7921,5.7776,5.7997,5.7997,5.7997,5.7152,5.5893,5.4473,5.2747,0.0,0.0,4.8783,4.8296,4.8296,0.0,5.1583,0.0,5.495,0.0,0.0,0.0,0.0,0.0,0.0,0.0,0.0,0.0,0.0,0.0,0.0,0.0,6.77,6.77,6.77,6.77,6.77,6.77,6.77,6.77,6.77,6.77,6.77,6.77,6.7664,6.6219,6.5888,6.6366,6.4077,0.0,0.0,6.316,6.2793,6.2793,6.2793,6.2793,6.2793,6.2793,6.2793,6.2793,6.2793,6.2793,6.2793,6.2793,6.2793,6.2793,6.2793,6.2793,6.2793,6.2793,6.2793,6.2793,6.2793,6.2793,6.2793,6.2793,6.3086,6.3233,6.2866,6.3759,6.4506,6.4176,6.4751,6.5545,6.6366,6.6512,6.6769,6.759,6.77,6.748,6.6843,6.7297,6.748,6.6806,6.6769,6.699,6.7664,6.77,6.77,6.77,6.77,6.77,6.77,6.77,6.77,6.77,6.77,6.77,6.77,6.77,6.7811,6.7958,6.7958,6.8385,5.7776,5.7997,5.7997,5.7997,5.6308,5.4399,5.3508,0.0,0.0,4.86,4.837,4.8296,4.8296,4.9123,5.0308,0.0,0.0,5.5794,0.0,0.0,0.0,0.0,0.0,0.0,0.0,0.0,0.0,0.0,0.0,0.0,6.77,6.77,6.77,6.77,6.77,6.77,6.77,6.77,6.77,6.77,6.77,6.77,6.7664,6.6769,6.6439,6.6402,6.4714,0.0,0.0,6.316,6.2793,6.2793,6.2793,6.2793,6.2793,6.2793,6.2793,6.2793,6.2793,6.2793,6.2793,6.2793,6.2793,6.2793,6.2793,6.2793,6.2793,6.2793,6.2793,6.2793,6.2793,6.2793,6.2793,6.2793,6.3967,6.4664,6.3123,6.464,6.5852,6.4396,6.4751,6.5545,6.6366,6.6512,6.6769,6.759,6.77,6.7664,6.759,6.7664,6.7664,6.759,6.759,6.7627,6.77,6.77,6.77,6.77,6.77,6.77,6.77,6.77,6.77,6.77,6.77,6.77,6.77,6.77,6.8091,6.8788,6.8788,6.9229,5.6932,5.7629,5.7886,5.7409,5.5831,5.4069,5.2784,0.0,4.9344,4.8489,4.8296,4.8296,4.8296,4.9013,4.9978,0.0,5.3041,5.5207,5.7435,0.0,0.0,0.0,0.0,0.0,0.0,0.0,0.0,0.0,0.0,0.0,6.77,6.77,6.77,6.77,6.77,6.77,6.77,6.77,6.77,6.77,6.77,6.77,6.7664,6.688,6.6256,6.5705,6.4567,0.0,0.0,6.2939,6.2793,6.2793,6.2793,6.2793,6.2793,6.2793,6.2793,6.2793,6.2793,6.2793,6.2793,6.2793,6.2793,6.2793,6.2793,6.2793,6.2793,6.2793,6.2793,6.2793,6.2793,6.2793,6.2793,6.2793,6.371,6.4383,6.3723,6.5118,6.6292,6.5668,6.6182,6.6843,6.7187,6.7223,6.7333,6.7664,6.77,6.77,6.77,6.77,6.77,6.77,6.77,6.77,6.77,6.77,6.77,6.77,6.77,6.77,6.77,6.77,6.77,6.77,6.77,6.7958,6.8421,6.8421,6.8825,6.9633,6.9633,7.0036,5.5647,5.6675,5.7152,5.6602,5.506,5.3371,0.0,5.0555,4.905,4.8416,4.8296,4.8296,4.8296,4.9013,4.9858,0.0,5.2821,5.495,5.6554,5.9098,0.0,0.0,0.0,0.0,0.0,0.0,0.0,0.0,0.0,0.0,0.0,6.77,6.77,6.77,6.77,6.77,6.77,6.77,6.77,6.77,6.77,6.77,6.7664,6.688,6.6072,6.5251,0.0,0.0,0.0,6.2793,6.2793,6.2793,6.2793,6.2793,6.2793,6.2793,6.2793,6.2793,6.2793,6.2793,6.2793,6.2793,6.2793,6.2793,6.2793,6.2793,6.2793,6.2793,6.2793,6.2793,6.2793,6.2793,6.2793,6.2793,6.3466,6.4103,6.4103,6.5338,6.6512,6.6512,6.7136,6.77,6.77,6.77,6.77,6.77,6.77,6.77,6.77,6.77,6.77,6.77,6.77,6.77,6.77,6.77,6.77,6.77,6.77,6.77,6.77,6.77,6.7811,6.8054,6.8054,6.8458,6.9265,6.9265,6.9669,7.044,7.044,7.0881,5.3995,5.5023,5.5622,5.5622,5.3786,5.2024,5.1987,5.0105,4.8296,4.8296,4.8296,4.8296,4.8296,4.9013,4.9858,5.0655,5.2821,5.495,5.6554,5.9575,0.0,0.0,0.0,0.0,0.0,0.0,0.0,0.0,0.0,0.0,0.0,6.77,6.77,6.77,6.77,6.77,6.77,6.77,6.77,6.77,6.77,6.77,6.7664,6.688,6.6072,0.0,0.0,0.0,0.0,6.2793,6.2793,6.2793,6.2793,6.2793,6.2793,6.2793,6.2793,6.2793,6.2793,6.2793,6.2793,6.2793,6.2793,6.2793,6.2793,6.2793,6.2793,6.2793,6.2793,6.2793,6.2793,6.2793,6.2793,6.2793,6.3466,6.4103,6.4103,6.5338,6.6512,6.6512,6.7136,6.77,6.77,6.77,6.77,6.77,6.77,6.77,6.77,6.77,6.77,6.77,6.77,6.77,6.77,6.77,6.77,6.77,6.77,6.77,6.77,6.77,6.8054,6.8848,6.8898,6.9302,7.0073,7.0073,7.0513,7.1307,7.1307,7.1711,5.1646,5.2931,5.3849,5.3272,5.216,5.1022,5.0482,4.9297,4.8296,4.8296,4.8296,4.8296,4.8296,4.8967,4.9821,5.0655,5.2821,0.0,0.0,0.0,0.0,0.0,0.0,0.0,0.0,0.0,0.0,0.0,0.0,0.0,0.0,6.77,6.77,6.77,6.77,6.77,6.77,6.77,6.77,6.77,6.77,6.7407,6.688,6.6623,0.0,0.0,0.0,0.0,0.0,6.2793,6.2793,6.2793,6.2793,6.2793,6.2793,6.2793,6.2793,6.2793,6.2793,6.2793,6.2793,6.2793,6.2793,6.2793,6.2793,6.2793,6.2793,6.2793,6.2793,6.2793,6.2793,6.2793,6.2793,6.2793,6.3894,6.4934,6.4934,6.6182,6.7333,6.7333,6.7517,6.77,6.77,6.77,6.77,6.77,6.77,6.77,6.77,6.77,6.77,6.77,6.77,6.77,6.77,6.77,6.77,6.77,6.77,6.77,6.77,6.77,6.7811,6.8054,6.8091,6.8765,7.011,7.011,7.0807,7.2129,7.2129,7.2275,4.9104,5.0352,5.1232,5.0729,5.0215,4.9738,4.9224,4.8673,4.8296,4.8296,4.8296,4.8416,4.871,4.9444,5.0251,5.1132,5.3261,0.0,0.0,0.0,0.0,0.0,0.0,0.0,0.0,0.0,0.0,0.0,0.0,0.0,0.0,6.77,6.77,6.77,6.77,6.77,6.77,6.77,6.77,6.77,6.7407,6.699,6.6476,6.5852,0.0,0.0,0.0,0.0,0.0,6.2793,6.2793,6.2793,6.2793,6.2793,6.2793,6.2793,6.2793,6.2793,6.2793,6.2793,6.2793,6.2793,6.2793,6.2793,6.2793,6.2793,6.2793,6.2793,6.2793,6.2793,6.2793,6.2793,6.2793,6.2793,6.3857,6.4934,6.5215,6.6329,6.7333,6.7627,6.77,6.77,6.77,6.77,6.77,6.77,6.77,6.77,6.77,6.77,6.77,6.77,6.77,6.77,6.77,6.77,6.77,6.77,6.77,6.77,6.77,6.77,6.7994,6.8582,6.8618,6.9376,7.0991,7.0991,7.1505,7.2496,7.2496,7.2496,0.0,4.7489,4.815,4.8186,4.8223,4.8223,4.8296,4.8296,0.0,4.8296,4.8296,4.8563,4.9454,5.0261,5.1096,5.195,0.0,0.0,0.0,0.0,0.0,0.0,0.0,0.0,0.0,0.0,0.0,0.0,0.0,0.0,6.77,6.77,6.77,6.77,6.77,6.77,6.77,6.77,6.77,6.77,6.688,6.6476,6.6366,6.4787,0.0,0.0,0.0,0.0,0.0,6.2793,6.2793,6.2793,6.2793,6.2793,6.2793,6.2793,6.2793,6.2793,6.2793,6.2793,6.2793,6.2793,6.2793,6.2793,6.2793,6.2793,6.2793,6.2793,6.2793,6.2793,6.2793,6.2793,6.2793,6.2793,6.3503,6.4383,6.5141,6.5999,6.6806,6.7554,6.77,6.77,6.77,6.77,6.77,6.77,6.77,6.77,6.77,6.77,6.77,6.77,6.77,6.77,6.77,6.77,6.77,6.77,6.77,6.77,6.77,6.77,6.8398,6.9889,7.0036,7.0844,7.2422,7.2459,7.2496,7.2496,7.2496,7.2496,4.4232,0.0,4.6617,4.7232,4.7369,4.7553,0.0,4.8296,4.8296,4.8296,0.0,4.8563,4.9454,5.0261,5.1279,0.0,0.0,0.0,0.0,0.0,0.0,0.0,0.0,0.0,0.0,0.0,0.0,0.0,0.0,6.77,6.77,6.77,6.77,6.77,6.77,6.77,6.77,6.77,6.77,6.77,6.688,6.6182,6.5545,6.453,0.0,0.0,0.0,0.0,6.2793,6.2793,6.2793,6.2793,6.2793,6.2793,6.2793,6.2793,6.2793,6.2793,6.2793,6.2793,6.2793,6.2793,6.2793,6.2793,6.2793,6.2793,6.2793,6.2793,6.2793,6.2793,6.2793,6.2793,6.2793,6.2793,6.393,6.5081,6.5251,6.6402,6.748,6.7664,6.77,6.77,6.77,6.77,6.77,6.77,6.77,6.77,6.77,6.77,6.77,6.77,6.77,6.77,6.77,6.77,6.77,6.77,6.77,6.77,6.77,6.77,6.7884,6.8251,6.9463,7.0587,7.1564,7.2202,7.2496,7.2496,7.2496,7.2496,4.3938,4.4709,4.5434,4.5911,4.6278,4.6645,4.7095,4.7489,0.0,0.0,0.0,4.8673,4.9931,5.0816,0.0,0.0,0.0,0.0,0.0,0.0,0.0,0.0,0.0,0.0,0.0,0.0,0.0,0.0,0.0,6.7136,6.7136,6.7517,6.77,6.77,6.77,6.77,6.77,6.77,6.77,6.77,6.6512,6.5742,6.5251,6.4053,6.3246,0.0,0.0,0.0,6.2793,6.2793,6.2793,6.2793,6.2793,6.2793,6.2793,6.2793,6.2793,6.2793,6.2793,6.2793,6.2793,6.2793,6.2793,6.2793,6.2793,6.2793,6.2793,6.2793,6.2793,6.2793,6.2793,6.2793,6.2903,6.3319,6.4371,6.5398,6.5765,6.6806,6.77,6.77,6.77,6.77,6.77,6.77,6.77,6.77,6.77,6.77,6.77,6.77,6.77,6.77,6.77,6.77,6.77,6.77,6.77,6.77,6.77,6.77,6.77,6.77,6.7884,6.8238,6.9816,7.0866,7.1307,7.2114,7.2496,7.2496,7.2496,7.2496,4.448,4.4773,4.492,4.503,4.5581,4.6104,4.6269,0.0,0.0,0.0,0.0,0.0,0.0,5.1661,0.0,0.0,0.0,0.0,0.0,0.0,0.0,0.0,0.0,0.0,0.0,0.0,0.0,0.0,0.0,6.6329,6.6329,6.6966,6.7333,6.7333,6.7333,6.7333,6.7333,6.759,6.7627,6.7517,6.5999,6.5251,6.5081,6.349,6.2793,6.2793,0.0,0.0,6.2793,6.2793,6.2793,6.2793,6.2793,6.2793,6.2793,6.2793,6.2793,6.2793,6.2793,6.2793,6.2793,6.2793,6.2793,6.2793,6.2793,6.2793,6.2793,6.2793,6.2793,6.2793,6.2793,6.2793,6.2976,6.3723,6.453,6.5338,6.6145,6.6953,6.7554,6.7664,6.77,6.77,6.77,6.77,6.77,6.77,6.77,6.77,6.77,6.77,6.77,6.77,6.77,6.77,6.77,6.77,6.77,6.77,6.77,6.77,6.77,6.77,6.8091,6.8898,7.0353,7.1197,7.1307,7.2114,7.2496,7.2496,7.2496,7.2496,4.448,4.5214,4.5883,4.6562,4.6819,4.7104,4.7932,0.0,0.0,0.0,0.0,0.0,0.0,0.0,0.0,0.0,0.0,0.0,0.0,0.0,0.0,0.0,0.0,0.0,0.0,0.0,0.0,0.0,0.0,0.0,6.5472,6.5582,6.5668,6.5668,6.5668,6.5668,6.5668,6.704,6.737,6.6659,6.5729,6.4934,6.4237,6.3233,6.2793,6.2793,0.0,6.2793,6.2793,6.2793,6.2793,6.2793,6.2793,6.2793,6.2793,6.2793,6.2793,6.2793,6.2793,6.2793,6.2793,6.2793,6.2793,6.2793,6.2793,6.2793,6.2793,6.2793,6.2793,6.2793,6.2793,6.2793,6.2829,6.2976,6.3649,6.4494,6.5301,6.6109,6.688,6.759,6.77,6.77,6.77,6.77,6.77,6.77,6.77,6.77,6.77,6.77,6.77,6.77,6.77,6.77,6.77,6.77,6.77,6.77,6.77,6.77,6.77,6.77,6.8091,6.8898,6.9816,7.0624,7.1307,7.2114,7.2496,7.2496,7.2496,7.2496,4.4412,4.5412,4.6359,4.7546,4.7537,4.7473,4.8449,0.0,0.0,0.0,0.0,0.0,0.0,0.0,0.0,0.0,0.0,0.0,0.0,0.0,0.0,0.0,0.0,0.0,0.0,0.0,0.0,0.0,0.0,0.0,6.464,6.5081,6.5288,6.5288,6.5288,6.5288,6.5288,6.6035,6.6219,6.5852,6.5044,6.4457,6.4066,6.3209,6.2793,6.2793,0.0,6.2793,6.2793,6.2793,6.2793,6.2793,6.2793,6.2793,6.2793,6.2793,6.2793,6.2793,6.2793,6.2793,6.2793,6.2793,6.2793,6.2793,6.2793,6.2793,6.2793,6.2793,6.2793,6.2793,6.2793,6.2793,6.2903,6.3392,6.4127,6.4971,6.5778,6.6586,6.726,6.7627,6.77,6.77,6.77,6.77,6.77,6.77,6.77,6.77,6.77,6.77,6.77,6.77,6.77,6.77,6.77,6.77,6.77,6.77,6.77,6.77,6.77,6.77,6.8091,6.8898,6.9706,7.0513,7.1307,7.2114,7.2496,7.2496,7.2496,7.2496,4.4422,4.5568,4.6589,4.7969,0.0,4.7792,4.9251,0.0,0.0,0.0,0.0,0.0,0.0,0.0,0.0,0.0,0.0,0.0,0.0,0.0,0.0,0.0,0.0,0.0,0.0,0.0,0.0,0.0,0.0,0.0,6.3796,6.4383,6.4701,6.4701,6.4701,6.4701,6.4701,6.4701,6.4811,6.5007,6.4383,6.3992,6.3759,6.3086,6.2793,6.2793,6.2793,6.2793,6.2793,6.2793,6.2793,6.2793,6.2793,6.2793,6.2793,6.2793,6.2793,6.2793,6.2793,6.2793,6.2793,6.2793,6.2793,6.2793,6.2793,6.2793,6.2793,6.2793,6.2793,6.2793,6.2793,6.2793,6.2976,6.3649,6.4273,6.4921,6.5742,6.6549,6.7187,6.737,6.759,6.77,6.77,6.77,6.77,6.77,6.77,6.77,6.77,6.77,6.77,6.77,6.77,6.77,6.77,6.77,6.77,6.77,6.77,6.77,6.77,6.77,6.7994,6.8605,6.9596,7.0403,7.1013,7.2018,7.2496,7.2496,7.2496,7.2496,4.4597,4.5754,4.6698,4.762,4.7789,0.0,5.1244,5.1272,0.0,5.3549,0.0,0.0,0.0,0.0,0.0,0.0,0.0,0.0,0.0,0.0,0.0,0.0,0.0,0.0,0.0,0.0,0.0,0.0,0.0,0.0,6.2903,6.2939,6.2976,6.2976,6.2976,6.2976,6.2976,6.2976,6.3392,6.4213,6.4139,6.3686,6.2903,6.2829,6.2793,6.2793,6.2793,6.2793,6.2793,6.2793,6.2793,6.2793,6.2793,6.2793,6.2793,6.2793,6.2793,6.2793,6.2793,6.2793,6.2793,6.2793,6.2793,6.2793,6.2793,6.2793,6.2793,6.2793,6.2793,6.2793,6.2793,6.2793,6.2829,6.2866,6.2939,6.3233,6.409,6.4897,6.5692,6.6439,6.7187,6.77,6.77,6.77,6.77,6.77,6.77,6.77,6.77,6.77,6.77,6.77,6.77,6.77,6.77,6.77,6.77,6.77,6.77,6.77,6.77,6.77,6.7737,6.7811,6.9316,7.011,7.0183,7.1725,7.2496,7.2496,7.2496,7.2496,4.3392,4.5197,4.6889,4.7814,4.8573,0.0,0.0,5.2593,5.3058,5.5852,0.0,0.0,0.0,0.0,0.0,0.0,0.0,0.0,0.0,0.0,0.0,0.0,0.0,0.0,0.0,0.0,0.0,0.0,0.0,0.0,0.0,6.2793,6.2793,6.2793,6.2793,6.2793,6.2793,6.2793,6.2976,6.3282,6.3282,6.3123,6.2793,6.2793,6.2793,6.2793,6.2793,6.2793,6.2793,6.2793,6.2793,6.2793,6.2793,6.2793,6.2793,6.2793,6.2793,6.2793,6.2793,6.2793,6.2793,6.2793,6.2793,6.2793,6.2793,6.2793,6.2793,6.2793,6.2793,6.2793,6.2793,6.2793,6.2793,6.2793,6.3196,6.3686,6.4029,6.4714,6.5545,6.6329,6.6733,6.7113,6.7627,6.77,6.77,6.77,6.77,6.77,6.77,6.77,6.77,6.77,6.77,6.77,6.77,6.77,6.77,6.77,6.77,6.77,6.77,6.77,6.7958,6.8458,6.9522,7.033,7.083,7.1982,7.2496,7.2496,7.2496,7.2496,4.3028,4.511,4.7071,4.7766,0.0,0.0,5.344,5.3942,5.4669,5.7439,0.0,0.0,0.0,0.0,0.0,0.0,0.0,0.0,0.0,0.0,0.0,0.0,0.0,0.0,0.0,0.0,0.0,0.0,0.0,0.0,0.0,6.2793,6.2793,6.2793,6.2793,6.2793,6.2793,6.2793,6.2793,6.2793,6.2793,6.2793,6.2793,6.2793,6.2793,6.2793,6.2793,6.2793,6.2793,6.2793,6.2793,6.2793,6.2793,6.2793,6.2793,6.2793,6.2793,6.2793,6.2793,6.2793,6.2793,6.2793,6.2793,6.2793,6.2793,6.2793,6.2793,6.2793,6.2793,6.2793,6.2793,6.2793,6.2793,6.2793,6.3282,6.3686,6.3686,6.4347,6.5081,6.5632,6.5962,6.6292,6.6843,6.6953,6.6953,6.6953,6.715,6.7333,6.7333,6.7554,6.77,6.77,6.77,6.77,6.77,6.77,6.77,6.77,6.77,6.77,6.77,6.77,6.7958,6.8495,6.9559,7.0367,7.0903,7.1982,7.2496,7.2496,7.2496,7.2496,4.389,4.5768,4.7192,0.0,0.0,0.0,5.4632,5.5455,5.6213,0.0,0.0,0.0,0.0,0.0,0.0,0.0,0.0,0.0,0.0,0.0,0.0,0.0,0.0,0.0,0.0,0.0,0.0,0.0,0.0,0.0,0.0,6.2793,6.2793,6.2793,6.2793,6.2793,6.2793,6.2793,6.2793,6.2793,6.2793,6.2793,6.2793,6.2793,6.2793,6.2793,6.2793,6.2793,6.2793,6.2793,6.2793,6.2793,6.2793,6.2793,6.2793,6.2793,6.2793,6.2793,6.2793,6.2793,6.2793,6.2793,6.2793,6.2793,6.2793,6.2793,6.2793,6.2793,6.2793,6.2793,6.2793,6.2793,6.2793,6.2793,6.2793,6.2793,6.2793,6.3466,6.4103,6.4103,6.4751,6.5288,6.5288,6.5288,6.5288,6.5288,6.5999,6.6476,6.6476,6.7187,6.77,6.77,6.77,6.77,6.77,6.77,6.77,6.77,6.77,6.77,6.77,6.77,6.77,6.77,6.9279,7.0073,7.011,7.1725,7.2496,7.2496,7.2496,7.2496,4.3222,4.4971,0.0,0.0,0.0,0.0,0.0,5.5847,0.0,0.0,0.0,0.0,0.0,0.0,0.0,0.0,0.0,0.0,0.0,0.0,0.0,0.0,0.0,0.0,0.0,0.0,0.0,0.0,0.0,0.0,0.0,6.2793,6.2793,6.2793,6.2793,6.2793,6.2793,6.2793,6.2793,6.2793,6.2793,6.2793,6.2793,6.2793,6.2793,6.2793,6.2793,6.2793,6.2793,6.2793,6.2793,6.2793,6.2793,6.2793,6.2793,6.2793,6.2793,6.2793,6.2793,6.2793,6.2793,6.2793,6.2793,6.2793,6.2793,6.2793,6.2793,6.2793,6.2793,6.2793,6.2793,6.2793,6.2793,6.2793,6.2793,6.2793,6.2793,6.3013,6.3356,6.3992,6.4273,6.464,6.5178,6.5288,6.5288,6.5288,6.5508,6.5655,6.5655,6.6366,6.6843,6.6843,6.737,6.77,6.77,6.77,6.77,6.77,6.77,6.77,6.77,6.77,6.77,6.77,6.8715,6.9522,7.011,7.116,7.1931,7.2496,7.2496,7.2496,4.3713,4.5502,0.0,0.0,0.0,0.0,0.0,0.0,0.0,0.0,0.0,0.0,0.0,0.0,0.0,0.0,0.0,0.0,0.0,0.0,0.0,0.0,0.0,0.0,0.0,0.0,0.0,0.0,0.0,0.0,0.0,6.2132,6.2328,6.2328,6.2646,6.2793,6.2793,6.2793,6.2646,6.2328,6.2328,6.2169,6.1875,6.2499,6.2793,6.2793,6.2793,6.2793,6.2793,6.2793,6.2793,6.2793,6.2793,6.2793,6.2756,6.2426,6.2536,6.2756,6.2426,6.2536,6.2793,6.2793,6.2793,6.2793,6.2793,6.2793,6.2793,6.2793,6.2793,6.2793,6.2793,6.2793,6.2793,6.2793,6.2793,6.2793,6.2793,6.2793,6.2976,6.3466,6.3576,6.3759,6.4224,6.4297,6.4297,6.4297,6.4604,6.4934,6.5251,6.5999,6.6512,6.6512,6.7223,6.77,6.77,6.77,6.77,6.77,6.77,6.77,6.77,6.77,6.77,6.77,6.8495,6.9155,6.9633,7.0756,7.1564,7.2041,7.2349,7.2496,4.4837,0.0,0.0,0.0,0.0,0.0,0.0,0.0,0.0,0.0,0.0,0.0,0.0,0.0,0.0,0.0,0.0,0.0,0.0,0.0,0.0,0.0,0.0,0.0,0.0,0.0,0.0,0.0,0.0,0.0,0.0,6.108,6.1496,6.1496,6.2205,6.2572,6.2572,6.2572,6.2205,6.1496,6.1496,6.1117,6.0456,6.1912,6.2609,6.2683,6.2683,6.2719,6.2793,6.2793,6.2793,6.2793,6.2793,6.2756,6.2609,6.1851,6.2071,6.2572,6.1851,6.2144,6.2793,6.2793,6.2793,6.2793,6.2793,6.2793,6.2793,6.2793,6.2793,6.2793,6.2793,6.2793,6.2793,6.2793,6.2793,6.2793,6.2793,6.2793,6.2793,6.2793,6.2793,6.2793,6.2793,6.2793,6.2793,6.2793,6.3466,6.4237,6.4995,6.5778,6.6292,6.6292,6.7076,6.759,6.759,6.7664,6.77,6.77,6.77,6.77,6.77,6.77,6.77,6.77,6.8421,6.8825,6.8885,7.0353,7.116,7.1307,7.1967,7.2349,0.0,4.6553,0.0,0.0,0.0,0.0,0.0,0.0,0.0,0.0,0.0,0.0,0.0,0.0,0.0,0.0,0.0,0.0,0.0,0.0,0.0,0.0,0.0,0.0,0.0,0.0,0.0,0.0,0.0,0.0,6.0382,6.0566,6.0676,6.0676,6.0811,6.0933,6.0933,6.0933,6.0811,0.0,6.0676,6.0566,6.0419,6.075,6.1263,6.1851,6.1851,6.2218,6.2793,6.2793,6.2793,6.2793,6.2793,6.2389,6.1851,6.1667,6.1704,6.1814,6.1667,6.2144,6.2793,6.2793,6.2793,6.2793,6.2793,6.2793,6.2793,6.2793,6.2793,6.2793,6.2793,6.2793,6.2793,6.2793,6.2793,6.2793,6.2793,6.2793,6.2793,6.2793,6.2793,6.2793,6.2793,6.2793,6.2793,6.2793,6.2976,6.3123,6.3306,6.409,6.4617,6.4617,6.5888,6.6769,6.6769,6.7333,6.77,6.77,6.77,6.77,6.77,6.77,6.77,6.77,6.7884,6.8274,6.8885,6.9252,7.0059,7.1307,7.0844,7.1284,0.0,0.0,0.0,0.0,0.0,0.0,0.0,0.0,0.0,0.0,0.0,0.0,0.0,0.0,0.0,0.0,0.0,0.0,0.0,0.0,0.0,0.0,0.0,0.0,0.0,0.0,0.0,0.0,0.0,5.8804,5.9245,5.96,5.982,5.982,6.0187,6.0419,6.0419,6.0419,6.0224,5.982,5.982,5.96,5.9281,6.0052,6.0639,6.1043,6.1043,6.1263,6.1655,6.1655,6.1655,6.1655,6.1655,6.141,6.097,6.0603,6.0676,6.097,6.0566,6.0958,6.1655,6.1655,6.1912,6.2218,6.2218,6.2499,6.2793,6.2793,6.2793,6.2793,6.2793,6.2793,6.2793,6.2793,6.2793,6.2793,6.2793,6.2793,6.2793,6.2793,6.2793,6.2793,6.2793,6.2793,6.2793,6.2793,6.2793,6.2793,6.2793,6.3906,6.453,6.4139,6.5521,6.6512,6.6512,6.688,6.7297,6.7664,6.77,6.77,6.77,6.77,6.77,6.77,6.77,6.7921,6.8311,6.8715,6.9325,7.0132,7.011,7.055,0.0,0.0,0.0,0.0,0.0,0.0,0.0,0.0,0.0,0.0,0.0,0.0,0.0,0.0,0.0,0.0,0.0,0.0,0.0,0.0,0.0,0.0,0.0,0.0,0.0,0.0,0.0,0.0,0.0,5.7997,5.7997,5.8609,5.8976,5.8976,5.9636,5.9979,5.9979,5.9979,5.9636,5.8976,5.8976,5.8646,5.8033,5.9391,6.004,6.0187,6.0187,6.026,6.0419,6.0419,6.0419,6.0419,6.0566,6.0456,6.0114,5.96,5.9747,6.0114,5.9416,5.9747,6.0419,6.0419,6.086,6.1374,6.1374,6.1961,6.2572,6.2572,6.2683,6.2756,6.2646,6.2572,6.2572,6.2572,6.2572,6.2646,6.2756,6.2793,6.2793,6.2793,6.2793,6.2793,6.2793,6.2793,6.2793,6.2793,6.2793,6.2793,6.2793,6.4004,6.4591,6.3943,6.5191,6.6145,6.6292,6.6402,6.6843,6.7664,6.77,6.77,6.77,6.77,6.77,6.77,6.77,6.77,6.77,6.8385,6.8752,6.8898,6.9449,6.9816,0.0,0.0,0.0,0.0,0.0,0.0,0.0,0.0,0.0,0.0,0.0,0.0,0.0,0.0,0.0,0.0,0.0,0.0,0.0,0.0,0.0,0.0,0.0,0.0,0.0,0.0,0.0,0.0,5.7997,5.7997,5.7997,5.8107,5.8143,5.8143,5.8253,5.8327,5.8327,5.8327,5.8253,5.8143,5.8143,5.8107,5.7997,5.8217,5.8694,5.938,5.938,5.9747,6.0419,6.0419,6.0419,6.0456,6.1153,6.0603,5.9416,6.0003,5.9857,5.9343,5.9233,5.9747,6.0419,6.0419,6.0456,6.0566,6.0566,6.1117,6.1741,6.1741,6.2254,6.2646,6.1924,6.1741,6.1741,6.1741,6.1741,6.1961,6.2646,6.2793,6.2793,6.2793,6.2793,6.2793,6.2793,6.2793,6.2793,6.2793,6.2793,6.2793,6.2793,6.3013,6.3086,6.2976,6.3833,6.4714,6.5398,6.6109,6.6843,6.7664,6.77,6.77,6.77,6.77,6.77,6.77,6.77,6.77,6.77,6.7811,6.8201,6.8898,6.8311,6.8765,4.4332,4.768,0.0,0.0,0.0,0.0,0.0,0.0,0.0,0.0,0.0,0.0,0.0,0.0,0.0,0.0,0.0,0.0,0.0,0.0,0.0,0.0,0.0,0.0,0.0,0.0,0.0,0.0,5.7997,5.7997,5.7997,5.7997,5.7997,5.7997,5.7997,5.7997,5.7997,5.7997,5.7997,5.7997,5.7997,5.7997,5.7997,5.7997,5.818,5.8547,5.8547,5.8731,5.9061,5.9061,5.9061,5.9098,5.9428,5.9134,5.8584,5.8914,5.8841,5.8547,5.8547,5.8767,5.9061,5.9061,5.9355,5.9747,5.9747,6.0309,6.0933,6.0933,6.119,6.1361,6.1006,6.0933,6.0933,6.0933,6.1263,6.1704,6.2034,6.2462,6.2793,6.2793,6.2793,6.2793,6.2793,6.2793,6.2793,6.2793,6.2793,6.2793,6.2793,6.3246,6.3356,6.2866,6.3576,6.4249,6.4604,6.5375,6.6182,6.699,6.7026,6.7223,6.7664,6.726,6.726,6.77,6.77,6.77,6.77,6.77,6.7884,6.8201,6.7847,6.8068,0.0,0.0,0.0,0.0,0.0,0.0,0.0,0.0,0.0,0.0,0.0,0.0,0.0,0.0,0.0,0.0,0.0,0.0,0.0,0.0,0.0,0.0,0.0,0.0,0.0,0.0,0.0,0.0,5.7997,5.7997,5.7997,5.7997,5.7997,5.7997,5.7997,5.7997,5.7997,5.7997,5.7997,5.7997,5.7997,5.7997,5.7997,5.7997,5.7997,5.7997,5.7997,5.7997,5.7997,5.7997,5.7997,5.8033,5.8217,5.818,5.8033,5.8217,5.818,5.7997,5.7997,5.7997,5.7997,5.7997,5.84,5.8902,5.8902,5.9453,6.0114,6.0114,6.0224,6.0346,6.015,6.0114,6.0114,6.0114,6.0566,6.1153,6.1777,6.2401,6.2793,6.2793,6.2793,6.2793,6.2793,6.2793,6.2793,6.2793,6.2793,6.2793,6.2793,6.3356,6.3503,6.2866,6.3392,6.387,6.4066,6.464,6.5338,6.6145,6.6219,6.6476,6.7076,6.6696,6.6769,6.737,6.759,6.77,6.77,6.77,6.77,6.77,6.77,6.77,0.0,0.0,0.0,0.0,0.0,0.0,0.0,0.0,0.0,0.0,0.0,0.0,0.0,0.0,0.0,0.0,0.0,0.0,0.0,0.0,0.0,0.0,0.0,0.0,0.0,0.0,0.0,0.0,5.7997,5.7997,5.7997,5.7997,5.7997,5.7997,5.7997,5.7997,5.7997,5.7997,5.7997,5.7997,5.7997,5.7997,5.7997,5.7997,5.7997,5.7997,5.7997,5.7997,5.7997,5.7997,5.7997,5.807,5.8829,5.8682,5.8107,5.8866,5.8646,5.7997,5.7997,5.7997,5.7997,5.7997,5.8033,5.807,5.807,5.8609,5.9269,5.9269,5.982,6.0224,5.9453,5.9269,5.9269,5.9269,5.9306,5.9967,6.2242,6.2756,6.2793,6.2793,6.2793,6.2793,6.2793,6.2793,6.2793,6.2793,6.2793,6.2793,6.2793,6.2829,6.2866,6.2793,6.2829,6.3209,6.4029,6.4139,6.4494,6.5288,6.5362,6.5362,6.5398,6.6109,6.6512,6.6549,6.7297,6.77,6.77,6.77,6.77,6.77,6.77,6.77,0.0,0.0,0.0,0.0,0.0,0.0,0.0,0.0,0.0,0.0,0.0,0.0,0.0,0.0,0.0,0.0,0.0,0.0,0.0,0.0,0.0,0.0,0.0,0.0,0.0,0.0,0.0,0.0,0.0,5.7997,5.7997,5.7997,5.7997,5.7997,5.7997,5.7997,5.7997,5.7997,5.7997,5.7997,5.7997,5.7997,5.7997,5.7997,5.7997,5.7997,5.7997,5.7997,5.7997,5.7997,5.7997,5.8033,5.8327,5.8253,5.8033,5.8327,5.8253,5.7997,5.7997,5.7997,5.7997,5.7997,5.7997,5.7997,5.7997,5.8217,5.8437,5.8437,5.8657,5.8804,5.851,5.8437,5.8547,5.9086,5.9196,5.96,6.0958,6.2059,6.2793,6.2793,6.2793,6.2793,6.2793,6.2793,6.2793,6.2793,6.2793,6.2793,6.2793,6.2793,6.2793,6.2793,6.2793,6.2939,6.3233,6.3759,6.4213,6.4494,6.453,6.4751,6.5288,6.5081,6.5191,6.5742,6.5999,6.6659,6.77,6.77,6.77,6.77,6.77,6.77,4.1318,0.0,0.0,0.0,0.0,0.0,0.0,0.0,0.0,0.0,0.0,0.0,0.0,0.0,0.0,0.0,0.0,0.0,0.0,0.0,0.0,0.0,0.0,0.0,0.0,0.0,0.0,0.0,0.0,0.0,5.7997,5.7997,5.7997,5.7997,5.7997,5.7997,5.7997,5.7997,5.7997,5.7997,5.7997,5.7997,5.7997,5.7997,5.7997,5.7997,5.7997,5.7997,5.7997,5.7997,5.7997,5.7997,5.7997,5.7997,5.7997,5.7997,5.7997,5.7997,5.7997,5.7997,5.7997,5.7997,5.7997,5.7997,5.7997,5.7997,5.7997,5.7997,5.7997,5.7997,5.7997,5.7997,5.8143,5.8682,5.9013,5.9343,5.9893,6.1251,6.2401,6.2401,6.2609,6.2793,6.2793,6.2793,6.2793,6.2793,6.2793,6.2793,6.2793,6.2793,6.2793,6.2793,6.2793,6.2793,6.2793,6.3319,6.3649,6.3649,6.3649,6.3906,6.4444,6.4237,6.436,6.4897,6.5141,6.5852,6.688,6.7187,6.7444,6.77,6.7407,6.7297,0.0,0.0,0.0,0.0,0.0,0.0,0.0,0.0,0.0,0.0,0.0,0.0,0.0,0.0,0.0,0.0,0.0,0.0,0.0,0.0,0.0,0.0,0.0,0.0,0.0,0.0,0.0,0.0,5.7997,5.7997,5.7997,5.7997,5.7997,5.7997,5.7997,5.7997,5.7997,5.7997,5.7997,5.7997,5.7997,5.7997,5.7997,5.7997,5.7997,5.7997,5.7997,5.7997,5.7997,5.7997,5.7997,5.7997,5.7997,5.7997,5.7997,5.7997,5.7997,5.7997,5.7997,5.7997,5.7997,5.7997,5.7997,5.7997,5.7997,5.7997,5.7997,5.7997,5.7997,5.7997,5.7997,5.7997,5.7997,5.7997,5.8609,5.9148,5.9148,6.0419,6.152,6.1557,6.2218,6.2756,6.2756,6.2756,6.2756,6.2793,6.2793,6.2793,6.2793,6.2793,6.2793,6.2793,6.2793,6.2793,6.2793,6.2793,6.2793,6.2793,6.2793,6.2793,6.2793,6.3613,6.4066,6.4066,6.4824,6.5251,6.5251,6.6072,6.688,6.7627,6.6843,6.6476,4.0106,0.0,0.0,0.0,0.0,0.0,0.0,0.0,0.0,0.0,0.0,0.0,0.0,0.0,0.0,0.0,0.0,0.0,0.0,0.0,0.0,0.0,0.0,0.0,0.0,0.0,0.0,0.0,5.7997,5.7997,5.7997,5.7997,5.7997,5.7997,5.7997,5.7997,5.7997,5.7997,5.7997,5.7997,5.7997,5.7997,5.7997,5.7997,5.7997,5.7997,5.7997,5.7997,5.7997,5.7997,5.7997,5.7997,5.7997,5.7997,5.7997,5.7997,5.7997,5.7997,5.7997,5.7997,5.7997,5.7997,5.7997,5.7997,5.7997,5.7997,5.7997,5.7997,5.7997,5.7997,5.7997,5.7997,5.7997,5.7997,5.818,5.8327,5.8327,5.9123,6.004,6.0639,6.0921,6.1263,6.1814,6.1924,6.2144,6.2719,6.2793,6.2793,6.2793,6.2793,6.2793,6.2793,6.2793,6.2793,6.2793,6.2793,6.2793,6.2793,6.2793,6.2793,6.2793,6.3013,6.316,6.316,6.338,6.3796,6.442,6.5228,6.5742,6.5962,6.5729,6.5618,0.0,0.0,0.0,0.0,0.0,0.0,0.0,4.7034,0.0,0.0,0.0,0.0,0.0,0.0,0.0,0.0,0.0,0.0,0.0,0.0,0.0,0.0,0.0,0.0,0.0,5.7226,5.7629,5.796,5.7997,5.7997,5.7997,5.7997,5.7997,5.7997,5.7997,5.7997,5.7997,5.7997,5.7997,5.7997,5.7997,5.7997,5.7997,5.7997,5.7997,5.7997,5.7997,5.7997,5.7997,5.7997,5.7997,5.7997,5.7997,5.7997,5.7997,5.7997,5.7997,5.7997,5.7997,5.7997,5.7997,5.7997,5.7997,5.7997,5.7997,5.7997,5.7997,5.7997,5.7997,5.7997,5.7997,5.7997,5.7997,5.7997,5.7997,5.7997,5.7997,5.8364,5.8939,5.9747,6.015,6.0566,6.1006,6.1374,6.1741,6.2218,6.2572,6.2793,6.2793,6.2793,6.2793,6.2793,6.2793,6.2793,6.2793,6.2793,6.2793,6.2793,6.2793,6.2793,6.2793,6.2793,6.2793,6.2793,6.2793,6.305,6.3576,6.4383,6.4787,6.4787,6.4787,6.4787,0.0,0.0,0.0,0.0,0.0,0.0,4.5193,4.5632,0.0,0.0,0.0,0.0,0.0,0.0,0.0,0.0,0.0,0.0,0.0,0.0,0.0,0.0,0.0,0.0,5.6444,5.659,5.6969,5.7666,5.7813,5.7886,5.7886,5.796,5.7997,5.7997,5.7997,5.7997,5.7997,5.7997,5.7997,5.7997,5.7997,5.7997,5.7997,5.7997,5.7997,5.7997,5.7997,5.7997,5.7997,5.7997,5.7997,5.7997,5.7997,5.7997,5.7997,5.7997,5.7997,5.7997,5.7997,5.7997,5.7997,5.7997,5.7997,5.7997,5.7997,5.7997,5.7997,5.7997,5.7997,5.7997,5.7997,5.7997,5.7997,5.7997,5.7997,5.7997,5.7997,5.7997,5.8217,5.8939,5.9636,6.0162,6.026,6.086,6.1374,6.1447,6.2144,6.2683,6.2683,6.2756,6.2793,6.2793,6.2793,6.2756,6.2683,6.2756,6.2756,6.2683,6.2756,6.2793,6.2793,6.2793,6.2793,6.2793,6.2793,6.2793,6.2793,6.3576,6.3943,6.3943,6.3943,6.3943,4.1171,4.1807,4.2343,0.0,0.0,0.0,0.0,4.4438,0.0,0.0,0.0,0.0,0.0,0.0,0.0,0.0,0.0,0.0,0.0,0.0,0.0,0.0,0.0,0.0,5.484,5.5464,5.5915,5.6062,5.6675,5.7031,5.7031,5.7666,5.7997,5.7997,5.7997,5.7997,5.7997,5.7997,5.7997,5.7997,5.7997,5.7997,5.7997,5.7997,5.7997,5.7997,5.7997,5.7997,5.7997,5.7997,5.7997,5.7997,5.7997,5.7997,5.7997,5.7997,5.7997,5.7997,5.7997,5.7997,5.7997,5.7997,5.7997,5.7997,5.7997,5.7997,5.7997,5.7997,5.7997,5.7997,5.7997,5.7997,5.7997,5.7997,5.7997,5.7997,5.7997,5.7997,5.8033,5.8217,5.8364,5.8657,5.9306,5.9563,5.9893,6.0529,6.1337,6.1814,6.1814,6.2401,6.2793,6.2793,6.2793,6.2536,6.1887,6.2438,6.2499,6.1887,6.2426,6.2793,6.2793,6.2793,6.2793,6.2793,6.2793,6.2793,6.2793,6.2976,6.305,6.305,6.305,6.305,0.0,0.0,4.2741,4.3185,0.0,0.0,0.0,0.0,4.445,0.0,0.0,0.0,0.0,0.0,0.0,0.0,0.0,0.0,0.0,0.0,0.0,0.0,0.0,0.0,5.4363,5.4766,5.5181,5.5585,5.5978,5.6381,5.6774,5.7178,5.7593,5.7997,5.7997,5.7997,5.7997,5.7997,5.7997,5.7997,5.7997,5.7997,5.7997,5.7997,5.7997,5.7997,5.7997,5.7997,5.7997,5.7997,5.7997,5.7997,5.7997,5.7997,5.7997,5.7997,5.7997,5.7997,5.7997,5.7997,5.7997,5.7997,5.7997,5.7997,5.7997,5.7997,5.7997,5.7997,5.7997,5.7997,5.7997,5.7997,5.7997,5.7997,5.7997,5.7997,5.7997,5.7997,5.7997,5.7997,5.7997,5.8143,5.8547,5.8939,5.9343,5.9747,6.0493,6.1006,6.1006,6.1361,6.1582,6.1582,6.1582,6.1447,6.1043,6.1374,6.1582,6.1606,6.1998,6.2389,6.2793,6.2793,6.2793,6.2793,6.2793,6.2793,6.2793,6.2793,6.2793,6.2793,6.2793,6.2793,0.0,0.0,0.0,0.0,0.0,4.401,0.0,0.0,0.0,4.4266,0.0,0.0,0.0,0.0,0.0,0.0,0.0,0.0,0.0,0.0,0.0,0.0,0.0,0.0,0.0,5.3812,5.4106,5.5071,5.4997,5.5328,5.6297,5.648,5.6859,5.7519,5.7703,5.7776,5.7776,5.7923,5.7997,5.7997,5.7997,5.7997,5.7997,5.7997,5.7997,5.7997,5.7997,5.7997,5.7997,5.7997,5.7997,5.7997,5.7997,5.7997,5.7997,5.7997,5.7997,5.7997,5.7997,5.7997,5.7997,5.7997,5.7997,5.7997,5.7997,5.7997,5.7997,5.7997,5.7997,5.7997,5.7997,5.7997,5.7997,5.7997,5.7997,5.7997,5.7997,5.7997,5.7997,5.7997,5.7997,5.7997,5.7997,5.8547,5.8976,5.8976,5.9636,6.015,6.015,6.0297,6.0419,6.0419,6.0419,6.0346,6.0187,6.0297,6.0603,6.1117,6.1263,6.1667,6.2316,6.2352,6.2426,6.2572,6.2572,6.2646,6.2793,6.2793,6.2793,6.2793,6.2793,6.2793,0.0,0.0,0.0,0.0,4.4162,0.0,0.0,0.0,4.4177,4.4354,0.0,0.0,0.0,0.0,0.0,0.0,0.0,0.0,0.0,0.0,0.0,0.0,0.0,0.0,0.0,5.1646,5.183,5.3361,5.2821,5.3078,5.4583,5.5354,5.5768,5.5879,5.6565,5.6921,5.6921,5.7629,5.7997,5.7997,5.7997,5.7997,5.7997,5.7997,5.7997,5.7997,5.7997,5.7997,5.7997,5.7997,5.7997,5.7997,5.7997,5.7997,5.7997,5.7997,5.7997,5.7997,5.7997,5.7997,5.7997,5.7997,5.7997,5.7997,5.7997,5.7997,5.7997,5.7997,5.7997,5.7997,5.7997,5.7997,5.7997,5.7997,5.7997,5.7997,5.7997,5.7997,5.7997,5.7997,5.7997,5.7997,5.7997,5.807,5.8143,5.8143,5.8829,5.9343,5.9343,5.9967,6.0419,6.0419,6.0419,6.0114,5.9416,6.0003,6.0114,5.9526,6.015,6.0566,6.0676,6.0676,6.1006,6.1704,6.1741,6.2108,6.2793,6.2793,6.2793,6.2793,6.2793,6.2793,0.0,0.0,0.0,0.0,0.0,0.0,4.4409,0.0,4.4395,0.0,0.0,0.0,0.0,0.0,0.0,0.0,0.0,0.0,0.0,0.0,0.0,0.0,0.0,0.0,0.0,0.0,0.0,0.0,5.194,5.2491,5.3618,5.4473,5.5108,5.5585,5.5941,5.6088,5.6088,5.6895,5.7299,5.7299,5.7776,5.7997,5.7997,5.7997,5.7997,5.7997,5.7997,5.7997,5.7997,5.7997,5.7997,5.7997,5.7997,5.7997,5.7997,5.7997,5.7997,5.7997,5.7997,5.7997,5.7997,5.7997,5.7997,5.7997,5.7997,5.7997,5.7997,5.7997,5.7997,5.7997,5.7997,5.7997,5.7997,5.7997,5.7997,5.7997,5.7997,5.7997,5.7997,5.7997,5.7997,5.7997,5.7997,5.7997,5.7997,5.7997,5.829,5.851,5.851,5.8804,5.9024,5.9024,5.9024,5.8877,5.8547,5.8804,5.9061,5.9196,5.9967,6.0419,6.0419,6.0419,6.0566,6.0896,6.0896,6.108,6.1398,6.1887,6.2108,6.2108,6.2572,6.2793,4.4438,0.0,0.0,0.0,0.0,0.0,0.0,0.0,0.0,0.0,0.0,0.0,0.0,0.0,0.0,0.0,0.0,0.0,0.0,0.0,0.0,0.0,0.0,0.0,0.0,0.0,0.0,0.0,0.0,5.1316,5.2784,5.3408,5.4106,5.4924,5.5144,5.5254,5.5254,5.6051,5.6455,5.6492,5.7299,5.7666,5.7666,5.7886,5.7997,5.7997,5.7997,5.7997,5.7997,5.7997,5.7997,5.7997,5.7997,5.7997,5.7997,5.7997,5.7997,5.7997,5.7997,5.7997,5.7997,5.7997,5.7997,5.7997,5.7997,5.7997,5.7997,5.7997,5.7997,5.7997,5.7997,5.7997,5.7997,5.7997,5.7997,5.7997,5.7997,5.7997,5.7997,5.7997,5.7997,5.7997,5.7997,5.7997,5.7997,5.7997,5.7997,5.7997,5.7997,5.7997,5.7997,5.7997,5.7997,5.7997,5.7997,5.7997,5.8253,5.8829,5.9416,5.9758,5.9758,5.9758,5.9869,6.0077,6.0077,6.0187,6.0419,6.1006,6.1263,6.13,6.2316,6.2793,0.0,0.0,0.0,4.5256,0.0,0.0,0.0,0.0,4.477,0.0,0.0,0.0,0.0,0.0,0.0,0.0,0.0,0.0,0.0,0.0,0.0,0.0,0.0,0.0,0.0,0.0,0.0,0.0,0.0,0.0,5.1877,5.206,5.2454,5.3251,5.4032,5.4436,5.4436,5.5254,5.5658,5.5658,5.6455,5.6847,5.6847,5.7629,5.7997,5.7997,5.7997,5.7997,5.7997,5.7997,5.7997,5.7997,5.7997,5.7997,5.7997,5.7997,5.7997,5.7997,5.7997,5.7997,5.7997,5.7997,5.7997,5.7997,5.7997,5.7997,5.7997,5.7997,5.7997,5.7997,5.7997,5.7997,5.7997,5.7997,5.7997,5.7997,5.7997,5.7997,5.7997,5.7997,5.7997,5.7997,5.7997,5.7997,5.7997,5.7997,5.7997,5.7997,5.7997,5.7997,5.7997,5.7997,5.7997,5.7997,5.7997,5.7997,5.7997,5.8033,5.807,5.807,5.807,5.807,5.8437,5.9221,5.9233,5.9636,6.0419,6.0419,6.0456,6.0493,6.2059,6.2793,0.0,0.0,4.5376,4.5356,0.0,0.0,0.0,0.0,0.0,0.0,0.0,0.0,0.0,0.0,0.0,0.0,0.0,0.0,0.0,0.0,0.0,0.0,0.0,0.0,0.0,0.0,0.0,0.0,4.7893,0.0,0.0,5.1436,5.2134,5.2417,5.3188,5.3618,5.3618,5.4399,5.4803,5.4803,5.5611,5.6014,5.6025,5.6282,5.6393,5.6429,5.6969,5.7226,5.7262,5.7776,5.7997,5.7997,5.7997,5.7997,5.7997,5.7997,5.7997,5.7997,5.7997,5.7997,5.7997,5.7997,5.7997,5.7997,5.7997,5.7997,5.7997,5.7997,5.7997,5.7997,5.7997,5.7997,5.7997,5.7997,5.7997,5.7997,5.7997,5.7997,5.7997,5.7997,5.7997,5.7997,5.7997,5.7997,5.7997,5.7997,5.7997,5.7997,5.7997,5.7997,5.7997,5.7997,5.7997,5.7997,5.7997,5.7997,5.7997,5.7997,5.7997,5.7997,5.7997,5.7997,5.8143,5.84,5.84,5.8547,5.8804,5.9343,5.96,5.9636,6.0701,6.1215,4.4794,4.5185,0.0,4.5466,4.5462,0.0,4.5229,0.0,0.0,0.0,0.0,0.0,0.0,0.0,0.0,0.0,0.0,0.0,0.0,0.0,0.0,0.0,0.0,0.0,0.0,0.0,4.5516,4.6608,0.0,0.0,0.0,0.0,5.1693,5.1987,5.2774,5.3214,5.3214,5.3691,5.3959,5.3995,5.4803,5.5181,5.5181,5.5475,5.5585,5.5622,5.6161,5.6381,5.6455,5.7226,5.7556,5.7593,5.7886,5.7997,5.7997,5.7997,5.7997,5.7997,5.7997,5.7997,5.7997,5.7997,5.7997,5.7997,5.7997,5.7997,5.7997,5.7997,5.7997,5.7997,5.7997,5.7997,5.7997,5.7997,5.7997,5.7997,5.7997,5.7997,5.7997,5.7997,5.7997,5.7997,5.7997,5.7997,5.7997,5.7997,5.7997,5.7997,5.7997,5.7997,5.7997,5.7997,5.7997,5.7997,5.7997,5.7997,5.7997,5.7997,5.7997,5.7997,5.7997,5.7997,5.7997,5.7997,5.7997,5.7997,5.7997,5.8499,5.8756,5.8792,5.9318,5.9538]}]]